[[{"header":{"parameterUnit":"m.s-1","parameterCategory":1,"la1":30.6,"la2":29.2853,"lo1":-89.7004,"lo2":-87.6739,"dy":0.0162,"dx":0.0183,"nx":112,"ny":82,"refTime":"2024-04-20T12:00:00:Z","depth":0,"parameterNumber":2,"parameterNumberName":"U-component_of_WINDS"},"data":[0.0,0.0,0.0,0.0,0.0,0.0,0.0,0.0,0.0,0.0,0.0,0.0,0.0,0.0,0.0,0.0,0.0,0.0,0.0,0.0,0.0,0.0,0.0,0.0,0.0,0.0,0.0,0.0,0.0,0.0,0.0,0.0,0.0,0.0,0.0,0.0,0.0,0.0,0.0,0.0,0.0,0.0,0.0,0.0,0.0,0.0,0.0,0.0,0.0,0.0,0.0,0.0,0.0,0.0,0.0,0.0,0.0,0.0,0.0,0.0,0.0,0.0,0.0,0.0,0.0,0.0,0.0,0.0,0.0,0.0,0.0,0.0,0.0,0.0,0.0,0.0,0.0,0.0,0.0,0.0,0.0,0.0,0.0,0.0,0.0,0.0,0.0,0.0,0.0,0.0,2.9868,3.1113,3.2924,3.4129,3.4358,3.3388,3.1848,2.9662,0.0,0.0,0.0,0.0,0.0,0.0,0.0,0.0,0.0,0.0,0.0,0.0,0.0,0.0,0.0,0.0,0.0,0.0,0.0,0.0,0.0,0.0,0.0,0.0,0.0,0.0,0.0,0.0,0.0,0.0,0.0,0.0,0.0,0.0,0.0,0.0,0.0,0.0,0.0,0.0,0.0,0.0,0.0,0.0,0.0,0.0,0.0,0.0,0.0,0.0,0.0,0.0,0.0,0.0,0.0,0.0,0.0,0.0,0.0,0.0,0.0,0.0,0.0,0.0,0.0,0.0,0.0,0.0,0.0,0.0,0.0,0.0,0.0,0.0,0.0,0.0,0.0,0.0,0.0,0.0,0.0,0.0,0.0,0.0,0.0,0.0,0.0,0.0,0.0,0.0,0.0,0.0,0.0,0.0,0.0,0.0,0.0,0.0,0.0,0.0,0.0,0.0,0.0,0.0,2.983,3.331,3.3969,3.442,3.5084,3.3087,3.1278,3.0063,0.0,0.0,0.0,0.0,0.0,0.0,0.0,0.0,0.0,0.0,0.0,0.0,0.0,0.0,0.0,0.0,0.0,0.0,0.0,0.0,0.0,0.0,0.0,0.0,0.0,0.0,0.0,0.0,0.0,0.0,0.0,0.0,0.0,0.0,0.0,0.0,0.0,0.0,0.0,0.0,0.0,0.0,0.0,0.0,0.0,0.0,0.0,0.0,0.0,0.0,0.0,0.0,0.0,0.0,0.0,0.0,0.0,0.0,0.0,0.0,0.0,0.0,0.0,0.0,0.0,0.0,0.0,0.0,0.0,0.0,0.0,0.0,0.0,0.0,0.0,0.0,0.0,0.0,0.0,0.0,0.0,0.0,0.0,0.0,0.0,0.0,0.0,0.0,0.0,0.0,0.0,0.0,0.0,0.0,0.0,0.0,0.0,0.0,0.0,0.0,0.0,0.0,0.0,2.9007,3.0691,3.3273,3.3961,3.4389,3.473,3.2929,3.1316,3.0281,2.8439,0.0,0.0,0.0,0.0,0.0,0.0,0.0,0.0,0.0,0.0,0.0,0.0,0.0,0.0,0.0,0.0,0.0,0.0,0.0,0.0,0.0,0.0,0.0,0.0,0.0,0.0,0.0,0.0,0.0,0.0,0.0,0.0,0.0,0.0,0.0,0.0,0.0,0.0,0.0,0.0,0.0,0.0,0.0,0.0,0.0,0.0,0.0,0.0,0.0,0.0,0.0,0.0,0.0,0.0,0.0,0.0,0.0,0.0,0.0,0.0,0.0,0.0,0.0,0.0,0.0,0.0,0.0,0.0,0.0,0.0,0.0,0.0,0.0,0.0,0.0,0.0,0.0,0.0,0.0,0.0,0.0,0.0,0.0,0.0,0.0,0.0,0.0,0.0,0.0,0.0,0.0,0.0,0.0,0.0,0.0,0.0,0.0,0.0,0.0,0.0,0.0,0.0,3.0414,3.1647,3.2887,3.3785,3.4293,3.4245,3.2753,3.1385,3.0309,2.8006,0.0,0.0,0.0,0.0,0.0,0.0,0.0,0.0,0.0,0.0,0.0,0.0,0.0,0.0,0.0,0.0,0.0,0.0,0.0,0.0,0.0,0.0,0.0,0.0,0.0,0.0,0.0,0.0,0.0,0.0,0.0,0.0,0.0,0.0,0.0,0.0,0.0,0.0,0.0,0.0,0.0,0.0,0.0,0.0,0.0,0.0,0.0,0.0,0.0,0.0,0.0,0.0,0.0,0.0,0.0,0.0,0.0,0.0,0.0,0.0,0.0,0.0,0.0,0.0,0.0,0.0,0.0,0.0,0.0,0.0,0.0,0.0,0.0,0.0,0.0,0.0,0.0,0.0,0.0,0.0,0.0,0.0,0.0,0.0,0.0,0.0,0.0,0.0,0.0,0.0,0.0,0.0,0.0,0.0,0.0,0.0,0.0,0.0,0.0,0.0,0.0,0.0,3.0546,3.2224,3.3026,3.3873,3.4316,3.4124,3.2575,3.1181,3.018,2.7785,0.0,0.0,0.0,0.0,0.0,0.0,0.0,0.0,0.0,0.0,0.0,0.0,0.0,0.0,0.0,0.0,0.0,0.0,0.0,0.0,0.0,0.0,0.0,0.0,0.0,0.0,0.0,0.0,0.0,0.0,0.0,0.0,0.0,0.0,0.0,0.0,0.0,0.0,0.0,0.0,0.0,0.0,0.0,0.0,0.0,0.0,0.0,0.0,0.0,0.0,0.0,0.0,0.0,0.0,0.0,0.0,0.0,0.0,0.0,0.0,0.0,0.0,0.0,0.0,0.0,0.0,0.0,0.0,0.0,0.0,0.0,0.0,0.0,0.0,0.0,0.0,0.0,0.0,0.0,0.0,0.0,0.0,0.0,0.0,0.0,0.0,0.0,0.0,0.0,0.0,0.0,0.0,0.0,0.0,0.0,0.0,0.0,0.0,0.0,0.0,0.0,0.0,3.017,3.184,0.0,3.3873,3.4245,3.4049,3.2502,3.106,2.993,0.0,0.0,0.0,0.0,0.0,0.0,0.0,0.0,0.0,0.0,0.0,0.0,0.0,0.0,0.0,0.0,0.0,0.0,0.0,0.0,0.0,0.0,0.0,0.0,0.0,0.0,0.0,0.0,0.0,0.0,0.0,0.0,0.0,0.0,0.0,0.0,0.0,0.0,0.0,0.0,0.0,0.0,0.0,0.0,0.0,0.0,0.0,0.0,0.0,0.0,0.0,0.0,0.0,0.0,0.0,0.0,0.0,0.0,0.0,0.0,0.0,0.0,0.0,0.0,0.0,0.0,0.0,0.0,0.0,0.0,0.0,0.0,0.0,0.0,0.0,0.0,0.0,0.0,0.0,0.0,0.0,0.0,0.0,0.0,0.0,0.0,0.0,0.0,0.0,0.0,0.0,0.0,0.0,0.0,0.0,0.0,0.0,0.0,0.0,0.0,0.0,0.0,2.8391,3.0242,3.1921,0.0,3.3964,3.4316,3.4148,3.2526,3.117,3.0327,0.0,0.0,0.0,0.0,0.0,0.0,0.0,0.0,0.0,0.0,0.0,0.0,0.0,0.0,0.0,0.0,0.0,0.0,0.0,0.0,0.0,0.0,0.0,0.0,0.0,0.0,0.0,0.0,0.0,0.0,0.0,0.0,0.0,0.0,0.0,0.0,0.0,0.0,0.0,0.0,0.0,0.0,0.0,0.0,0.0,0.0,0.0,0.0,0.0,0.0,0.0,0.0,0.0,0.0,0.0,0.0,0.0,0.0,0.0,0.0,0.0,0.0,0.0,0.0,0.0,0.0,0.0,0.0,0.0,0.0,0.0,0.0,0.0,0.0,0.0,0.0,0.0,0.0,0.0,0.0,0.0,0.0,0.0,0.0,0.0,0.0,0.0,0.0,0.0,0.0,0.0,0.0,0.0,0.0,0.0,0.0,0.0,0.0,0.0,0.0,0.0,0.0,2.86,3.0858,3.2694,3.343,3.4158,3.4539,3.4409,3.2669,3.1579,0.0,0.0,0.0,0.0,0.0,0.0,0.0,0.0,0.0,0.0,0.0,0.0,0.0,0.0,0.0,0.0,0.0,0.0,0.0,0.0,0.0,0.0,0.0,0.0,0.0,0.0,0.0,0.0,0.0,0.0,0.0,0.0,0.0,0.0,0.0,0.0,0.0,0.0,0.0,0.0,0.0,0.0,0.0,0.0,0.0,0.0,0.0,0.0,0.0,0.0,0.0,0.0,0.0,0.0,0.0,0.0,0.0,0.0,0.0,0.0,0.0,0.0,0.0,0.0,0.0,0.0,0.0,0.0,0.0,0.0,0.0,0.0,0.0,0.0,0.0,0.0,0.0,0.0,0.0,0.0,0.0,0.0,0.0,0.0,0.0,0.0,0.0,0.0,0.0,0.0,0.0,0.0,0.0,0.0,0.0,0.0,0.0,0.0,0.0,0.0,0.0,0.0,0.0,2.9497,3.1317,3.3012,3.4415,3.4619,3.4623,3.4495,3.2739,3.156,3.1366,0.0,0.0,0.0,0.0,0.0,0.0,0.0,0.0,0.0,0.0,0.0,0.0,0.0,0.0,0.0,0.0,0.0,0.0,0.0,0.0,0.0,0.0,0.0,0.0,0.0,0.0,0.0,0.0,0.0,0.0,0.0,0.0,0.0,0.0,0.0,0.0,0.0,0.0,0.0,0.0,0.0,0.0,0.0,0.0,0.0,0.0,0.0,0.0,0.0,0.0,0.0,0.0,0.0,0.0,0.0,0.0,0.0,0.0,0.0,0.0,0.0,0.0,0.0,0.0,0.0,0.0,0.0,0.0,0.0,0.0,0.0,0.0,0.0,0.0,0.0,0.0,0.0,0.0,0.0,0.0,0.0,0.0,0.0,0.0,0.0,0.0,0.0,0.0,0.0,0.0,0.0,0.0,0.0,0.0,0.0,0.0,0.0,0.0,0.0,0.0,0.0,0.0,2.9791,3.1466,3.314,3.4793,3.483,3.4706,3.4602,3.3146,3.2006,3.1409,0.0,0.0,0.0,0.0,0.0,0.0,0.0,0.0,0.0,0.0,0.0,0.0,0.0,0.0,0.0,0.0,0.0,0.0,0.0,0.0,0.0,0.0,0.0,0.0,0.0,0.0,0.0,0.0,0.0,0.0,0.0,0.0,0.0,0.0,0.0,0.0,0.0,0.0,0.0,0.0,0.0,0.0,0.0,0.0,0.0,0.0,0.0,0.0,0.0,0.0,0.0,0.0,0.0,0.0,0.0,0.0,0.0,0.0,0.0,0.0,0.0,0.0,0.0,0.0,0.0,0.0,0.0,0.0,0.0,0.0,0.0,0.0,0.0,0.0,0.0,0.0,0.0,0.0,0.0,0.0,0.0,0.0,0.0,0.0,0.0,0.0,0.0,0.0,0.0,0.0,0.0,0.0,0.0,0.0,0.0,0.0,0.0,0.0,0.0,0.0,0.0,0.0,2.9677,3.1433,3.3121,3.4756,3.4869,3.4788,3.4708,3.3724,3.2655,3.1684,0.0,0.0,0.0,0.0,0.0,0.0,0.0,0.0,0.0,0.0,0.0,0.0,0.0,0.0,0.0,0.0,0.0,0.0,0.0,0.0,0.0,0.0,0.0,0.0,0.0,0.0,0.0,0.0,0.0,0.0,0.0,0.0,0.0,0.0,0.0,0.0,0.0,0.0,0.0,0.0,0.0,0.0,0.0,0.0,0.0,0.0,0.0,0.0,0.0,0.0,0.0,0.0,0.0,0.0,0.0,0.0,0.0,0.0,0.0,0.0,2.5515,0.0,0.0,0.0,0.0,0.0,0.0,0.0,0.0,0.0,0.0,0.0,0.0,0.0,0.0,0.0,0.0,0.0,0.0,0.0,0.0,0.0,0.0,0.0,0.0,0.0,0.0,0.0,0.0,0.0,0.0,0.0,0.0,0.0,0.0,0.0,0.0,0.0,0.0,0.0,0.0,0.0,2.9813,3.1524,3.3255,3.5021,3.5056,3.4927,3.4792,3.3749,3.2897,3.2471,2.9434,0.0,0.0,0.0,0.0,0.0,0.0,0.0,0.0,0.0,0.0,0.0,0.0,0.0,0.0,0.0,0.0,0.0,0.0,0.0,0.0,0.0,0.0,0.0,0.0,0.0,0.0,0.0,0.0,0.0,0.0,0.0,0.0,0.0,0.0,0.0,0.0,0.0,0.0,0.0,0.0,0.0,0.0,0.0,0.0,0.0,0.0,0.0,0.0,0.0,0.0,0.0,0.0,0.0,0.0,0.0,0.0,0.0,0.0,0.0,0.0,2.5794,0.0,0.0,0.0,0.0,0.0,0.0,0.0,0.0,0.0,0.0,0.0,0.0,0.0,0.0,0.0,0.0,0.0,0.0,0.0,0.0,0.0,0.0,0.0,0.0,0.0,0.0,0.0,0.0,0.0,0.0,0.0,0.0,0.0,0.0,0.0,0.0,0.0,0.0,0.0,0.0,2.9817,3.1531,3.3223,3.5024,3.5057,3.4888,3.4771,3.4083,3.3351,3.2596,3.0161,0.0,0.0,0.0,0.0,0.0,0.0,0.0,0.0,0.0,0.0,0.0,0.0,0.0,0.0,0.0,0.0,0.0,0.0,0.0,0.0,0.0,0.0,0.0,0.0,0.0,0.0,0.0,0.0,0.0,0.0,0.0,0.0,0.0,0.0,0.0,0.0,0.0,0.0,0.0,0.0,0.0,0.0,0.0,0.0,0.0,0.0,0.0,0.0,0.0,0.0,0.0,0.0,0.0,2.8584,2.8796,2.8813,2.7959,2.7733,2.7914,2.6818,2.6674,2.7161,2.655,0.0,0.0,0.0,0.0,0.0,0.0,0.0,0.0,0.0,0.0,0.0,0.0,0.0,0.0,0.0,0.0,0.0,0.0,0.0,0.0,0.0,0.0,0.0,0.0,2.8163,2.7791,0.0,0.0,0.0,0.0,0.0,0.0,0.0,0.0,0.0,0.0,0.0,0.0,2.9782,3.155,3.3294,3.4886,3.4965,3.4827,3.4687,3.4427,3.3778,3.2693,3.1089,2.9204,0.0,0.0,0.0,0.0,0.0,0.0,0.0,0.0,0.0,0.0,0.0,0.0,0.0,0.0,0.0,0.0,0.0,0.0,0.0,0.0,0.0,0.0,0.0,0.0,0.0,0.0,0.0,0.0,0.0,0.0,0.0,0.0,2.5148,2.5148,0.0,0.0,0.0,0.0,0.0,0.0,0.0,0.0,0.0,0.0,0.0,0.0,0.0,2.8602,2.9939,2.9281,2.8901,2.8769,2.8178,2.7988,2.8184,2.7455,2.7673,2.8668,2.8549,0.0,2.7207,2.7409,0.0,0.0,0.0,0.0,0.0,0.0,0.0,0.0,0.0,0.0,0.0,0.0,0.0,0.0,0.0,0.0,0.0,0.0,0.0,0.0,0.0,0.0,2.7904,2.8133,2.8235,2.8396,0.0,2.8306,2.776,2.797,2.7258,0.0,0.0,0.0,0.0,0.0,0.0,0.0,2.9763,3.1938,3.3771,3.4813,3.4849,3.4768,3.4623,3.4269,3.391,3.3552,3.1919,3.0501,2.9545,2.7526,0.0,0.0,0.0,0.0,0.0,0.0,0.0,0.0,0.0,0.0,0.0,0.0,0.0,0.0,0.0,0.0,0.0,0.0,0.0,0.0,0.0,0.0,0.0,0.0,0.0,0.0,0.0,0.0,0.0,2.5225,2.5652,2.5241,2.4793,2.4557,0.0,0.0,0.0,0.0,0.0,0.0,0.0,0.0,0.0,3.0612,3.0198,3.0268,3.0889,3.0491,3.0283,3.0241,2.9844,2.9764,2.9946,2.9317,2.9364,2.9927,2.98,2.9458,2.8975,2.8603,2.8269,2.7904,0.0,0.0,0.0,0.0,2.5308,2.5146,2.495,2.5234,0.0,2.5621,0.0,0.0,0.0,0.0,0.0,0.0,0.0,0.0,0.0,0.0,0.0,2.9506,2.9658,2.9795,3.0151,2.9897,2.9477,0.0,2.817,2.7627,2.795,0.0,0.0,0.0,0.0,3.0152,3.1054,3.2505,3.3807,3.4794,3.481,3.4666,3.445,3.4173,3.3815,3.3386,3.1872,3.0676,2.9958,2.8178,2.6445,0.0,0.0,0.0,0.0,0.0,0.0,0.0,0.0,0.0,0.0,0.0,0.0,0.0,0.0,0.0,0.0,0.0,0.0,0.0,0.0,0.0,0.0,0.0,0.0,0.0,0.0,0.0,0.0,2.5627,2.6308,2.578,2.5842,2.5893,0.0,0.0,0.0,0.0,0.0,0.0,2.9976,2.9908,3.0418,3.1746,3.1488,3.1404,3.1553,3.1308,3.1198,3.125,3.1317,3.1436,3.1607,3.1327,3.1159,3.1136,3.1142,3.0984,3.0661,2.9597,2.9177,2.9093,2.7808,2.6756,2.5975,2.602,2.6018,2.5953,2.5707,2.5822,2.6069,2.5815,0.0,2.6381,2.6252,0.0,0.0,0.0,0.0,2.7938,2.9627,3.0098,3.0357,3.1164,3.1417,3.1451,3.1421,3.1197,3.0737,0.0,2.9195,2.8664,2.8597,0.0,0.0,0.0,0.0,3.1389,3.2048,3.3025,3.3951,3.4715,3.4689,3.4517,3.4269,3.4023,3.368,3.3178,3.1899,3.0857,3.0199,2.9015,2.7661,2.6204,0.0,0.0,0.0,0.0,0.0,0.0,0.0,0.0,0.0,0.0,0.0,0.0,0.0,0.0,0.0,0.0,0.0,0.0,0.0,0.0,0.0,0.0,0.0,0.0,0.0,0.0,0.0,0.0,0.0,2.7386,2.7994,0.0,0.0,0.0,0.0,2.8517,2.8509,2.9132,3.0677,3.0488,3.1066,3.2599,3.1644,3.1474,3.2247,3.1501,3.1119,3.1101,3.156,3.1931,3.2267,3.2568,3.2459,3.2089,3.283,3.2573,3.1534,3.0141,2.9566,2.9551,2.9277,2.8637,2.7932,2.8562,2.8396,2.7853,2.7841,2.8268,2.8698,2.7981,2.714,2.627,2.5572,2.6002,0.0,0.0,2.8628,2.9676,3.1414,3.1874,3.2092,3.2953,3.3213,3.3223,3.3103,3.2369,3.1504,0.0,3.0393,3.0258,3.0213,0.0,2.9829,2.9763,3.094,3.188,3.1918,3.334,3.4394,3.4517,3.4473,3.434,3.4124,3.3807,3.3502,3.322,3.2355,3.1585,3.0975,3.038,2.9097,2.6991,2.6898,0.0,0.0,0.0,0.0,0.0,0.0,0.0,0.0,0.0,0.0,0.0,0.0,0.0,0.0,0.0,0.0,0.0,0.0,0.0,0.0,0.0,0.0,0.0,0.0,0.0,0.0,0.0,0.0,2.8221,2.9265,0.0,2.8923,2.9338,2.9754,3.0037,3.0565,3.1259,3.2106,3.2506,3.3103,3.3962,3.365,3.3593,3.3837,3.3093,3.2721,3.2702,3.29,3.3219,3.3584,3.341,3.3091,3.2663,3.2572,3.1914,3.088,3.0395,3.0079,2.9885,2.9613,2.8845,2.7967,2.8242,2.8176,2.7929,2.7848,2.7913,2.8088,2.842,2.8325,2.8138,2.8478,2.884,2.9226,2.9599,3.0377,3.1216,3.1786,3.2423,3.2967,3.3233,3.3283,3.3252,3.3204,3.2897,3.2522,3.2141,3.1542,3.1252,3.1689,3.2031,3.2166,3.1993,3.2863,3.3486,3.344,3.4008,3.4427,3.4495,3.4363,3.4197,3.3998,3.3698,3.3404,3.3086,3.1744,3.0868,3.0689,2.9707,2.8839,2.8125,2.7198,2.5999,0.0,0.0,0.0,0.0,0.0,0.0,0.0,0.0,0.0,0.0,0.0,0.0,0.0,0.0,0.0,0.0,0.0,0.0,0.0,0.0,0.0,0.0,0.0,0.0,0.0,0.0,3.0057,2.9702,3.0767,3.1194,3.0392,3.0801,3.125,3.1528,3.2051,3.2724,3.3548,3.3747,3.4202,3.4994,3.4824,3.4709,3.4709,3.4222,3.3803,3.3473,3.366,3.3849,3.4034,3.3826,3.3556,3.3255,3.3031,3.2277,3.1217,3.1217,3.0847,3.0271,2.9956,2.9552,2.9121,2.8894,2.8773,2.8724,2.8586,2.8307,2.8111,2.8708,2.8759,2.8694,2.9352,2.9773,3.0046,3.0115,3.097,3.1955,3.2233,3.3024,3.3847,3.4101,3.4121,3.4068,3.4043,3.3738,3.352,3.3699,3.2985,3.2388,3.2499,3.3279,3.3727,3.3234,3.384,3.4293,3.4245,3.4293,3.434,3.4386,3.4245,3.4049,3.3842,3.3559,3.3238,3.293,3.1542,3.064,3.0368,2.9321,2.8657,2.8478,2.726,2.6186,2.5252,0.0,0.0,0.0,0.0,0.0,0.0,0.0,0.0,0.0,0.0,0.0,0.0,0.0,0.0,0.0,0.0,0.0,0.0,0.0,0.0,0.0,0.0,0.0,2.8711,2.9962,3.1143,3.184,3.2511,3.2627,3.183,3.1686,3.2038,3.2943,3.2828,3.3382,3.4862,3.4043,3.4177,3.5607,3.4893,3.4545,3.4679,3.4732,3.4225,3.319,3.3642,3.3728,3.3492,3.3845,3.3901,3.376,3.4294,3.377,3.252,3.252,3.1799,3.0706,3.0428,3.0819,3.1471,3.0695,3.0397,3.038,3.0235,2.9698,2.9022,2.8957,2.8409,2.7814,2.7918,2.8536,2.9201,2.9264,3.05,3.199,3.2914,3.3848,3.476,3.5671,3.5855,3.5784,3.5715,3.493,3.4481,3.5254,3.4668,3.3704,3.2669,3.3655,3.4255,3.3291,3.3762,0.0,3.4124,3.4173,3.4197,3.4197,3.4074,3.3921,3.3698,3.3397,3.305,3.2702,3.1859,3.0985,3.0113,2.9347,2.8652,2.7984,2.7128,2.6204,2.5202,0.0,0.0,0.0,0.0,0.0,0.0,0.0,0.0,0.0,0.0,0.0,0.0,0.0,0.0,0.0,0.0,0.0,0.0,0.0,0.0,0.0,2.8296,2.9286,2.9413,3.1223,3.2555,3.2614,3.3241,3.3548,3.3172,3.3075,3.3158,3.3423,3.3278,3.3273,3.3473,3.393,3.4235,3.4396,3.4315,3.4303,3.4411,3.3647,3.3108,3.2752,3.2955,3.3085,3.3222,3.366,3.3337,3.2461,3.2888,3.2104,3.0496,3.0561,3.1026,3.1614,3.0674,3.0356,3.0436,3.0459,3.0464,3.0426,3.0098,3.001,2.9989,2.9763,2.965,2.9586,2.9576,3.0233,3.1009,3.1122,3.2389,3.3789,3.404,3.4771,3.5513,3.5775,3.5788,3.5717,3.5702,3.5408,3.5194,3.5372,3.5153,3.4767,3.4226,3.4348,3.4398,3.4037,3.4186,0.0,3.4245,3.4269,3.4245,3.4197,3.4049,3.3834,3.3577,3.3268,3.2912,3.259,3.1122,3.0084,2.9658,2.8627,2.7747,2.7128,2.6687,2.5998,0.0,0.0,0.0,0.0,0.0,0.0,0.0,0.0,0.0,0.0,0.0,0.0,0.0,0.0,0.0,0.0,0.0,0.0,0.0,0.0,0.0,0.0,2.936,3.0448,3.0886,3.2151,3.3078,3.3176,3.3558,3.3726,3.3549,3.3509,3.3481,3.3491,3.3214,3.306,3.3143,3.347,3.3899,3.4391,3.4427,3.4376,3.418,3.3565,3.2845,3.2004,3.2144,3.2256,3.2366,3.2712,3.2551,0.0,3.218,3.1682,3.0727,3.0324,3.0885,0.0,0.0,0.0,0.0,0.0,3.0308,3.0288,3.0109,3.0136,3.0301,3.0192,3.0258,3.0402,3.0756,3.1278,3.1835,3.2272,3.3407,3.4361,3.4015,3.4827,3.5677,3.5308,3.5415,3.5609,3.5646,3.557,3.5496,3.5477,3.5369,0.0,3.4963,3.4772,3.4564,3.4409,3.4386,3.4381,3.4269,3.4245,3.4221,3.4124,3.3947,3.3753,3.3481,3.3129,0.0,0.0,0.0,3.0403,2.9592,2.8216,0.0,0.0,0.0,2.6065,2.4688,0.0,0.0,0.0,2.1828,2.1243,0.0,0.0,0.0,0.0,0.0,0.0,0.0,0.0,0.0,0.0,0.0,0.0,0.0,0.0,0.0,0.0,3.0581,3.173,3.258,3.2742,3.2991,3.3514,3.3491,3.3375,3.3292,3.3232,3.3214,3.3256,3.2852,3.277,3.3143,0.0,0.0,0.0,0.0,3.4294,3.3891,3.3891,3.2956,3.1116,3.1308,3.1308,3.1138,3.1452,3.1738,3.1922,3.1865,3.1826,3.1732,3.0956,3.111,3.1788,3.114,3.145,3.2108,3.0582,3.0125,3.0242,3.0209,0.0,0.0,3.0467,3.0587,3.0818,3.1648,3.193,3.2116,3.2998,3.3802,3.423,3.3565,3.4516,3.5464,3.4701,3.5002,3.5495,3.5585,3.5538,3.554,3.5601,3.5405,3.5216,3.5138,3.4945,3.4732,3.4517,3.445,3.434,3.4221,3.4221,3.4173,3.4023,0.0,0.0,3.3393,3.2988,3.2535,3.2003,3.1897,3.1167,2.9592,2.8092,2.7319,2.7255,2.7233,2.6334,2.458,2.4225,2.3629,2.2697,2.1316,2.0274,0.0,0.0,0.0,0.0,0.0,0.0,0.0,0.0,0.0,0.0,0.0,0.0,0.0,0.0,0.0,2.9804,3.0897,3.181,3.2585,3.2662,3.2875,3.3444,3.3172,3.2988,3.3135,3.2816,3.257,3.2519,3.2915,3.2535,3.1168,3.1896,3.229,3.2135,3.2495,3.2838,3.3102,3.3161,3.2345,3.0658,0.0,0.0,3.014,3.1199,3.115,3.0318,3.126,3.0785,2.9416,2.994,3.1181,3.2614,3.1267,3.1374,3.2108,3.063,3.0521,3.1062,3.0419,3.0629,3.1183,3.1194,3.1729,3.2372,3.2538,3.2687,0.0,3.3891,3.4224,3.4434,3.4987,3.5291,3.5415,3.5245,3.532,3.5463,3.557,3.5601,3.5601,3.5667,3.5612,3.5483,3.5281,3.4963,3.4647,3.445,3.4404,3.4363,3.4293,3.4269,3.4221,3.4099,3.3921,3.3643,3.3178,3.2848,3.242,3.1875,3.1011,3.0091,2.9244,2.8476,2.8127,2.8226,2.7601,2.6785,2.5775,2.4467,2.3314,2.2273,2.1111,2.0813,0.0,0.0,0.0,0.0,0.0,0.0,0.0,0.0,0.0,0.0,0.0,2.5217,2.6079,0.0,2.8865,3.0101,3.1024,3.1774,3.2212,3.2161,3.2316,3.2844,3.2583,3.24,3.2519,3.2248,3.2074,3.2091,3.2076,3.1596,3.0575,3.1139,3.1292,3.0904,3.1637,3.2027,3.2066,3.1834,3.1104,2.9913,2.9668,2.928,2.892,3.0538,3.0499,2.9251,3.1179,3.0969,2.9435,3.0688,3.1887,3.2863,3.1987,3.2163,3.277,3.1646,3.1559,3.1946,3.1569,3.1718,3.2053,3.21,3.2444,3.2942,3.3369,3.3591,3.3879,3.4763,3.4931,3.4827,3.477,3.4966,3.509,3.4649,3.4901,3.5289,3.5463,3.547,3.5496,3.5623,3.5534,3.543,3.533,3.5018,3.473,3.4561,3.4517,3.4473,3.4427,3.4363,3.4293,3.4173,3.3947,3.3625,3.3208,3.2504,3.1894,3.1428,3.0463,2.985,2.9756,2.9162,2.8903,2.9055,2.8606,2.7879,2.6862,2.5911,2.4593,2.2943,2.1915,2.109,0.0,0.0,0.0,0.0,0.0,0.0,0.0,0.0,2.2483,2.2627,2.3854,2.5278,2.6383,2.7731,2.8992,3.016,3.0919,3.1425,3.1537,3.1387,3.1425,3.1861,3.1808,3.1771,3.1878,3.1797,3.1737,3.1674,3.1416,3.0966,3.0293,3.0461,3.0464,3.0164,3.0975,3.1277,3.1011,3.0798,3.018,2.9264,2.8817,2.8467,2.821,3.0038,3.0022,2.8664,3.0779,3.1176,3.043,3.1738,3.2574,3.3056,3.2904,3.3213,3.3638,3.2694,3.2591,3.2861,3.2733,3.2806,3.2955,3.303,3.3182,3.35,3.4216,3.4384,3.4506,3.5347,3.5334,3.4941,3.4275,3.4497,3.4734,3.4053,3.4452,3.5073,3.5304,3.533,3.5355,3.5558,3.5457,3.5311,3.5262,3.5051,3.485,3.4708,3.4645,3.4561,3.4495,3.4431,3.434,3.4221,3.3998,3.3652,3.3142,3.2179,3.1449,3.1021,3.0308,3.009,3.0435,2.9916,2.9661,2.9799,2.9644,2.8948,2.7774,2.7372,2.6116,2.4042,2.319,2.1576,2.3468,2.2585,2.2014,2.2555,2.2081,2.1523,0.0,0.0,2.3115,2.3455,2.4518,2.5795,2.7431,2.8094,2.8816,2.9878,3.0352,3.0526,3.0318,3.0159,3.0201,3.0485,3.0868,3.1206,3.1551,3.18,3.1672,3.0975,3.2135,3.1698,2.9059,3.0018,3.0228,2.92,2.971,3.0136,3.0283,3.1208,3.0767,2.9108,2.9299,2.9239,2.8999,3.0192,2.9957,2.869,2.911,3.0128,3.153,3.1709,3.2531,3.3687,3.3684,3.4035,3.4388,3.2788,3.2916,3.3723,3.2959,3.3223,3.3869,3.3876,3.4389,3.5072,3.5214,3.4743,3.432,3.5252,3.4769,3.4121,3.4732,3.4718,3.4574,3.4578,3.4615,3.4754,3.5141,3.5262,3.5359,3.5558,3.5477,3.5331,3.5155,3.4961,3.4792,3.4708,3.4645,3.4539,3.4427,3.4386,3.4363,3.4293,3.4099,3.3643,3.283,3.2109,3.1507,3.1055,3.0868,3.0737,3.068,3.0428,3.0329,3.0488,2.9954,2.9265,2.8406,2.7807,2.6788,2.5359,2.4626,2.2748,2.3671,2.3631,2.3661,0.0,2.2845,2.2546,2.1675,2.2319,2.3195,2.3421,2.4731,2.6149,2.6993,2.7752,2.8419,0.0,2.9377,2.9556,2.9633,2.9572,2.9689,3.0097,3.0477,3.0885,3.1278,3.1268,3.1033,3.0535,3.0889,3.0328,2.8448,2.8982,2.8912,2.7949,2.8293,2.8546,2.861,2.8432,2.8039,2.738,2.7151,2.6996,2.7025,2.8795,3.0064,3.0821,3.0439,3.1115,3.2491,3.2803,3.3286,3.3868,3.4012,3.4348,3.4617,3.3998,3.413,3.4537,3.4241,3.4423,3.476,3.4757,3.5051,3.5416,3.5456,3.5196,3.5006,3.5392,3.4991,3.4501,3.4717,3.4551,3.4344,3.4386,3.4498,3.467,3.487,3.5051,3.5203,3.5228,3.4833,3.4582,3.4865,3.4358,3.4043,3.4357,3.4495,3.4539,3.4517,3.4495,3.4363,3.4148,3.377,3.3302,3.2766,3.2109,3.1452,3.0902,3.0814,3.0773,3.0692,3.083,3.0929,3.1113,3.0898,3.0509,3.0082,2.9613,2.8646,2.7132,2.6419,2.4864,2.4257,0.0,0.0,2.3766,2.3492,2.3206,2.2173,2.2542,2.3244,2.386,2.5091,2.6217,2.6777,2.7429,2.7993,2.8334,2.8574,2.8716,2.8873,2.8967,2.9166,2.9629,2.9789,3.0031,3.0551,3.0684,3.0405,2.9548,2.9164,2.8386,2.7003,2.7018,2.6674,2.5791,2.6242,2.6418,2.6274,2.6036,2.5981,2.605,2.5854,2.5909,2.6301,2.7834,2.9858,3.2063,3.1286,3.1648,3.2848,3.3368,3.368,3.3868,3.4179,3.448,3.4752,3.4945,3.5054,3.5126,3.519,3.5273,3.5358,3.5324,3.5412,3.5495,3.5499,3.5513,3.5517,3.5503,3.5214,3.4852,3.466,3.4394,3.4197,3.4173,3.434,3.4464,3.4348,3.4622,3.4775,3.4319,3.4036,3.3979,3.4218,3.3805,3.3585,3.4006,3.4197,3.4316,3.445,3.4427,3.4269,3.3921,3.3484,3.305,3.2734,3.2109,3.1528,3.0965,3.0797,3.0692,3.0692,3.0935,3.1151,3.1346,3.1346,3.123,3.1072,3.0692,2.9832,2.8545,2.7896,2.6513,2.5534,0.0,2.4544,2.4946,2.3867,2.2924,2.3668,2.331,2.338,2.5313,2.5662,2.601,2.7324,2.7473,2.759,2.8137,2.8155,2.8042,2.789,2.814,2.8465,2.881,2.8434,2.8403,0.0,3.0158,2.9906,2.7599,2.7247,2.6278,2.4163,2.3804,2.3289,2.2441,2.3308,2.358,2.3267,2.4988,2.5897,2.6038,2.6645,2.7412,2.8316,2.8024,2.9155,3.1285,3.0404,3.0898,3.2352,3.2816,3.328,3.3753,3.4147,3.4505,3.4829,3.5179,3.5324,3.5364,3.5315,3.5379,3.5493,3.5412,3.5445,3.5505,3.5509,3.5546,3.558,3.5533,3.522,3.4851,3.4655,3.4394,3.4173,3.4124,3.4221,3.4134,3.3484,3.3918,3.3998,3.2561,3.3256,3.3849,3.3092,3.3407,3.377,3.3726,3.3726,3.3815,3.4074,3.4124,3.3972,3.3661,3.3368,3.305,3.2734,3.2197,3.1711,3.1295,3.0918,3.0692,3.0692,3.0692,3.0814,3.1015,3.0902,3.0781,3.0692,3.0231,2.9738,2.9243,2.8701,2.7342,2.5083,2.5409,2.5618,2.5345,2.4958,2.4563,2.4404,2.4304,2.4305,2.4798,2.525,2.5698,2.5977,2.6651,2.7342,2.7845,2.8373,2.8685,2.8512,2.8384,2.8273,2.8148,2.7893,0.0,0.0,0.0,0.0,2.5854,2.5324,2.4193,2.2103,2.2089,2.1862,2.1334,2.191,2.208,2.1711,2.2378,2.2877,2.324,2.4759,2.5923,2.664,2.7138,2.7874,2.8826,2.9593,3.0465,3.1448,3.2588,3.3385,3.3943,3.4435,3.4793,3.5088,3.5174,3.53,3.5397,3.5427,3.5379,3.53,3.527,3.5181,3.5153,3.5371,3.5383,3.5384,3.5619,3.5399,3.504,3.4813,3.4427,3.3951,3.3264,3.3135,3.2939,3.2035,3.2649,3.305,3.1844,3.2487,3.3105,3.2679,3.2357,3.1964,3.1438,3.2702,3.3725,3.376,3.3733,3.3625,3.3419,3.3063,3.2766,3.2437,3.193,3.1411,3.0868,3.0601,3.0267,2.9984,2.9781,2.9815,3.0133,2.9321,2.9033,2.9277,2.8585,2.8062,2.7699,2.7389,2.6949,2.5209,2.5642,2.6085,2.5973,2.5777,2.5494,2.5155,2.4982,2.4878,2.4739,2.525,2.5639,2.561,2.6627,2.7518,2.776,2.834,2.8639,2.8242,2.7803,2.7425,2.7083,2.6542,2.5629,0.0,0.0,0.0,2.3743,2.2284,2.0737,1.9351,1.8482,1.7961,1.7863,1.8596,1.8994,1.8923,1.9565,2.0404,2.13,2.3392,2.4493,2.4818,2.5942,2.6574,2.6923,2.8575,2.9707,3.0423,3.162,3.2559,3.3284,3.367,3.4147,3.4661,3.4902,3.5078,3.5197,3.533,3.5281,3.5181,3.5228,3.5166,3.5152,3.5453,3.5529,3.552,3.5708,3.5533,3.5229,3.4956,3.4555,3.3998,3.2914,3.2603,3.2161,3.0838,3.1281,3.1597,3.034,3.102,3.1701,3.1219,3.0779,3.0303,2.9612,3.0885,3.2068,3.2547,3.2601,3.2685,3.2836,3.2568,3.23,3.2073,3.1654,3.1196,3.0625,3.0393,2.994,2.9291,2.9167,2.9033,2.8946,2.8137,2.7785,2.8044,2.7174,2.6626,2.6406,2.6287,2.6092,2.5804,2.5887,2.5951,2.6761,2.63,2.5716,2.5875,2.5497,2.5152,2.5312,2.559,2.5952,0.0,0.0,2.8053,2.7879,2.8109,2.8018,2.7181,2.6611,2.6008,0.0,0.0,0.0,0.0,0.0,0.0,2.0963,0.0,1.6251,1.5912,1.3344,1.2025,1.2483,1.3709,1.4592,1.5067,1.6908,1.8591,2.0192,2.2346,2.3206,2.2959,2.4403,2.5158,2.545,2.727,2.842,2.9102,2.9922,3.0801,3.1689,3.1859,3.2565,3.3592,3.4275,3.4624,3.4812,3.5066,3.5098,3.5059,3.5215,3.5288,3.5378,3.5685,3.5879,3.5932,3.576,3.5611,3.5422,3.5095,3.4716,3.4132,3.2963,3.2452,3.1719,2.9773,2.9822,2.9756,2.8176,2.9022,2.9702,2.8819,2.8831,2.8781,2.8202,2.835,2.9053,3.0577,3.0919,3.1285,3.1899,3.1913,3.1785,3.1579,3.1329,3.0998,3.0584,3.0293,2.9642,2.8646,2.8812,2.8465,2.7518,2.7257,2.701,2.6805,2.5937,2.542,2.531,2.531,2.4826,2.5299,2.6018,2.6721,2.6295,2.6337,2.6424,2.6127,2.6236,2.6258,2.5711,2.5954,2.6264,0.0,0.0,0.0,2.8247,2.8876,0.0,2.6766,2.6476,0.0,2.1354,0.0,2.021,1.6678,1.5692,0.0,0.0,1.5362,1.4806,1.2824,1.1781,1.1719,1.2777,1.3317,1.389,1.4584,1.5975,1.7363,1.8692,1.9483,2.0153,2.0754,2.1495,2.2013,2.2335,2.4833,2.5721,2.564,2.82,2.916,2.9099,3.0104,3.1301,3.2546,3.316,3.3813,3.4352,3.4438,3.4395,3.4333,3.4623,3.4508,3.4452,3.5249,3.5502,3.5522,3.5781,3.5685,3.5427,3.5081,3.4189,3.2966,3.1327,3.0522,2.9692,2.7945,2.839,2.8767,2.7675,2.8048,2.8472,2.8232,2.7791,2.7094,2.5934,2.5956,2.7081,2.9797,3.0309,3.0653,3.1253,3.13,3.124,3.1004,3.0781,3.0551,3.0182,2.941,2.8786,2.8389,2.7319,2.6563,2.6238,2.521,2.4425,2.3932,2.3207,2.28,2.2692,2.2861,2.314,2.539,2.5995,2.6478,2.5903,2.6371,2.6721,2.5856,2.6331,2.6766,2.6041,2.6235,2.6471,2.6317,2.7509,2.841,0.0,0.0,0.0,2.537,2.38,2.1556,0.0,1.7192,0.0,1.3288,1.2532,1.1832,0.0,1.1937,1.2278,1.1059,1.0645,1.0854,1.178,1.2257,1.2921,1.3712,1.4986,1.6024,1.6863,1.7879,1.8713,1.9425,2.0128,2.027,1.9942,0.0,2.2293,2.2147,2.4055,2.5329,2.6273,2.7411,2.9197,3.1243,3.2121,3.2876,3.3421,3.3283,3.2557,3.1888,3.3287,3.3817,3.4001,3.4569,3.5082,3.5514,3.576,3.5736,3.5521,3.5076,3.4414,3.3421,3.1519,3.0566,2.9521,2.7417,2.7234,2.7257,2.6297,2.6743,2.7075,2.6348,2.5895,2.5346,2.4348,2.4374,2.5327,2.7551,2.8334,2.9152,3.0337,3.0152,3.0046,3.0302,2.9972,2.9606,2.919,2.8623,2.7924,2.7163,2.6642,2.5899,2.4872,2.4195,2.3434,2.2614,2.1814,2.1465,2.1561,2.167,2.2088,2.5572,2.5782,2.5739,2.5468,2.6197,2.6704,2.5488,2.5844,2.623,2.552,2.5552,2.5689,2.5698,2.7143,2.8035,2.7128,0.0,2.5552,2.2863,1.9907,1.7044,1.4547,1.2963,1.17,1.0603,1.0209,0.9352,0.771,0.8443,0.919,0.9854,0.9555,0.9653,1.0295,1.1117,1.1958,1.2751,1.3709,1.4543,1.5094,1.6661,1.7734,1.837,1.93,1.8944,1.7686,1.8475,0.0,1.8278,1.8964,2.0698,2.2967,2.4202,2.653,2.9345,3.0715,3.1509,3.189,3.1803,3.0275,2.885,3.1293,3.2657,3.3376,3.3449,3.4434,3.5543,3.5584,3.562,3.5516,3.5014,3.4743,3.4108,3.2195,3.1165,2.9958,2.7414,2.6399,2.5696,2.482,2.5401,2.5575,2.4101,2.396,2.3824,2.3304,2.3392,2.3891,2.4785,2.5923,2.732,2.9158,2.8766,2.8727,2.9493,2.9051,2.8607,2.8229,2.7991,2.726,2.5926,2.6352,2.567,2.3669,2.3717,2.3239,2.2082,2.1246,2.0957,2.1277,2.118,2.1471,2.4661,2.5034,2.5288,2.4537,2.5422,2.6302,2.5835,2.4651,0.0,2.1355,2.1176,2.1014,1.9749,2.1903,2.3699,2.3311,2.2442,2.1023,1.8607,1.7245,1.5068,0.0,1.1012,1.011,0.7036,0.6634,0.0,0.0,0.0,0.6175,0.7601,0.8108,0.8746,0.9675,1.0983,1.1787,1.2073,1.2159,1.279,1.3975,1.4104,1.4964,1.6614,1.6839,1.6018,1.4439,1.6169,0.0,1.2791,1.6044,1.7646,1.8291,2.1266,2.3695,2.5784,2.7859,2.8758,2.9108,3.0095,2.8973,2.7332,2.8526,2.9606,3.0543,3.1082,3.2857,3.4776,3.5038,3.497,3.4811,3.482,3.3665,3.2051,3.0217,2.9322,2.8356,2.6639,2.5907,2.5485,2.5007,2.4518,2.407,2.3764,2.3681,2.3407,2.2889,2.3054,2.326,2.3304,2.4716,2.6329,2.7867,2.798,2.8145,2.8736,2.8641,2.8594,2.8652,2.763,2.6952,2.6762,2.5588,2.4393,2.3243,2.3098,2.2391,2.1053,2.0974,2.0835,2.0573,2.0885,2.1082,2.3951,2.4416,2.476,2.4157,2.5172,2.6272,2.5796,0.0,0.0,2.3429,2.2301,2.1269,2.1451,2.2091,0.0,2.0867,1.9045,1.6958,1.4758,1.272,1.0454,0.7622,0.732,0.6448,0.0,0.437,0.4211,0.3418,0.0,0.4533,0.5581,0.7318,0.8812,0.9948,1.12,1.1859,1.191,1.2149,1.2869,1.423,1.4177,1.4879,1.6337,1.4985,1.3214,1.12,1.0783,0.0,0.8226,1.0635,1.2747,1.4841,1.7797,2.0688,2.3329,2.4902,2.6357,2.7547,2.7488,2.6096,2.4559,2.5566,2.7441,2.933,2.9551,3.1902,3.4606,3.5069,3.4318,3.338,3.3555,3.2318,3.0795,2.9967,2.8606,2.6978,2.4953,2.4725,2.473,2.403,2.4146,2.4158,2.3509,2.329,2.3083,2.2754,2.2694,2.2663,2.2632,2.3541,2.4808,2.6471,2.6607,2.6896,2.7765,2.7743,2.7722,2.7844,2.6978,2.6379,2.6308,2.5354,2.4283,2.3155,2.3059,2.245,2.1299,2.1006,2.0921,2.1019,2.0983,2.1229,2.3648,2.402,2.428,2.4088,2.5057,2.6031,2.577,2.3807,2.2566,2.4465,2.2685,2.1061,2.1943,2.1598,2.0408,0.0,1.5553,1.3073,1.0857,0.8193,0.5979,0.0,0.383,0.0,0.2189,0.2425,0.0,0.1413,0.0,0.0,0.4331,0.6875,0.8773,0.9834,1.1032,1.1747,1.1849,1.2281,1.3128,1.4302,1.4627,1.5158,1.5894,1.3368,1.0785,0.807,0.542,0.0,0.0,0.5336,0.8105,1.1695,1.4628,1.7851,2.1021,2.2141,2.3905,2.5631,2.4733,2.3256,2.1885,2.3249,2.5615,2.8033,2.8478,3.1255,3.4299,3.4386,3.3253,3.2018,3.1913,3.0916,2.9975,3.0056,2.832,2.6095,2.4089,2.3929,2.3966,2.3088,2.3747,2.4104,2.3081,2.2904,2.2814,2.2618,2.2356,2.2231,2.237,2.2586,2.3378,2.5037,2.5298,2.5783,2.6821,2.6909,2.6975,2.7038,2.6539,2.6106,2.5806,2.5287,2.4483,2.3275,2.3091,2.2614,2.1841,2.1251,2.1153,2.1568,2.1229,2.1423,2.4333,2.4115,2.3942,2.4371,2.486,2.543,2.6167,0.0,1.9932,1.8492,1.7476,1.6203,1.411,1.5372,1.5981,0.0,0.0,0.9259,0.6451,0.4993,0.3936,0.3103,0.0,0.0,0.0859,0.0312,0.0,0.0,0.0,0.0,0.4414,0.6463,0.7654,0.7993,0.9788,1.091,1.1344,1.185,1.2438,1.3181,1.3812,1.4197,1.4336,1.182,0.8819,0.535,0.2829,0.0,0.0,0.2138,0.5394,0.8659,1.2555,1.5653,1.8145,1.9703,2.1063,2.2116,2.2333,2.1454,2.052,2.235,2.3834,2.5386,2.7868,3.0889,3.3183,3.1666,3.1347,3.1243,3.0226,2.9717,2.9496,2.9629,2.8052,2.6319,2.5617,2.4462,2.3474,2.3158,2.2748,2.2427,2.2324,2.2583,2.2689,2.2324,2.2137,2.2137,2.237,2.2324,2.2601,2.3524,2.4583,2.5481,2.6151,2.6691,2.7038,2.7181,2.6858,2.647,2.6087,2.5278,2.4374,2.3406,2.2978,2.2491,2.1996,2.1554,2.1361,2.1423,2.1375,2.1326,2.3707,2.3961,2.4526,2.467,2.4611,2.4825,2.6152,2.2341,1.9002,2.0845,1.8351,1.5912,1.6277,1.4905,1.3015,0.0,0.0,0.0,0.3268,0.2109,0.1487,0.1753,0.093,0.0,0.0,0.0,-0.1568,0.0,0.0,0.0,0.1362,0.3481,0.5129,0.6228,0.7958,0.948,1.0675,1.1042,1.1796,1.2968,1.2911,1.2114,1.0456,0.6695,0.2573,-0.1741,-0.5059,0.0,0.0,-0.4727,-0.1552,0.2712,0.5328,0.8438,1.1646,1.2726,1.448,1.6504,1.7655,1.7026,1.6318,2.0584,2.2631,2.4235,2.7992,3.1117,3.3216,3.2598,3.1358,3.0149,2.9901,2.9551,2.9039,2.8083,2.7163,2.6089,2.4642,2.3834,2.3434,2.3403,2.3333,2.326,2.3172,2.2994,2.2752,2.237,2.1996,2.1746,2.1793,2.1949,2.2342,2.298,2.4205,2.5249,2.5983,2.6657,2.7117,2.7258,2.6707,2.6315,2.6104,2.5176,2.441,2.3852,2.3363,2.3009,2.2768,2.2356,2.2217,2.2434,2.2217,2.2137,2.3948,2.4336,2.5031,2.4978,2.4367,2.4081,2.5122,2.1471,1.8634,2.119,1.8372,1.5726,1.6795,1.4076,1.0897,0.0,0.0,0.2154,0.0554,-0.0285,-0.0729,0.0,0.0,-0.2324,0.0,-0.3471,0.0,0.0,0.0,0.0,-0.1084,0.0964,0.3014,0.4981,0.6706,0.835,1.0111,1.0511,1.1106,1.1937,1.1474,0.9536,0.621,0.1585,-0.3024,-0.7544,-1.1533,0.0,0.0,-1.0557,-0.7854,-0.3998,-0.2115,0.0763,0.4089,0.552,0.7955,1.0747,1.2771,1.2827,1.26,1.6902,1.8846,2.0534,2.6057,3.0276,3.3087,3.2789,3.1066,2.9364,2.938,2.9391,2.9128,2.8083,2.7382,2.6542,2.494,2.4243,2.3941,2.3903,2.3906,2.3837,2.3608,2.3054,2.2434,2.2123,2.1636,2.141,2.1506,2.1841,2.2374,2.3069,2.4205,2.5211,2.5859,2.6437,2.6873,2.7083,2.6471,2.6052,2.5997,2.5192,2.4574,2.4162,2.3724,2.348,2.3392,2.2979,2.292,2.326,2.2934,2.2838,2.553,2.5437,2.5342,2.5242,2.4144,2.3032,2.2731,2.0792,1.8649,1.718,1.6049,1.474,1.2991,1.1532,0.9564,0.6454,0.0,0.0,-0.1797,-0.2066,-0.2511,0.0,0.0,-0.5989,-0.5871,-0.7742,0.0,0.0,0.0,0.0,-0.2042,-0.0309,0.184,0.4435,0.6096,0.7831,0.9579,1.0264,1.0196,0.9447,0.9173,0.6551,0.1908,-0.2838,-0.7026,0.0,0.0,0.0,0.0,-1.4164,-1.2431,-1.088,-0.8816,-0.6576,-0.4137,-0.0753,0.2279,0.5117,0.8024,0.9463,1.0085,1.1022,1.1378,1.3019,2.1109,2.7894,3.2529,3.1219,3.0052,2.9052,2.8396,2.9041,2.9998,3.0369,2.9233,2.7983,2.7541,2.6265,2.5078,2.4752,2.4102,2.3503,2.3157,2.2377,2.1698,2.1286,2.0993,2.1055,2.1698,2.2095,2.2725,2.3779,2.4672,2.5373,2.5779,2.5924,2.6191,2.6556,2.6085,2.5779,2.5701,2.5323,2.4855,2.4302,2.3967,2.3739,2.3595,2.3245,2.3288,2.3595,2.3318,2.3285,2.5496,2.4898,2.4294,2.4297,2.272,2.0643,1.8487,1.5905,1.3823,1.3476,1.1426,1.0218,1.1635,0.9486,0.6972,0.5337,0.2413,0.0,0.0,0.0,0.0,-0.3971,-0.5183,-0.6403,0.0,0.0,0.0,0.0,0.0,0.0,-0.3898,-0.2426,-0.0157,0.3175,0.4055,0.5211,0.6632,0.6593,0.5755,0.4131,0.2389,-0.1183,-0.6508,-1.1171,-1.5377,0.0,0.0,0.0,0.0,-2.1732,-2.0403,-1.8134,-1.6788,-1.5292,-1.3539,-1.1468,-0.9449,-0.7262,-0.4609,-0.2685,-0.1251,-0.0461,0.1437,0.4179,0.8362,1.7239,2.6539,2.9604,3.0095,2.9633,2.9424,2.973,3.0133,3.0208,2.8962,2.7708,2.7537,2.6533,2.5612,2.5424,2.5016,2.4449,2.3731,2.2788,2.188,2.1042,2.0633,2.0534,2.0957,2.1798,2.2639,2.342,2.4456,2.5336,2.5872,2.6264,2.6385,2.6158,2.5799,2.5481,2.5224,2.4791,2.4385,2.3967,2.3739,2.379,2.4089,2.3878,2.3864,2.3999,2.3214,2.2704,2.5088,2.4543,2.3769,2.2853,2.1051,1.878,1.6056,1.2623,1.0159,1.0689,0.8206,0.6705,0.9106,0.7093,0.4711,0.3575,0.0374,0.0,0.0,0.0,0.0,-0.6464,0.0,0.0,0.0,0.0,0.0,0.0,0.0,0.0,-0.6255,-0.5029,-0.3553,-0.1555,0.0156,0.1266,0.1955,0.0698,-0.105,-0.3174,-0.5497,-0.9267,-1.4347,-1.8104,-2.1599,0.0,0.0,0.0,0.0,-2.6662,-2.622,-2.5012,-2.4011,-2.3202,-2.2344,-1.9969,-1.8227,-1.6542,-1.3609,-1.175,-1.0516,-0.9866,-0.5721,-0.0818,-0.0,1.0867,2.372,2.7468,2.9505,3.0429,2.9954,3.0014,3.018,3.0047,2.9106,2.8168,2.7944,2.7169,2.6471,2.6217,2.5664,2.4918,2.3884,2.27,2.154,2.0344,1.9876,1.9734,1.9876,2.0985,2.2028,2.2743,2.3776,2.4599,2.5041,2.5512,2.5693,2.54,2.5051,2.4784,2.467,2.4426,2.4135,2.3739,2.3782,2.3863,2.3985,2.3879,2.3879,2.3895,2.2973,2.2314,0.0,2.4269,2.3556,2.1206,1.936,1.7421,1.4927,1.0797,0.0,0.8632,0.6091,0.4164,0.5712,0.4366,0.2671,0.134,-0.1699,0.0,0.0,-0.8225,0.0,0.0,-1.173,0.0,0.0,0.0,0.0,0.0,0.0,0.0,-0.9113,-0.8388,-0.8338,-0.8967,-0.5942,-0.4253,-0.4281,-0.7028,-0.9503,-1.1859,-1.4082,-1.7381,-2.1479,-2.3731,-2.596,0.0,0.0,0.0,0.0,-2.9436,-3.0033,-3.1153,-3.0143,-3.0162,-3.0211,-2.6503,-2.4547,-2.3264,-1.971,-1.8275,-1.789,-1.7459,-1.1069,-0.3812,-0.5214,0.753,2.287,2.4524,2.7732,3.0459,2.9641,2.9631,2.9808,2.9703,2.938,2.8966,2.8439,2.7903,2.7444,2.7021,2.6019,2.4886,2.3743,2.2204,2.0677,1.9181,1.8792,1.8614,1.8555,1.9736,2.0913,2.1741,2.2624,2.3201,2.3346,2.396,2.4364,2.4399,2.4006,2.3867,2.4036,2.412,2.3994,2.3508,2.3855,2.3827,2.3349,2.3393,2.3378,2.3334,2.2558,2.2081,2.385,0.0,2.2135,2.1091,1.9359,1.6645,0.0,0.9413,0.0,0.0,0.0,0.2342,0.3747,0.1711,-0.0224,-0.0232,0.0,0.0,-0.8078,0.0,0.0,0.0,0.0,0.0,0.0,0.0,0.0,0.0,0.0,-1.6567,-1.4681,-1.4279,-1.4178,-1.4513,-1.5982,-1.5241,-1.207,-1.3866,-1.6124,-1.8937,-2.0828,-2.3339,-2.6349,-2.892,-3.0398,0.0,0.0,0.0,-3.19,-3.2494,-3.3026,-3.352,-3.3644,-3.3969,-3.4275,-3.2919,-3.152,-3.0078,-2.8574,-2.6427,-2.4445,-2.5153,-2.1875,-1.7442,-1.6268,-0.1467,1.5532,1.8324,2.0173,2.2186,2.5855,2.6616,2.6627,2.729,2.7323,2.7145,2.6764,2.6825,2.6884,2.659,2.5575,2.4387,2.3183,2.122,1.9354,1.8024,1.7169,1.6845,1.7147,1.8452,1.9564,2.0176,2.1202,2.1841,2.1736,2.3157,2.3834,2.3405,2.3537,2.3508,2.3201,2.329,2.3157,2.2678,2.3137,2.3255,2.2935,2.3098,2.3008,2.2706,2.1863,2.1064,2.2914,2.2296,2.156,2.0019,1.7813,1.498,1.1048,0.0,0.0,0.0,0.0,-0.0273,0.1209,0.0219,0.0,0.0,-0.4448,0.0,0.0,0.0,0.0,0.0,0.0,0.0,0.0,0.0,0.0,0.0,0.0,-2.1358,-2.0069,-1.972,-1.9978,-2.0784,-2.3229,-2.2756,-1.9018,-2.1318,-2.3629,-2.5939,-2.764,-2.9278,-3.0836,-3.2367,-3.3016,0.0,0.0,0.0,-3.3262,-3.4317,-3.4891,-3.5132,-3.5397,-3.5793,-3.6118,-3.54,-3.4439,-3.3436,-3.284,-3.0911,-2.8909,-3.0245,-2.713,-2.2889,-2.2703,-1.2762,0.0193,0.8511,1.2926,1.6216,2.1011,2.3054,2.4061,2.4962,2.4974,2.4668,2.4254,2.4596,2.4831,2.4435,2.3943,2.3197,2.1787,2.0023,1.8183,1.6536,1.5658,1.5197,1.5303,1.6239,1.7067,1.7591,1.8519,1.9186,1.9331,2.0713,2.182,2.2406,2.2694,2.2799,2.2678,2.2709,2.2512,2.1988,2.1849,2.1668,2.1395,2.1191,2.1013,2.0938,2.0592,2.0229,2.2042,2.1361,2.0455,1.8152,1.5544,1.2985,1.0863,0.0,0.0,0.0,0.0,0.0,0.0,-0.1155,0.0,0.0,0.0,0.0,-1.3847,-1.5139,0.0,0.0,0.0,0.0,0.0,0.0,0.0,0.0,0.0,-2.5595,-2.4813,-2.4686,-2.5312,-2.6745,-2.8434,-2.8106,-2.5559,-2.8431,-3.0543,-3.1831,-3.3232,-3.4018,-3.4293,-3.4431,-3.4431,-3.4311,0.0,0.0,-3.4191,-3.5318,-3.5896,-3.6124,-3.636,-3.657,-3.6629,-3.592,-3.521,-3.4576,-3.4255,-3.2824,-3.1412,-3.2988,-2.9219,-2.4427,-2.6189,-2.3133,-1.6336,-0.3404,0.434,0.9828,1.4738,1.8091,2.0495,2.1662,2.1768,2.1425,2.0946,2.1363,2.1696,2.1115,2.1144,2.0948,1.985,1.8084,1.6282,1.4713,1.3791,1.3254,1.3039,1.3459,1.3938,1.4473,1.5308,1.6032,1.6675,1.7725,1.9172,2.1051,2.1527,2.1935,2.217,2.2049,2.1677,2.117,2.0343,1.9736,1.9325,1.8761,1.8602,1.8773,1.9088,1.9258,2.1823,1.8857,1.5999,1.5293,1.3445,1.1174,0.8941,0.0,0.0,0.0,0.0,0.0,0.0,-0.4426,-0.4783,0.0,0.0,0.0,0.0,0.0,0.0,0.0,0.0,0.0,0.0,0.0,0.0,0.0,0.0,-2.7683,-2.7824,-2.8493,-2.9286,-3.0214,-3.1507,-3.2247,-3.2367,-3.3122,-3.3596,-3.3778,-3.436,-3.4666,-3.4708,-3.4849,-3.4831,-3.4713,0.0,-3.4848,-3.4651,-3.5408,-3.6044,-3.6593,-3.7647,-3.7317,-3.6338,-3.6699,-3.5742,-3.4245,-3.3958,-3.2358,-3.0673,-3.2087,-2.9966,-2.7004,-2.7567,-2.5914,-2.2527,-1.6306,-0.9425,-0.217,0.552,0.947,1.2128,1.4736,1.5856,1.6258,1.5977,1.6796,1.7475,1.6923,1.6387,1.6321,1.7401,1.4257,1.1668,1.1897,1.0698,0.98,1.0002,1.0151,1.056,1.1431,1.22,1.3144,1.4396,1.5652,1.6872,1.8074,1.9838,2.0917,2.1188,2.0683,2.0118,1.9633,1.9258,1.8602,1.7696,1.7587,1.7434,1.728,1.7556,1.7634,2.0969,1.7135,1.2995,1.0285,0.8696,0.7278,0.5285,0.0,0.0,0.0,0.0,0.0,0.0,0.0,-0.2559,-0.3707,0.0,0.0,0.0,0.0,0.0,0.0,0.0,0.0,0.0,0.0,0.0,0.0,0.0,0.0,-3.0034,-3.1,-3.1517,-3.1483,-3.2957,-3.3592,-3.3206,-3.4046,-3.4409,-3.4302,-3.4567,-3.4711,-3.4811,-3.4982,-3.4982,-3.487,0.0,-3.5306,-3.4908,-3.6036,-3.6465,-3.6467,-3.7423,-3.7196,-3.6228,-3.5527,-3.4385,-3.3155,-3.3159,-3.2254,-3.1184,-3.1735,-3.0415,-2.8571,-2.8592,-2.7277,-2.515,-2.217,-1.6061,-0.8775,-0.1323,0.3343,0.6968,1.0256,1.1383,1.1733,1.1937,1.2159,1.2157,1.1833,1.0887,1.0408,1.1188,0.9059,0.7633,0.8816,0.8078,0.7376,0.7569,0.7495,0.7678,0.8515,0.9133,0.9994,1.1279,1.2742,1.483,1.7838,1.9089,1.9569,1.9273,1.8713,1.7921,1.7016,1.6451,1.5843,1.5186,1.5216,1.536,1.5563,1.6345,1.678,1.9045,1.4626,0.9683,0.4522,0.3338,0.2857,0.0855,0.0,0.0,0.0,0.0,0.0,0.0,-0.2804,0.0,-0.2657,0.0,0.0,0.0,0.0,0.0,0.0,0.0,0.0,0.0,0.0,0.0,0.0,0.0,0.0,-3.1283,-3.2135,-3.2538,-3.2373,-3.3674,-3.3886,-3.2821,-3.3814,-3.4199,-3.4023,-3.4269,-3.4471,-3.4623,-3.48,-3.4947,-3.5053,-3.5699,-3.5639,-3.5193,-3.6329,-3.6611,-3.6403,-3.6984,-3.6713,-3.582,-3.4175,-3.2929,-3.2091,-3.2335,-3.1985,-3.1393,-3.1125,-2.9947,-2.8487,-2.8122,-2.6707,-2.4944,-2.3587,-1.9216,-1.3539,-0.7666,-0.2835,0.1388,0.4803,0.5906,0.6375,0.7196,0.6816,0.6345,0.6352,0.5315,0.4463,0.4488,0.3665,0.3464,0.4912,0.481,0.4692,0.4963,0.4904,0.5111,0.5643,0.6082,0.7039,0.8695,1.0194,1.2598,1.6353,1.7444,1.7652,1.706,1.6563,1.5669,1.4406,1.3593,1.2972,1.2607,1.27,1.3089,1.3708,1.4735,1.5559,1.5365,1.022,0.4994,-0.1597,-0.1828,0.0,-0.4111,-0.5292,0.0,-0.7682,0.0,0.0,0.0,-0.9642,-0.6546,0.0,0.0,0.0,0.0,0.0,0.0,0.0,0.0,0.0,0.0,0.0,0.0,0.0,0.0,0.0,-3.0979,-3.1339,-3.2213,-3.3701,-3.3709,-3.3601,-3.3429,-3.3426,-3.3219,-3.2911,-3.3485,-3.3857,-3.4072,-3.4208,-3.4693,-3.5457,-3.5528,-3.5591,-3.5646,-3.563,-3.606,-3.677,-3.6875,-3.6103,-3.477,-3.3593,-3.2371,-3.1432,-3.1716,-3.1155,-3.0143,-2.9686,-2.7834,-2.5633,-2.4966,-2.3238,-2.1265,-2.0297,-1.9285,-1.771,-1.4231,-1.0625,-0.7036,-0.3861,-0.23,-0.1096,0.0392,0.0259,-0.0,0.0521,-0.013,-0.084,-0.1178,-0.1317,-0.1258,-0.0599,-0.0,0.0798,0.1801,0.2207,0.2544,0.3078,0.3199,0.4429,0.7471,0.8673,0.9787,1.0882,1.3551,1.4974,1.4734,1.4415,1.3685,1.253,1.1699,1.0946,1.0127,1.053,1.0982,1.1472,1.2328,1.3033,1.7214,1.1395,0.5407,-0.0422,-0.4618,0.0,0.0,-0.8104,-0.7944,-0.7847,-0.8903,0.0,0.0,0.0,0.0,0.0,0.0,0.0,0.0,0.0,0.0,0.0,0.0,0.0,0.0,0.0,0.0,0.0,0.0,0.0,-3.0642,-3.115,-3.1522,-3.1789,-3.2598,-3.2727,-3.2079,-3.2468,-3.2373,-3.1751,-3.2577,-3.3331,-3.4012,-3.4128,-3.4699,-3.557,-3.5615,-3.5648,-3.5688,-3.5688,-3.5596,-3.5434,-3.5449,-3.4805,-3.3792,-3.3238,-3.2038,-3.0666,-3.0704,-3.0261,-2.9528,-2.8408,-2.7072,-2.5579,-2.3997,-2.2508,-2.1194,-2.0464,-1.9641,-1.8349,-1.5843,-1.4768,-1.3468,-0.9916,-0.8038,-0.6502,-0.4877,-0.5031,-0.5071,-0.3841,-0.5209,-0.6262,-0.5404,-0.5287,-0.497,-0.3924,-0.2932,-0.1799,-0.0668,-0.0402,0.0134,0.1275,0.1936,0.292,0.4549,0.5452,0.6085,0.6519,0.9773,1.1616,1.1456,1.0492,0.95,0.8598,0.7978,0.7555,0.7325,0.8168,0.907,0.9964,1.0843,1.1796,1.2731,0.8039,0.3808,0.0,0.0,0.0,-1.1363,-1.0901,-1.0531,-1.0181,-1.0548,0.0,0.0,0.0,0.0,0.0,0.0,0.0,0.0,0.0,0.0,0.0,0.0,0.0,0.0,0.0,0.0,0.0,0.0,0.0,0.0,-3.0677,-3.0891,-3.0737,-3.1789,-3.2062,-3.1355,-3.1886,-3.1705,-3.0826,-3.1501,-3.2331,-3.3262,-3.3672,-3.4353,-3.522,-3.5291,-3.5318,-3.5346,-3.5126,-3.489,-3.4633,-3.4603,-3.4015,-3.3128,-3.2686,-3.1351,-2.9744,-2.9805,-2.9171,-2.8178,-2.718,-2.5998,-2.4626,-2.2981,-2.1718,-2.074,-2.0225,-1.9415,-1.8317,-1.6909,-1.6967,-1.6663,-1.3795,-1.2187,-1.0814,-0.9005,-0.9232,-0.9345,-0.7624,-0.8902,-0.9857,-0.8516,-0.8259,-0.7802,-0.6498,-0.5512,-0.4455,-0.3066,-0.2474,-0.1676,-0.047,0.0468,0.1198,0.1594,0.2252,0.2711,0.2838,0.5203,0.7199,0.844,0.7333,0.6177,0.5098,0.4985,0.4995,0.4995,0.5701,0.6672,0.7906,0.8862,0.9882,0.007,-0.1467,-0.0823,0.0,0.0,0.0,-1.3921,-1.4046,-1.4584,-1.5772,0.0,-1.7561,-1.6171,0.0,0.0,0.0,0.0,0.0,0.0,0.0,0.0,0.0,0.0,0.0,0.0,0.0,0.0,0.0,0.0,0.0,0.0,-2.9815,-3.0369,-3.1184,-3.152,-3.168,-3.1695,-3.1755,-3.1256,-3.0196,-3.0336,-3.0814,-3.1634,-3.2626,-3.3558,-3.4399,-3.4462,-3.4529,-3.4525,-3.3719,-3.391,-3.4686,-3.4607,-3.3882,-3.2758,-3.1815,-3.0196,-2.8554,-2.9166,-2.7779,-2.5831,-2.6079,-2.444,-2.2241,-2.1511,-2.0408,-1.9368,-1.9105,-1.8452,-1.7963,-1.8084,-1.7324,-1.6249,-1.5244,-1.48,-1.4037,-1.192,-1.2385,-1.2684,-1.0913,-1.1058,-1.1253,-1.0362,-1.0229,-0.9781,-0.8436,-0.804,-0.7261,-0.5519,-0.3924,-0.2732,-0.2213,-0.1338,-0.0935,-0.1136,-0.0668,-0.0267,-0.0067,-0.02,0.1533,0.5785,0.5229,0.4101,0.2526,0.3209,0.3418,0.3149,0.3201,0.3791,0.4985,0.6102,0.6954,-0.113,-0.429,0.0,-1.0512,0.0,0.0,0.0,-1.5246,0.0,0.0,0.0,-1.7633,-1.6355,0.0,0.0,0.0,0.0,0.0,0.0,0.0,0.0,0.0,0.0,0.0,0.0,0.0,0.0,0.0,0.0,0.0,0.0,-2.9918,-3.0141,-3.0486,-3.0644,-3.076,-3.0865,-3.0772,-3.0614,-3.0333,-3.0378,-3.0824,-3.1607,-3.2009,-3.2714,-3.3631,-3.3652,-3.3673,-3.3609,-3.2819,-3.3006,-3.3652,-3.2414,-3.1546,-3.0881,-2.9844,-2.8471,-2.7089,-2.7008,-2.6352,-2.5384,-2.4663,-2.3546,-2.2233,-2.1128,-2.013,-1.9417,-1.9498,-1.8842,-1.8262,-1.8698,-1.8458,-1.7863,-1.6813,-1.6768,-1.6532,-1.5061,-1.5283,-1.537,-1.406,-1.3877,-1.3733,-1.3202,-1.2371,-1.1589,-1.0933,-0.9876,-0.842,-0.6371,-0.5315,-0.4524,-0.3742,-0.3471,-0.3274,-0.3013,-0.288,-0.2743,-0.2674,-0.2943,-0.1467,0.2196,0.1397,0.0733,0.0401,0.0267,0.0134,0.0201,0.0936,0.2002,0.3263,0.4125,0.5308,-0.7682,-0.9456,0.0,-1.3007,-1.4993,-1.5979,-1.563,0.0,0.0,0.0,0.0,-1.7907,0.0,0.0,0.0,0.0,0.0,0.0,0.0,0.0,0.0,0.0,0.0,0.0,0.0,0.0,0.0,0.0,0.0,0.0,0.0,-2.9853,-2.9953,-3.0011,-3.0222,-3.0375,-3.046,-3.0439,-3.0417,-3.0398,-3.04,-3.0642,-3.1146,-3.1651,-3.2202,-3.2785,-3.2806,-3.2826,-3.279,-3.2305,-3.2419,-3.2746,-3.1399,-3.0679,-3.0234,-2.8872,-2.7531,-2.6428,-2.6404,-2.5697,-2.4716,-2.4202,-2.3316,-2.2221,-2.1309,-2.0459,-1.9809,-1.9908,-1.9281,-1.8684,-1.9124,-1.9144,-1.8827,-1.8093,-1.8213,-1.8255,-1.7467,-1.7423,-1.7258,-1.6381,-1.6074,-1.5763,-1.5341,-1.4526,-1.3698,-1.2918,-1.1381,-0.9762,-0.8227,-0.7395,-0.6685,-0.5905,-0.5654,-0.5401,-0.5011,-0.4882,-0.4815,-0.4686,-0.4948,-0.4199,-0.2059,-0.227,-0.241,-0.2275,-0.2342,-0.2277,-0.2211,-0.1206,-0.0134,0.1001,0.2068,0.3263,-1.7187,0.0,0.0,-1.8039,-1.8121,0.0,-1.7799,-1.746,-1.7131,-1.7528,0.0,0.0,0.0,0.0,0.0,0.0,0.0,0.0,0.0,0.0,0.0,0.0,0.0,0.0,0.0,0.0,0.0,0.0,0.0,0.0,0.0,-2.9677,-2.9801,-2.9751,-3.0177,-3.0411,-3.0414,-3.055,-3.053,-3.0419,-3.0419,-3.043,-3.0442,-3.1432,-3.1871,-3.1895,-3.196,-3.1973,-3.1989,-3.1983,-3.1981,-3.1892,-3.11,-3.0653,-3.0246,-2.844,-2.7106,-2.6246,-2.6667,-2.5559,-2.4013,-2.4431,-2.3567,-2.2282,-2.1827,-2.1153,-2.0472,-2.0321,-1.9708,-1.9198,-1.942,-1.9473,-1.946,-1.9251,-1.9356,-1.9448,-1.9125,-1.8996,-1.8708,-1.8128,-1.7836,-1.7521,-1.707,-1.6634,-1.5887,-1.4514,-1.2692,-1.1279,-1.0767,-0.9838,-0.9023,-0.8377,-0.7747,-0.7242,-0.6915,-0.6658,-0.6465,-0.6272,-0.6465,-0.6461,-0.6318,-0.555,-0.51,-0.5096,-0.4483,-0.4151,-0.4092,-0.3153,-0.2347,-0.1608,-0.0134,0.1005,-1.9883,-2.0091,0.0,0.0,-1.7975,-1.7353,-1.7618,-1.7754,-1.7882,-1.8291,-1.8176,0.0,0.0,0.0,0.0,0.0,0.0,0.0,0.0,0.0,0.0,0.0,0.0,0.0,0.0,0.0,0.0,0.0,0.0,0.0,-2.8804,-2.9631,-3.0075,-3.0023,-3.0314,-3.0501,-3.0559,-3.0634,-3.0629,0.0,-3.0557,-3.0567,-3.0558,-3.0797,-3.0964,-3.1062,-3.1015,-3.1031,-3.1072,-3.1083,-3.1075,-3.0945,-2.9564,-2.8924,-2.8529,-2.6842,-2.5869,-2.5431,-2.5489,-2.4954,-2.4297,-2.433,-2.3743,-2.295,-2.2558,-2.2016,-2.141,-2.0944,-2.0459,-2.0067,-1.9926,-2.0131,-2.0359,-2.0547,-2.0446,-2.0359,-2.0383,-2.037,-2.037,-2.0281,-1.9685,-1.9169,-1.8996,-1.8035,-1.6824,-1.5352,-1.4236,-1.321,-1.2212,-1.1549,-1.0746,-0.9533,-0.9175,-0.8742,-0.8161,-0.7832,-0.7637,-0.7572,-0.7647,-0.7782,-0.7962,-0.685,-0.6129,-0.587,-0.587,-0.5804,-0.5613,-0.4613,-0.401,-0.3606,-0.2075,-0.1004,-2.2307,0.0,0.0,-2.0057,0.0,-1.8519,-1.8867,-1.8856,-1.8873,-1.9008,0.0,0.0,0.0,0.0,0.0,0.0,0.0,0.0,0.0,0.0,0.0,0.0,0.0,0.0,0.0,0.0,0.0,0.0,0.0,-2.8346,-2.8673,-2.9295,-2.9794,-3.0132,-2.9965,-3.0094,-3.0552,-3.0207,-3.0222,-3.0557,-3.0549,-3.0576,-3.0595,-3.067,-3.0957,-3.1403,-3.0935,-3.0999,-3.139,-3.0945,-3.0753,-3.0633,-2.9489,-2.8727,-2.815,-2.6956,-2.6094,-2.553,-2.5362,-2.5052,-2.4639,-2.4482,-2.3952,-2.3319,-2.2979,-2.2434,-2.1841,-2.1492,-2.1006,-2.056,-2.0586,-2.0709,-2.0944,-2.1299,-2.1251,-2.1153,-2.1492,-2.1541,-2.1527,-2.1704,-2.1197,-2.0706,-2.032,-1.885,-1.7401,-1.6394,-1.5593,-1.4836,-1.4159,-1.3442,-1.2663,-1.1611,-1.1003,-1.0388,-0.9506,-0.9308,-0.9052,-0.8737,-0.9005,-0.9268,-0.9454,-0.8924,-0.814,-0.7111,-0.7055,-0.6732,-0.6268,-0.554,-0.5008,-0.4544,-0.3411,-0.2476,-2.3982,0.0,-2.2877,-2.1475,-2.043,0.0,-2.0512,-2.026,-1.9813,-1.9435,0.0,0.0,0.0,0.0,0.0,0.0,0.0,0.0,0.0,0.0,0.0,0.0,0.0,0.0,0.0,0.0,0.0,0.0,0.0,-2.7778,-2.8572,-2.891,-2.9352,-3.0016,-2.9506,-2.958,-3.0327,-2.966,-2.9732,-3.053,-3.052,-3.0558,-3.0613,-3.0876,-3.1309,-3.1832,-3.1107,-3.1206,-3.1802,-3.1037,-3.0704,-3.0632,-2.989,-2.9097,-2.8272,-2.7629,-2.6764,-2.5901,-2.5754,-2.5492,-2.5123,-2.4806,-2.4287,-2.3767,-2.3465,-2.2889,-2.2296,-2.2109,-2.1623,-2.1224,-2.1396,-2.1431,-2.1561,-2.1921,-2.1935,-2.1983,-2.2356,-2.2463,-2.2449,-2.2512,-2.2156,-2.1636,-2.0944,-1.9282,-1.7918,-1.7479,-1.6754,-1.6244,-1.6016,-1.5187,-1.4364,-1.3734,-1.2818,-1.1888,-1.0954,-1.0829,-1.0514,-0.9952,-1.0408,-1.0667,-1.0737,-1.0863,-1.0218,-0.8748,-0.8301,-0.7652,-0.6793,-0.6396,-0.587,-0.5213,-0.4547,-0.3744,0.0,0.0,-2.2432,0.0,-2.152,-2.1166,0.0,0.0,-2.0382,0.0,0.0,0.0,0.0,0.0,0.0,0.0,0.0,0.0,0.0,0.0,0.0,0.0,0.0,0.0,0.0,0.0,0.0,0.0,-2.6233,-2.7089,-2.7888,-2.8791,-2.9274,-2.9332,-2.9364,-2.9467,-2.964,-2.9473,-2.9814,-3.0671,-3.0602,-3.0593,-3.063,-3.1411,-3.146,-3.0968,-3.0859,-3.0877,-3.0968,-3.0786,-3.07,-3.0633,-2.9883,-2.9006,-2.8091,-2.7573,-2.683,-2.6085,-2.6173,-2.6046,-2.5828,-2.5626,-2.5114,-2.4599,-2.4461,-2.4032,-2.3565,-2.3275,-2.295,-2.2665,-2.2406,-2.2512,-2.2709,-2.2904,-2.2994,-2.2994,-2.2709,-2.2994,-2.3187,-2.2754,-2.1941,-2.1042,-2.0295,-1.9344,-1.8572,-1.8302,-1.7567,-1.7011,-1.6832,-1.6016,-1.5129,-1.4355,-1.3666,-1.307,-1.2512,-1.2074,-1.1764,-1.1695,-1.1454,-1.1469,-1.1615,-1.1469,-1.1212,-1.0919,-0.9964,-0.9204,-0.8506,-0.7777,-0.7251,-0.6872,-0.5877,-0.515,-2.4473,-2.3831,-2.3153,0.0,-2.2779,-2.2397,-2.2954,0.0,-2.1837,0.0,0.0,0.0,0.0,0.0,0.0,0.0,0.0,0.0,0.0,0.0,0.0,0.0,0.0,0.0,0.0,0.0,0.0,0.0,-2.558,-2.6256,-2.7142,-2.7638,-2.8334,-2.9276,-2.8907,-2.9149,-3.0161,-2.9667,-2.9819,-3.0634,-3.0599,-3.0599,-3.0607,-3.1047,-3.1067,-3.0836,-3.1283,-3.1191,-3.0733,-3.0703,-3.0697,-3.0658,-3.0249,-2.9536,-2.868,-2.8453,-2.7717,-2.6815,-2.6756,-2.6488,-2.6106,-2.5868,-2.5481,-2.5075,-2.4823,-2.4567,-2.4266,-2.4017,-2.3791,-2.352,-2.3318,-2.3348,-2.3377,-2.3377,-2.3436,-2.3436,-2.3334,-2.3392,-2.3319,-2.2799,-2.2189,-2.1431,-2.0497,-1.9914,-1.946,-1.8999,-1.8506,-1.8116,-1.7897,-1.709,-1.6291,-1.5651,-1.5021,-1.4551,-1.4236,-1.376,-1.3511,-1.3494,-1.321,-1.3053,-1.3009,-1.2818,-1.2573,-1.2282,-1.0899,-0.9767,-0.8941,-0.8619,-0.8102,-0.7451,-0.7186,-0.6728,0.0,0.0,-2.4149,-2.4331,-2.3855,-2.3524,0.0,0.0,-2.3071,0.0,0.0,0.0,0.0,0.0,0.0,0.0,0.0,0.0,0.0,0.0,0.0,0.0,0.0,0.0,0.0,0.0,0.0,0.0,-2.5214,-2.5716,-2.6638,-2.6757,-2.7394,-2.8706,-2.8106,-2.8502,-3.0024,-2.9836,-3.0032,-3.0604,-3.0622,-3.0637,-3.0642,-3.0911,-3.0948,-3.0829,-3.1415,-3.1302,-3.072,-3.0704,-3.0696,-3.0658,-3.0535,-2.9922,-2.912,-2.9038,-2.8355,-2.7438,-2.7261,-2.6886,-2.6471,-2.6177,-2.5835,-2.5556,-2.5329,-2.516,-2.5005,-2.4871,-2.4681,-2.4465,-2.4358,-2.4266,-2.4173,-2.4006,-2.3979,-2.3894,-2.3782,-2.3581,-2.3275,-2.2799,-2.2388,-2.1793,-2.0858,-2.0472,-2.008,-1.9617,-1.9303,-1.904,-1.8881,-1.8251,-1.7656,-1.709,-1.6623,-1.6222,-1.5803,-1.5458,-1.5226,-1.508,-1.4758,-1.461,-1.4551,-1.4213,-1.3914,-1.3485,-1.212,-1.0752,-0.9506,-0.9326,-0.8812,-0.7962,-0.8102,-0.7777,0.0,-2.5243,0.0,-2.4683,-2.4452,0.0,0.0,0.0,0.0,0.0,0.0,0.0,0.0,0.0,0.0,0.0,0.0,0.0,0.0,0.0,0.0,0.0,0.0,0.0,0.0,0.0,0.0,0.0,-2.5262,-2.5717,-2.6655,-2.6769,-2.6849,-2.6931,-2.6896,-2.7317,-2.8223,-2.9823,-3.0625,-3.0602,-3.0665,-3.0697,-3.0716,-3.156,-3.1514,-3.0808,-3.0773,-3.0774,-3.0786,-3.0722,-3.0651,-3.0587,-3.0452,-2.9785,-2.8905,-2.8846,-2.8354,-2.7646,-2.7447,-2.7272,-2.71,-2.6905,-2.6488,-2.6104,-2.6262,-2.6137,-2.5937,-2.5941,-2.5924,-2.5815,-2.5503,-2.5411,-2.5351,-2.5075,-2.4918,-2.4623,-2.3809,-2.3334,-2.3038,-2.2754,-2.2203,-2.165,-2.1091,-2.066,-2.0308,-1.9991,-1.9656,-1.9408,-1.9512,-1.9612,-1.9316,-1.8471,-1.8483,-1.8126,-1.7191,-1.6925,-1.6655,-1.644,-1.5975,-1.5813,-1.6005,-1.5449,-1.505,-1.4787,-1.4136,-1.287,-1.0919,-1.0275,-0.9506,-0.8672,-0.8355,-0.7977,0.0,0.0,0.0,-2.5288,-2.5129,-2.5062,0.0,-2.4896,0.0,0.0,0.0,0.0,0.0,0.0,0.0,0.0,0.0,0.0,0.0,0.0,0.0,0.0,0.0,0.0,0.0,0.0,0.0,0.0,0.0,-2.5532,-2.5906,-2.595,-2.623,-2.6845,-2.6864,-2.753,-2.8916,-2.9609,-3.0173,-3.0664,-3.0722,-3.0734,-3.0704,-3.1061,-3.1052,-3.075,-3.0769,-3.0774,-3.0782,-3.0737,-3.065,-3.0568,-3.0314,-2.9918,-2.9437,-2.9204,-2.8874,-2.8485,-2.8228,-2.7897,-2.7607,-2.7352,-2.7036,-2.6741,-2.6791,-2.6708,-2.6607,-2.6487,-2.6418,-2.6314,-2.5921,-2.5721,-2.5519,-2.5137,-2.4997,-2.4815,-2.4241,-2.3794,-2.3392,-2.2934,-2.254,-2.2123,-2.1589,-2.1396,-2.1215,-2.0957,-2.066,-2.0396,-2.0258,-2.025,-2.011,-1.95,-1.9599,-1.948,-1.9056,-1.8679,-1.8359,-1.8221,-1.7884,-1.7556,-1.7291,-1.6845,-1.6451,-1.6053,-1.5371,-1.4127,-1.2274,-1.1406,-1.071,-1.0192,-0.9773,-0.9338,-2.5858,0.0,0.0,0.0,0.0,-2.5453,-2.5438,0.0,0.0,0.0,0.0,0.0,0.0,0.0,0.0,0.0,0.0,0.0,0.0,0.0,0.0,0.0,0.0,0.0,0.0,0.0,0.0,0.0,0.0,0.0,-2.551,-2.5518,-2.5826,-2.6485,-2.6757,-2.7587,-2.8987,-2.931,-2.988,-3.073,-3.0769,-3.0779,-3.073,-3.0774,-3.0781,-3.0747,-3.0777,-3.0804,-3.0788,-3.0708,-3.0619,-3.0501,-3.017,-2.992,-2.9676,-2.9358,-2.9123,-2.8957,-2.8644,-2.8264,-2.7933,-2.7748,-2.7478,-2.723,-2.7198,-2.7215,-2.7152,-2.7006,-2.694,-2.6858,-2.6453,-2.6156,-2.5832,-2.5481,-2.5323,-2.513,-2.4823,-2.4256,-2.3696,-2.3216,-2.2859,-2.2586,-2.217,-2.203,-2.1902,-2.1664,-2.1348,-2.1153,-2.0957,-2.1093,-2.1017,-2.0562,-2.0733,-2.0731,-2.0334,-2.0016,-1.9761,-1.9592,-1.9202,-1.8821,-1.8513,-1.7961,-1.7578,-1.7246,-1.6574,-1.5593,-1.4246,-1.2862,-1.1896,-1.1392,-1.0905,-1.0548,0.0,0.0,0.0,0.0,0.0,0.0,-2.5527,0.0,-2.4816,0.0,0.0,0.0,0.0,0.0,0.0,0.0,0.0,0.0,0.0,0.0,0.0,0.0,0.0,0.0,0.0,0.0,0.0,0.0,-2.6157,-2.6339,-2.557,-2.5579,-2.5639,-2.5738,-2.6471,-2.7287,-2.8196,-2.8966,-2.9852,-3.0808,-3.0793,-3.0798,-3.0801,-3.0808,-3.0792,-3.0792,-3.0801,-3.0801,-3.08,-3.0657,-3.0516,-3.0355,-3.0032,-2.9765,-2.9533,-2.9193,-2.9034,-2.8957,-2.8687,-2.838,-2.8099,-2.8099,-2.7824,-2.7526,-2.7587,-2.7617,-2.7587,-2.7434,-2.7496,-2.7526,-2.7198,-2.6758,-2.6349,-2.6239,-2.5954,-2.5663,-2.5454,-2.4623,-2.3852,-2.3581,-2.3216,-2.2889,-2.2754,-2.2586,-2.237,-2.2091,-2.1793,-2.1664,-2.165,-2.2038,-2.2174,-2.1671,-2.1952,-2.1847,-2.1095,-2.0894,-2.0709,-2.0422,-1.994,-1.9631,-1.9604,-1.8815,-1.8333,-1.8333,-1.7776,-1.7268,-1.6821,-1.4641,-1.3166,-1.2328,-1.1826,-1.1469,-2.5871,0.0,0.0,0.0,0.0,0.0,-2.557,-2.5513,-2.5108,0.0,0.0,0.0,0.0,0.0,0.0,0.0,0.0,0.0,0.0,0.0,0.0,0.0,0.0,0.0,0.0,0.0,0.0,0.0,-2.6045,-2.6016,-2.6431,-2.5901,-2.5896,-2.6558,-2.6164,-2.669,-2.8184,-2.8412,-2.9299,-3.0799,-3.079,-3.0791,-3.0801,-3.0799,-3.0801,-3.0801,-3.0792,-3.0796,-3.0781,-3.0607,-3.0427,-3.0211,-2.9734,-2.9418,-2.9212,-2.885,-2.8694,-2.8619,-2.851,-2.8345,-2.8182,-2.8237,-2.8007,-2.7748,-2.7911,-2.7911,-2.7853,-2.7689,-2.7672,-2.7642,-2.7276,-2.6858,-2.6572,-2.664,-2.6383,-2.6066,-2.5864,-2.5307,-2.4704,-2.4177,-2.3909,-2.3724,-2.3508,-2.3436,-2.3334,-2.3201,-2.2979,-2.2799,-2.2709,-2.2942,-2.2907,-2.2459,-2.2718,-2.2603,-2.193,-2.1746,-2.1458,-2.1019,-2.0772,-2.0472,-2.0169,-1.985,-1.9643,-1.9527,-1.891,-1.8321,-1.7852,-1.5726,-1.4346,-1.3811,-1.2984,-1.2647,0.0,0.0,0.0,0.0,0.0,0.0,-2.5603,-2.5561,-2.5251,0.0,0.0,0.0,0.0,0.0,0.0,0.0,0.0,0.0,0.0,0.0,0.0,0.0,0.0,0.0,0.0,-2.7116,-2.7336,-2.7381,-2.6915,-2.6707,-2.687,-2.6762,-2.6934,-2.7461,-2.6981,-2.739,-2.8738,-2.8729,-2.942,-3.0806,-3.0807,-3.0801,-3.0792,-3.08,-3.0797,-3.0798,-3.0794,-3.0782,-3.0745,-3.0516,-3.0316,-3.0098,-2.9621,-2.9275,-2.9034,-2.8767,-2.8612,-2.8492,-2.8458,-2.8353,-2.8291,-2.8327,-2.8174,-2.8035,-2.8136,-2.8182,-2.8109,-2.7922,-2.7818,-2.773,-2.743,-2.7166,-2.6973,-2.6908,-2.6691,-2.6418,-2.6189,-2.5811,-2.5362,-2.4735,-2.4426,-2.4261,-2.4245,-2.4105,-2.4036,-2.3909,-2.3696,-2.3508,-2.3465,-2.339,-2.3264,-2.2933,-2.2948,-2.28,-2.2259,-2.2091,-2.1841,-2.1471,-2.1277,-2.1033,-2.0673,-2.0472,-2.0321,-2.0156,-1.9708,-1.9279,-1.8768,-1.6869,-1.5573,-1.4827,-1.4246,-1.396,0.0,0.0,0.0,0.0,0.0,0.0,-2.5605,-2.5607,-2.5336,-2.4444,-2.4814,0.0,0.0,0.0,0.0,0.0,0.0,0.0,0.0,0.0,0.0,0.0,0.0,0.0,-2.6821,-2.7697,-2.8247,-2.8345,-2.8329,-2.8022,-2.7329,-2.7878,-2.8271,-2.843,-2.8342,-2.8686,-2.9499,-2.9499,-2.9939,-3.0796,-3.0804,-3.0793,-3.08,-3.0795,-3.081,-3.0792,-3.0786,-3.0745,-3.0664,-3.0424,-3.022,-3.0065,-2.9662,-2.931,-2.898,-2.8858,-2.8662,-2.8492,-2.8492,-2.8458,-2.8406,-2.845,-2.838,-2.8327,-2.8327,-2.838,-2.8398,-2.8237,-2.8007,-2.7818,-2.7707,-2.7617,-2.7434,-2.7137,-2.694,-2.6758,-2.6435,-2.6189,-2.5901,-2.5323,-2.4871,-2.4645,-2.4815,-2.4695,-2.4533,-2.4426,-2.423,-2.4048,-2.4006,-2.3709,-2.3421,-2.3172,-2.2934,-2.2618,-2.2278,-2.2137,-2.1996,-2.1841,-2.1568,-2.1326,-2.1082,-2.0822,-2.066,-2.0523,-2.0372,-2.0067,-1.9475,-1.807,-1.6789,-1.5708,-1.5651,-1.5371,0.0,0.0,0.0,0.0,0.0,0.0,-2.5605,-2.5607,-2.5531,0.0,-2.5345,0.0,0.0,0.0,0.0,0.0,0.0,0.0,0.0,0.0,0.0,0.0,0.0,0.0,-2.688,-2.7686,-2.8496,-2.9188,-2.9247,-2.9191,-2.9023,-2.8559,-2.8576,-2.9244,-2.8633,-2.8689,-2.9491,-2.9497,-2.9938,-3.0808,-3.08,-3.08,-3.0798,-3.0794,-3.0794,-3.0794,-3.0739,-3.0685,-3.0607,-3.0442,-3.0266,-3.0061,-2.9662,-2.933,-2.9044,-2.8791,-2.8619,-2.8492,-2.8562,-2.851,-2.845,-2.8587,-2.8543,-2.844,-2.844,-2.8562,-2.8619,-2.8594,-2.8388,-2.8219,-2.8164,-2.7904,-2.763,-2.7434,-2.723,-2.6956,-2.6691,-2.6453,-2.6279,-2.6101,-2.5589,-2.5185,-2.5052,-2.5208,-2.5323,-2.5208,-2.5153,-2.4981,-2.4679,-2.4328,-2.3952,-2.3451,-2.3275,-2.3053,-2.2689,-2.2569,-2.237,-2.2137,-2.1746,-2.1568,-2.1471,-2.1313,-2.1264,-2.1361,-2.1118,-2.066,-2.0029,-1.8915,-1.8167,-1.7731,-1.7346,-1.7058,0.0,0.0,0.0,-2.5511,0.0,0.0,0.0,-2.565,-2.5625,-2.5531,-2.5505,0.0,0.0,0.0,0.0,0.0,0.0,0.0,0.0,0.0,0.0,0.0,0.0,0.0,-2.6253,-2.6708,-2.7492,-2.8802,-2.9706,-3.0019,-2.9565,-2.9584,-2.9777,-3.0181,-2.9816,-2.9778,-3.0147,-3.0153,-3.037,-3.0801,-3.0796,-3.0808,-3.0801,-3.079,-3.0793,-3.0808,-3.073,-3.0649,-3.0585,-3.0449,-3.0267,-3.0022,-2.9681,-2.9353,-2.9044,-2.8863,-2.8718,-2.8594,-2.8612,-2.8587,-2.8612,-2.8687,-2.8687,-2.8662,-2.8694,-2.8743,-2.8791,-2.8791,-2.8619,-2.8432,-2.8406,-2.8174,-2.7893,-2.7689,-2.7509,-2.7293,-2.7021,-2.6758,-2.6556,-2.6383,-2.6046,-2.5717,-2.553,-2.5546,-2.5546,-2.5394,-2.5285,-2.513,-2.4831,-2.4508,-2.4135,-2.3711,-2.3451,-2.3142,-2.2797,-2.2661,-2.2509,-2.2231,-2.237,-2.2303,-2.1902,-2.2131,-2.2193,-2.2156,-2.2016,-2.1766,-2.1342,-2.0743,-1.9889,-1.8809,-1.8531,-1.8317,0.0,0.0,0.0,0.0,0.0,-2.5673,0.0,0.0,0.0,0.0,0.0,0.0,0.0,0.0,0.0,0.0,0.0,0.0,0.0,0.0,0.0,0.0,0.0,0.0,-2.5623,-2.5996,-2.6777,-2.8182,-2.9736,-3.0323,-2.9648,-3.0273,-3.0721,-3.0897,-3.0741,-3.0703,-3.0801,-3.0798,-3.0793,-3.0808,-3.0794,-3.0801,-3.0794,-3.0784,-3.0789,-3.0784,-3.0704,-3.0645,-3.0568,-3.0425,-3.0202,-2.9946,-2.9715,-2.9395,-2.9048,-2.9003,-2.8887,-2.8761,-2.8712,-2.8737,-2.8785,-2.8743,-2.8785,-2.8834,-2.8905,-2.8929,-2.8929,-2.8929,-2.881,-2.8662,-2.8543,-2.8406,-2.8191,-2.7922,-2.7748,-2.7539,-2.7324,-2.7085,-2.6841,-2.6607,-2.6453,-2.626,-2.5954,-2.5787,-2.5637,-2.547,-2.5339,-2.5185,-2.4926,-2.4589,-2.4261,-2.3882,-2.3581,-2.326,-2.2889,-2.2768,-2.2601,-2.2356,-2.2871,-2.2928,-2.2338,-2.2838,-2.3055,-2.2889,-2.2875,-2.2785,-2.2634,-2.2434,-2.1452,-1.9697,-1.9697,-1.9438,0.0,0.0,0.0,0.0,-2.5554,0.0,0.0,0.0,-2.5652,-2.5525,0.0,0.0,0.0,0.0,0.0,0.0,0.0,0.0,0.0,0.0,0.0,0.0,0.0,0.0,0.0,-2.7109,-2.8055,-2.8196,-2.9103,-2.9636,-2.9604,-2.9686,-3.0097,-3.0879,-3.0156,-3.0097,-3.0797,-3.0793,-3.0806,-3.0794,-3.0806,-3.0793,-3.0802,-3.0728,-3.0704,-3.0717,-3.0645,-3.0568,-3.0509,-3.0292,-3.0052,-2.9817,-2.9787,-2.957,-2.9272,-2.9251,-2.9119,-2.8952,-2.8975,-2.8905,-2.881,-2.8858,-2.8881,-2.8905,-2.897,-2.8994,-2.8994,-2.8994,-2.897,-2.8905,-2.8737,-2.8569,-2.8406,-2.8136,-2.7864,-2.7672,-2.7569,-2.7478,-2.7386,-2.7241,-2.7002,-2.6607,-2.6026,-2.6023,-2.6079,-2.5954,-2.5901,-2.5717,-2.523,-2.4958,-2.4599,-2.4024,-2.3839,-2.3668,-2.3422,-2.3275,-2.3098,-2.2844,-2.2917,-2.2872,-2.2663,-2.3052,-2.3363,-2.3565,-2.3537,-2.3363,-2.3128,-2.3024,-2.2374,-2.1153,-2.1028,-2.0782,0.0,0.0,0.0,0.0,0.0,0.0,-2.5875,0.0,-2.6208,0.0,0.0,0.0,0.0,0.0,0.0,0.0,-2.5337,0.0,0.0,0.0,0.0,0.0,0.0,0.0,0.0,0.0,0.0,0.0,-2.8739,-2.9508,-2.9533,-2.9583,-2.9996,-3.0875,-3.0057,-2.9996,-3.0788,-3.0804,-3.0796,-3.0804,-3.0798,-3.0774,-3.0734,-3.0665,-3.063,-3.0645,-3.053,-3.0419,-3.0309,-3.0155,-2.9977,-2.9801,-2.9806,-2.9589,-2.9293,-2.9293,-2.9249,-2.9163,-2.9225,-2.916,-2.9085,-2.9021,-2.9044,-2.9067,-2.9044,-2.9085,-2.913,-2.913,-2.9021,-2.8929,-2.8858,-2.8644,-2.844,-2.83,-2.8164,-2.8035,-2.7911,-2.7853,-2.7795,-2.7565,-2.7272,-2.6971,-2.659,-2.6347,-2.6099,-2.5848,-2.5791,-2.5589,-2.5114,-2.4815,-2.4549,-2.4317,-2.4009,-2.3797,-2.3812,-2.3581,-2.348,-2.3436,-2.3595,-2.4026,-2.4762,-2.4417,-2.4256,-2.4338,-2.4313,-2.4214,-2.4017,-2.3767,-2.3246,-2.2558,-2.2002,-2.1636,-2.8237,0.0,0.0,0.0,0.0,0.0,0.0,0.0,0.0,0.0,0.0,0.0,0.0,0.0,0.0,0.0,0.0,-2.5459,0.0,0.0,0.0,0.0,0.0,0.0,0.0,0.0,0.0,0.0,0.0,-2.8548,-2.8775,-2.8852,-2.9404,-3.0515,-2.97,-2.9737,-3.0782,-3.0796,-3.081,-3.0798,-3.0789,-3.0748,-3.0704,-3.0622,-3.0602,-3.0568,-3.0419,-3.0309,-3.019,-3.0037,-2.9918,-2.982,-2.9771,-2.9608,-2.9415,-2.9415,-2.9395,-2.9373,-2.9412,-2.9349,-2.9262,-2.913,-2.9112,-2.9178,-2.9089,-2.9112,-2.9156,-2.9134,-2.9044,-2.8952,-2.8905,-2.8743,-2.8587,-2.851,-2.8432,-2.8353,-2.8246,-2.8209,-2.8136,-2.7961,-2.7624,-2.7338,-2.7213,-2.6674,-2.6206,-2.5921,-2.5828,-2.5626,-2.523,-2.495,-2.4766,-2.4686,-2.4302,-2.4094,-2.4109,-2.3867,-2.3809,-2.3952,-2.443,-2.5087,-2.6006,-2.5548,-2.5187,-2.5052,-2.5013,-2.4895,-2.4759,-2.4369,-2.4036,-2.3681,-2.2889,-2.2356,0.0,0.0,0.0,-2.8162,0.0,0.0,0.0,0.0,-2.6547,0.0,0.0,0.0,0.0,0.0,0.0,0.0,0.0,0.0,0.0,0.0,0.0,0.0,0.0,0.0,0.0,0.0,0.0,0.0,0.0,0.0,-2.693,-2.7046,-2.7861,-2.9591,-2.8797,-2.9129,-3.0782,-3.0801,-3.0794,-3.0798,-3.073,-3.0704,-3.069,-3.0629,-3.0559,-3.0499,-3.0352,-3.026,-3.0182,-2.9984,-2.9891,-2.9895,-2.9681,-2.9644,-2.9699,-2.9699,-2.9645,-2.9569,-2.9433,-2.9349,-2.928,-2.9062,-2.9089,-2.9178,-2.904,-2.9062,-2.9108,-2.9017,-2.9062,-2.9067,-2.8929,-2.8905,-2.8839,-2.8718,-2.8637,-2.8587,-2.8587,-2.8484,-2.8406,-2.8466,-2.8101,-2.776,-2.7701,-2.7038,-2.6434,-2.6295,-2.6225,-2.6099,-2.5881,-2.5696,-2.5454,-2.5107,-2.4895,-2.471,-2.4498,-2.4219,-2.4162,-2.4354,-2.5181,-2.5604,-2.5436,-2.5974,-2.6053,-2.568,-2.5492,-2.5301,-2.5091,-2.4895,-2.467,-2.4457,-2.3625,-2.3008,0.0,0.0,-2.9779,-2.9191,0.0,0.0,0.0,0.0,0.0,0.0,0.0,0.0,0.0,0.0,0.0,0.0,0.0,0.0,0.0,0.0,0.0,0.0,0.0,0.0,0.0,0.0,0.0,0.0,0.0,0.0,0.0,-2.693,-2.7482,-2.8708,-2.8459,-2.8854,-2.9986,-3.0526,-3.0807,-3.0806,-3.0725,-3.0672,-3.0626,-3.0568,-3.0509,-3.0414,-3.0253,-3.0118,-3.0071,-2.9888,-2.9857,-2.9891,-2.9823,-2.9841,-2.9891,-2.9698,-2.9645,-2.9645,-2.9512,-2.9491,-2.947,-2.9262,-2.9218,-2.9218,-2.9062,-2.8975,-2.8952,-2.8881,-2.8881,-2.8905,-2.8905,-2.8881,-2.8834,-2.8815,-2.8834,-2.8785,-2.8737,-2.8737,-2.8712,-2.8644,-2.8299,-2.7954,-2.784,-2.743,-2.699,-2.6742,-2.6607,-2.6435,-2.6189,-2.5921,-2.5647,-2.5438,-2.5169,-2.4974,-2.491,-2.4934,-2.5219,-2.5759,-2.5844,-2.6097,-2.6569,-2.6414,-2.6221,-2.6046,-2.5864,-2.5717,-2.5513,-2.5262,-2.4989,-2.4791,-2.4833,-2.4334,-3.0774,-3.0756,0.0,-3.0075,-3.0341,0.0,-2.7779,0.0,0.0,0.0,0.0,0.0,0.0,0.0,0.0,0.0,0.0,0.0,0.0,-2.5375,0.0,0.0,0.0,0.0,0.0,0.0,0.0,0.0,0.0,0.0,0.0,0.0,-2.6856,-2.778,-2.8098,-2.8693,-2.9599,-3.0392,-3.0807,-3.0806,-3.072,-3.0651,-3.0557,-3.052,-3.0436,-3.033,-3.0213,-3.0109,-3.0026,-2.9937,-2.9924,-2.9956,-2.9943,-2.9959,-2.9991,-2.977,-2.9699,-2.9681,-2.9551,-2.9531,-2.9549,-2.9365,-2.9302,-2.928,-2.9085,-2.8998,-2.8952,-2.8881,-2.8858,-2.8858,-2.8952,-2.8905,-2.8881,-2.8998,-2.8998,-2.8975,-2.8994,-2.8975,-2.8952,-2.8858,-2.8576,-2.8255,-2.811,-2.7829,-2.7478,-2.7023,-2.7146,-2.708,-2.6589,-2.6512,-2.6274,-2.577,-2.553,-2.5339,-2.5224,-2.5454,-2.5816,-2.627,-2.6521,-2.6723,-2.6975,-2.6883,-2.6649,-2.6329,-2.6154,-2.601,-2.5811,-2.5881,-2.5635,-2.5091,-2.562,-2.5326]},{"header":{"parameterUnit":"m.s-1","parameterCategory":1,"la1":30.6,"la2":29.2853,"lo1":-89.7004,"lo2":-87.6739,"dy":0.0162,"dx":0.0183,"nx":112,"ny":82,"refTime":"2024-04-20T12:00:00:Z","depth":0,"parameterNumber":3,"parameterNumberName":"V-component_of_WINDS"},"data":[0.0,0.0,0.0,0.0,0.0,0.0,0.0,0.0,0.0,0.0,0.0,0.0,0.0,0.0,0.0,0.0,0.0,0.0,0.0,0.0,0.0,0.0,0.0,0.0,0.0,0.0,0.0,0.0,0.0,0.0,0.0,0.0,0.0,0.0,0.0,0.0,0.0,0.0,0.0,0.0,0.0,0.0,0.0,0.0,0.0,0.0,0.0,0.0,0.0,0.0,0.0,0.0,0.0,0.0,0.0,0.0,0.0,0.0,0.0,0.0,0.0,0.0,0.0,0.0,0.0,0.0,0.0,0.0,0.0,0.0,0.0,0.0,0.0,0.0,0.0,0.0,0.0,0.0,0.0,0.0,0.0,0.0,0.0,0.0,0.0,0.0,0.0,0.0,0.0,0.0,-0.8989,-0.9661,-1.0857,-1.1502,-1.1247,-1.101,-1.0502,-0.9709,0.0,0.0,0.0,0.0,0.0,0.0,0.0,0.0,0.0,0.0,0.0,0.0,0.0,0.0,0.0,0.0,0.0,0.0,0.0,0.0,0.0,0.0,0.0,0.0,0.0,0.0,0.0,0.0,0.0,0.0,0.0,0.0,0.0,0.0,0.0,0.0,0.0,0.0,0.0,0.0,0.0,0.0,0.0,0.0,0.0,0.0,0.0,0.0,0.0,0.0,0.0,0.0,0.0,0.0,0.0,0.0,0.0,0.0,0.0,0.0,0.0,0.0,0.0,0.0,0.0,0.0,0.0,0.0,0.0,0.0,0.0,0.0,0.0,0.0,0.0,0.0,0.0,0.0,0.0,0.0,0.0,0.0,0.0,0.0,0.0,0.0,0.0,0.0,0.0,0.0,0.0,0.0,0.0,0.0,0.0,0.0,0.0,0.0,0.0,0.0,0.0,0.0,0.0,0.0,-0.9049,-1.0743,-1.1119,-1.1433,-1.191,-1.1232,-1.0846,-1.0942,0.0,0.0,0.0,0.0,0.0,0.0,0.0,0.0,0.0,0.0,0.0,0.0,0.0,0.0,0.0,0.0,0.0,0.0,0.0,0.0,0.0,0.0,0.0,0.0,0.0,0.0,0.0,0.0,0.0,0.0,0.0,0.0,0.0,0.0,0.0,0.0,0.0,0.0,0.0,0.0,0.0,0.0,0.0,0.0,0.0,0.0,0.0,0.0,0.0,0.0,0.0,0.0,0.0,0.0,0.0,0.0,0.0,0.0,0.0,0.0,0.0,0.0,0.0,0.0,0.0,0.0,0.0,0.0,0.0,0.0,0.0,0.0,0.0,0.0,0.0,0.0,0.0,0.0,0.0,0.0,0.0,0.0,0.0,0.0,0.0,0.0,0.0,0.0,0.0,0.0,0.0,0.0,0.0,0.0,0.0,0.0,0.0,0.0,0.0,0.0,0.0,0.0,0.0,-0.8318,-0.9237,-1.0731,-1.0953,-1.1091,-1.1368,-1.0779,-1.0554,-1.0797,-0.9792,0.0,0.0,0.0,0.0,0.0,0.0,0.0,0.0,0.0,0.0,0.0,0.0,0.0,0.0,0.0,0.0,0.0,0.0,0.0,0.0,0.0,0.0,0.0,0.0,0.0,0.0,0.0,0.0,0.0,0.0,0.0,0.0,0.0,0.0,0.0,0.0,0.0,0.0,0.0,0.0,0.0,0.0,0.0,0.0,0.0,0.0,0.0,0.0,0.0,0.0,0.0,0.0,0.0,0.0,0.0,0.0,0.0,0.0,0.0,0.0,0.0,0.0,0.0,0.0,0.0,0.0,0.0,0.0,0.0,0.0,0.0,0.0,0.0,0.0,0.0,0.0,0.0,0.0,0.0,0.0,0.0,0.0,0.0,0.0,0.0,0.0,0.0,0.0,0.0,0.0,0.0,0.0,0.0,0.0,0.0,0.0,0.0,0.0,0.0,0.0,0.0,0.0,-0.8865,-0.9449,-1.0527,-1.0733,-1.0812,-1.0962,-1.0563,-1.0349,-1.0659,-0.9849,0.0,0.0,0.0,0.0,0.0,0.0,0.0,0.0,0.0,0.0,0.0,0.0,0.0,0.0,0.0,0.0,0.0,0.0,0.0,0.0,0.0,0.0,0.0,0.0,0.0,0.0,0.0,0.0,0.0,0.0,0.0,0.0,0.0,0.0,0.0,0.0,0.0,0.0,0.0,0.0,0.0,0.0,0.0,0.0,0.0,0.0,0.0,0.0,0.0,0.0,0.0,0.0,0.0,0.0,0.0,0.0,0.0,0.0,0.0,0.0,0.0,0.0,0.0,0.0,0.0,0.0,0.0,0.0,0.0,0.0,0.0,0.0,0.0,0.0,0.0,0.0,0.0,0.0,0.0,0.0,0.0,0.0,0.0,0.0,0.0,0.0,0.0,0.0,0.0,0.0,0.0,0.0,0.0,0.0,0.0,0.0,0.0,0.0,0.0,0.0,0.0,0.0,-0.8831,-0.9698,-1.0413,-1.0518,-1.0738,-1.1335,-1.0978,-1.0889,-1.1134,-1.0457,0.0,0.0,0.0,0.0,0.0,0.0,0.0,0.0,0.0,0.0,0.0,0.0,0.0,0.0,0.0,0.0,0.0,0.0,0.0,0.0,0.0,0.0,0.0,0.0,0.0,0.0,0.0,0.0,0.0,0.0,0.0,0.0,0.0,0.0,0.0,0.0,0.0,0.0,0.0,0.0,0.0,0.0,0.0,0.0,0.0,0.0,0.0,0.0,0.0,0.0,0.0,0.0,0.0,0.0,0.0,0.0,0.0,0.0,0.0,0.0,0.0,0.0,0.0,0.0,0.0,0.0,0.0,0.0,0.0,0.0,0.0,0.0,0.0,0.0,0.0,0.0,0.0,0.0,0.0,0.0,0.0,0.0,0.0,0.0,0.0,0.0,0.0,0.0,0.0,0.0,0.0,0.0,0.0,0.0,0.0,0.0,0.0,0.0,0.0,0.0,0.0,0.0,-0.8438,-0.9205,0.0,-1.0518,-1.0962,-1.1558,-1.1191,-1.1228,-1.179,0.0,0.0,0.0,0.0,0.0,0.0,0.0,0.0,0.0,0.0,0.0,0.0,0.0,0.0,0.0,0.0,0.0,0.0,0.0,0.0,0.0,0.0,0.0,0.0,0.0,0.0,0.0,0.0,0.0,0.0,0.0,0.0,0.0,0.0,0.0,0.0,0.0,0.0,0.0,0.0,0.0,0.0,0.0,0.0,0.0,0.0,0.0,0.0,0.0,0.0,0.0,0.0,0.0,0.0,0.0,0.0,0.0,0.0,0.0,0.0,0.0,0.0,0.0,0.0,0.0,0.0,0.0,0.0,0.0,0.0,0.0,0.0,0.0,0.0,0.0,0.0,0.0,0.0,0.0,0.0,0.0,0.0,0.0,0.0,0.0,0.0,0.0,0.0,0.0,0.0,0.0,0.0,0.0,0.0,0.0,0.0,0.0,0.0,0.0,0.0,0.0,0.0,-0.7541,-0.8103,-0.8777,0.0,-1.0222,-1.0738,-1.126,-1.112,-1.1268,-1.1793,0.0,0.0,0.0,0.0,0.0,0.0,0.0,0.0,0.0,0.0,0.0,0.0,0.0,0.0,0.0,0.0,0.0,0.0,0.0,0.0,0.0,0.0,0.0,0.0,0.0,0.0,0.0,0.0,0.0,0.0,0.0,0.0,0.0,0.0,0.0,0.0,0.0,0.0,0.0,0.0,0.0,0.0,0.0,0.0,0.0,0.0,0.0,0.0,0.0,0.0,0.0,0.0,0.0,0.0,0.0,0.0,0.0,0.0,0.0,0.0,0.0,0.0,0.0,0.0,0.0,0.0,0.0,0.0,0.0,0.0,0.0,0.0,0.0,0.0,0.0,0.0,0.0,0.0,0.0,0.0,0.0,0.0,0.0,0.0,0.0,0.0,0.0,0.0,0.0,0.0,0.0,0.0,0.0,0.0,0.0,0.0,0.0,0.0,0.0,0.0,0.0,0.0,-0.7197,-0.7909,-0.8531,-0.8958,-0.9553,-1.0067,-1.0438,-1.0694,-1.0873,0.0,0.0,0.0,0.0,0.0,0.0,0.0,0.0,0.0,0.0,0.0,0.0,0.0,0.0,0.0,0.0,0.0,0.0,0.0,0.0,0.0,0.0,0.0,0.0,0.0,0.0,0.0,0.0,0.0,0.0,0.0,0.0,0.0,0.0,0.0,0.0,0.0,0.0,0.0,0.0,0.0,0.0,0.0,0.0,0.0,0.0,0.0,0.0,0.0,0.0,0.0,0.0,0.0,0.0,0.0,0.0,0.0,0.0,0.0,0.0,0.0,0.0,0.0,0.0,0.0,0.0,0.0,0.0,0.0,0.0,0.0,0.0,0.0,0.0,0.0,0.0,0.0,0.0,0.0,0.0,0.0,0.0,0.0,0.0,0.0,0.0,0.0,0.0,0.0,0.0,0.0,0.0,0.0,0.0,0.0,0.0,0.0,0.0,0.0,0.0,0.0,0.0,0.0,-0.681,-0.7519,-0.8154,-0.8501,-0.9276,-0.9846,-1.0218,-1.048,-1.0867,-1.1416,0.0,0.0,0.0,0.0,0.0,0.0,0.0,0.0,0.0,0.0,0.0,0.0,0.0,0.0,0.0,0.0,0.0,0.0,0.0,0.0,0.0,0.0,0.0,0.0,0.0,0.0,0.0,0.0,0.0,0.0,0.0,0.0,0.0,0.0,0.0,0.0,0.0,0.0,0.0,0.0,0.0,0.0,0.0,0.0,0.0,0.0,0.0,0.0,0.0,0.0,0.0,0.0,0.0,0.0,0.0,0.0,0.0,0.0,0.0,0.0,0.0,0.0,0.0,0.0,0.0,0.0,0.0,0.0,0.0,0.0,0.0,0.0,0.0,0.0,0.0,0.0,0.0,0.0,0.0,0.0,0.0,0.0,0.0,0.0,0.0,0.0,0.0,0.0,0.0,0.0,0.0,0.0,0.0,0.0,0.0,0.0,0.0,0.0,0.0,0.0,0.0,0.0,-0.7015,-0.7482,-0.7956,-0.8433,-0.9089,-0.9625,-0.9922,-1.0292,-1.0709,-1.1354,0.0,0.0,0.0,0.0,0.0,0.0,0.0,0.0,0.0,0.0,0.0,0.0,0.0,0.0,0.0,0.0,0.0,0.0,0.0,0.0,0.0,0.0,0.0,0.0,0.0,0.0,0.0,0.0,0.0,0.0,0.0,0.0,0.0,0.0,0.0,0.0,0.0,0.0,0.0,0.0,0.0,0.0,0.0,0.0,0.0,0.0,0.0,0.0,0.0,0.0,0.0,0.0,0.0,0.0,0.0,0.0,0.0,0.0,0.0,0.0,0.0,0.0,0.0,0.0,0.0,0.0,0.0,0.0,0.0,0.0,0.0,0.0,0.0,0.0,0.0,0.0,0.0,0.0,0.0,0.0,0.0,0.0,0.0,0.0,0.0,0.0,0.0,0.0,0.0,0.0,0.0,0.0,0.0,0.0,0.0,0.0,0.0,0.0,0.0,0.0,0.0,0.0,-0.7399,-0.7619,-0.7952,-0.8505,-0.8937,-0.9322,-0.9544,-1.007,-1.061,-1.0987,0.0,0.0,0.0,0.0,0.0,0.0,0.0,0.0,0.0,0.0,0.0,0.0,0.0,0.0,0.0,0.0,0.0,0.0,0.0,0.0,0.0,0.0,0.0,0.0,0.0,0.0,0.0,0.0,0.0,0.0,0.0,0.0,0.0,0.0,0.0,0.0,0.0,0.0,0.0,0.0,0.0,0.0,0.0,0.0,0.0,0.0,0.0,0.0,0.0,0.0,0.0,0.0,0.0,0.0,0.0,0.0,0.0,0.0,0.0,0.0,0.7862,0.0,0.0,0.0,0.0,0.0,0.0,0.0,0.0,0.0,0.0,0.0,0.0,0.0,0.0,0.0,0.0,0.0,0.0,0.0,0.0,0.0,0.0,0.0,0.0,0.0,0.0,0.0,0.0,0.0,0.0,0.0,0.0,0.0,0.0,0.0,0.0,0.0,0.0,0.0,0.0,0.0,-0.6746,-0.7061,-0.7372,-0.7524,-0.8174,-0.8708,-0.9079,-0.9917,-1.0689,-1.134,-1.0786,0.0,0.0,0.0,0.0,0.0,0.0,0.0,0.0,0.0,0.0,0.0,0.0,0.0,0.0,0.0,0.0,0.0,0.0,0.0,0.0,0.0,0.0,0.0,0.0,0.0,0.0,0.0,0.0,0.0,0.0,0.0,0.0,0.0,0.0,0.0,0.0,0.0,0.0,0.0,0.0,0.0,0.0,0.0,0.0,0.0,0.0,0.0,0.0,0.0,0.0,0.0,0.0,0.0,0.0,0.0,0.0,0.0,0.0,0.0,0.0,0.7886,0.0,0.0,0.0,0.0,0.0,0.0,0.0,0.0,0.0,0.0,0.0,0.0,0.0,0.0,0.0,0.0,0.0,0.0,0.0,0.0,0.0,0.0,0.0,0.0,0.0,0.0,0.0,0.0,0.0,0.0,0.0,0.0,0.0,0.0,0.0,0.0,0.0,0.0,0.0,0.0,-0.6815,-0.7207,-0.7517,-0.7604,-0.8255,-0.8861,-0.9236,-1.0096,-1.0997,-1.1864,-1.1352,0.0,0.0,0.0,0.0,0.0,0.0,0.0,0.0,0.0,0.0,0.0,0.0,0.0,0.0,0.0,0.0,0.0,0.0,0.0,0.0,0.0,0.0,0.0,0.0,0.0,0.0,0.0,0.0,0.0,0.0,0.0,0.0,0.0,0.0,0.0,0.0,0.0,0.0,0.0,0.0,0.0,0.0,0.0,0.0,0.0,0.0,0.0,0.0,0.0,0.0,0.0,0.0,0.0,1.0263,1.0481,1.0203,1.0038,0.9685,0.9272,0.8008,0.7523,0.7596,0.7238,0.0,0.0,0.0,0.0,0.0,0.0,0.0,0.0,0.0,0.0,0.0,0.0,0.0,0.0,0.0,0.0,0.0,0.0,0.0,0.0,0.0,0.0,0.0,0.0,0.0184,-0.1092,0.0,0.0,0.0,0.0,0.0,0.0,0.0,0.0,0.0,0.0,0.0,0.0,-0.7219,-0.772,-0.807,-0.8214,-0.8718,-0.9251,-0.962,-1.0443,-1.1384,-1.2386,-1.1934,-1.1284,0.0,0.0,0.0,0.0,0.0,0.0,0.0,0.0,0.0,0.0,0.0,0.0,0.0,0.0,0.0,0.0,0.0,0.0,0.0,0.0,0.0,0.0,0.0,0.0,0.0,0.0,0.0,0.0,0.0,0.0,0.0,0.0,0.4604,0.4604,0.0,0.0,0.0,0.0,0.0,0.0,0.0,0.0,0.0,0.0,0.0,0.0,0.0,0.9432,1.0236,1.0226,1.0305,1.0613,1.0465,0.9842,0.8751,0.8198,0.735,0.6224,0.5744,0.0,0.6973,0.6391,0.0,0.0,0.0,0.0,0.0,0.0,0.0,0.0,0.0,0.0,0.0,0.0,0.0,0.0,0.0,0.0,0.0,0.0,0.0,0.0,0.0,0.0,0.1585,0.0798,-0.0616,-0.1861,0.0,-0.229,-0.249,-0.2324,-0.2805,0.0,0.0,0.0,0.0,0.0,0.0,0.0,-0.7697,-0.8334,-0.8813,-0.8599,-0.9013,-0.9397,-0.9846,-1.0887,-1.1842,-1.2545,-1.2333,-1.1938,-1.1268,-1.0087,0.0,0.0,0.0,0.0,0.0,0.0,0.0,0.0,0.0,0.0,0.0,0.0,0.0,0.0,0.0,0.0,0.0,0.0,0.0,0.0,0.0,0.0,0.0,0.0,0.0,0.0,0.0,0.0,0.0,0.5419,0.557,0.525,0.5383,0.5276,0.0,0.0,0.0,0.0,0.0,0.0,0.0,0.0,0.0,0.9946,1.0324,1.0718,1.1243,1.1249,1.1247,1.1306,1.1307,1.0907,1.0093,0.9881,0.8698,0.6772,0.4987,0.4271,0.446,0.5366,0.5239,0.4482,0.0,0.0,0.0,0.0,0.6193,0.4831,0.6337,0.6,0.0,0.5974,0.0,0.0,0.0,0.0,0.0,0.0,0.0,0.0,0.0,0.0,0.0,0.0579,-0.0777,-0.2018,-0.2241,-0.2484,-0.2579,0.0,-0.2713,-0.3209,-0.3618,0.0,0.0,0.0,0.0,-0.8504,-0.8466,-0.8862,-0.9059,-0.8756,-0.9165,-0.9695,-1.0368,-1.1186,-1.2224,-1.3404,-1.2877,-1.2238,-1.15,-1.0465,-0.9106,0.0,0.0,0.0,0.0,0.0,0.0,0.0,0.0,0.0,0.0,0.0,0.0,0.0,0.0,0.0,0.0,0.0,0.0,0.0,0.0,0.0,0.0,0.0,0.0,0.0,0.0,0.0,0.0,0.6034,0.6377,0.5893,0.6145,0.6097,0.0,0.0,0.0,0.0,0.0,0.0,0.7962,0.8576,0.9591,1.1164,1.1538,1.182,1.2033,1.2018,1.1976,1.184,1.1321,1.0748,1.0042,0.9428,0.7913,0.563,0.3411,0.237,0.248,0.3831,0.4165,0.3766,0.3168,0.4238,0.6176,0.6487,0.5352,0.3937,0.5406,0.543,0.489,0.5369,0.0,0.5427,0.4866,0.0,0.0,0.0,0.0,0.306,0.3245,0.2171,0.0927,0.068,-0.0754,-0.213,-0.2542,-0.2867,-0.296,0.0,-0.3068,-0.3583,-0.4083,0.0,0.0,0.0,0.0,-0.9149,-0.919,-0.947,-0.9495,-0.914,-0.9539,-1.0143,-1.0887,-1.1632,-1.2592,-1.3912,-1.3376,-1.2624,-1.1744,-1.0848,-0.9592,-0.7949,0.0,0.0,0.0,0.0,0.0,0.0,0.0,0.0,0.0,0.0,0.0,0.0,0.0,0.0,0.0,0.0,0.0,0.0,0.0,0.0,0.0,0.0,0.0,0.0,0.0,0.0,0.0,0.0,0.0,0.6575,0.7045,0.0,0.0,0.0,0.0,0.6715,0.724,0.7942,0.8869,0.9759,1.0621,1.1624,1.2068,1.2398,1.2621,1.2329,1.218,1.2173,0.98,0.7887,0.6272,0.3999,0.1985,0.028,-0.0358,0.0569,0.2343,0.1448,0.0516,0.0064,0.2626,0.2757,0.177,0.376,0.3675,0.2743,0.3049,0.4036,0.506,0.4494,0.4785,0.5285,0.4452,0.4002,0.0,0.0,0.3388,0.3512,0.344,0.2509,0.1541,0.1007,-0.0797,-0.2542,-0.3042,-0.3688,-0.4008,0.0,-0.4069,-0.4725,-0.5124,0.0,-0.7437,-0.7697,-0.8945,-0.9823,-0.9834,-1.0193,-1.0351,-1.0143,-1.0293,-1.0663,-1.1335,-1.2305,-1.3112,-1.376,-1.3651,-1.3164,-1.228,-1.1434,-1.0161,-0.851,-0.8416,0.0,0.0,0.0,0.0,0.0,0.0,0.0,0.0,0.0,0.0,0.0,0.0,0.0,0.0,0.0,0.0,0.0,0.0,0.0,0.0,0.0,0.0,0.0,0.0,0.0,0.0,0.0,0.0,0.7496,0.8047,0.0,0.7818,0.793,0.8112,0.826,0.8405,0.9037,1.0277,1.0876,1.1722,1.2952,1.3001,1.3148,1.3329,1.2869,1.2642,1.2635,1.1651,0.9919,0.7599,0.4028,0.1879,0.0927,-0.064,-0.007,0.1889,0.146,0.1511,0.1828,0.0969,0.0378,0.0305,0.2099,0.2651,0.2566,0.2988,0.4172,0.546,0.5589,0.557,0.5406,0.4957,0.4568,0.4238,0.3963,0.3394,0.2868,0.2851,0.1557,0.0288,0.0798,-0.109,-0.2909,-0.254,-0.353,-0.4643,-0.4947,-0.5349,-0.5863,-0.6375,-0.7469,-0.8468,-0.9098,-0.9813,-1.0317,-1.0463,-1.0479,-1.0443,-1.0218,-1.0588,-1.1111,-1.1706,-1.2599,-1.3411,-1.4129,-1.3885,-1.3502,-1.3027,-1.1927,-1.0926,-1.0098,-0.9498,-0.9079,0.0,0.0,0.0,0.0,0.0,0.0,0.0,0.0,0.0,0.0,0.0,0.0,0.0,0.0,0.0,0.0,0.0,0.0,0.0,0.0,0.0,0.0,0.0,0.0,0.0,0.0,0.8336,0.8587,0.9187,0.9463,0.9147,0.9344,0.948,0.9639,0.9799,1.0396,1.1633,1.1951,1.2702,1.3961,1.3805,1.3672,1.3672,1.3308,1.3145,1.3185,1.2251,1.0917,0.9119,0.5661,0.3231,0.1743,0.1009,0.1339,0.2388,0.2388,0.3583,0.5134,0.2226,0.1032,0.1081,0.202,0.2328,0.245,0.4018,0.48,0.5337,0.6037,0.5982,0.5513,0.5176,0.4915,0.4692,0.4501,0.3871,0.3147,0.2678,0.1225,-0.0074,0.0149,-0.1639,-0.3205,-0.2829,-0.3919,-0.5234,-0.5942,-0.6262,-0.6663,-0.7354,-0.8374,-0.9353,-1.0002,-1.0427,-1.0812,-1.0962,-1.0812,-1.0663,-1.0513,-1.0962,-1.1558,-1.215,-1.2966,-1.3768,-1.4489,-1.4292,-1.3963,-1.376,-1.2749,-1.2017,-1.1578,-1.0945,-1.058,-1.0589,0.0,0.0,0.0,0.0,0.0,0.0,0.0,0.0,0.0,0.0,0.0,0.0,0.0,0.0,0.0,0.0,0.0,0.0,0.0,0.0,0.0,0.0,0.0,0.7158,0.8239,0.9225,0.9887,1.0485,1.0759,1.0496,1.0679,1.0798,1.0863,1.1384,1.1985,1.2775,1.3068,1.3635,1.4477,1.4364,1.4133,1.3748,1.3506,1.3568,1.3833,1.142,1.0392,1.056,0.8282,0.5445,0.2435,0.4363,0.4746,0.4065,0.4065,0.6325,0.9388,0.6398,0.4675,0.3795,0.3362,0.2593,0.2324,0.5877,0.5975,0.4662,0.5694,0.5844,0.5533,0.4985,0.4967,0.5018,0.4635,0.4694,0.4496,0.2735,0.1626,0.0607,-0.0934,-0.2429,-0.3524,-0.399,-0.4909,-0.577,-0.6454,-0.6817,-0.7241,-0.7994,-0.9097,-1.0066,-1.0417,-1.0807,0.0,-1.1335,-1.1186,-1.1111,-1.1111,-1.1484,-1.1929,-1.2599,-1.3324,-1.4114,-1.4903,-1.4772,-1.4613,-1.4444,-1.3919,-1.3285,-1.2679,-1.2578,-1.2569,-1.2703,0.0,0.0,0.0,0.0,0.0,0.0,0.0,0.0,0.0,0.0,0.0,0.0,0.0,0.0,0.0,0.0,0.0,0.0,0.0,0.0,0.0,0.7516,0.8191,0.795,0.8879,0.9953,1.0676,1.1203,1.1633,1.1992,1.2202,1.2315,1.233,1.2608,1.3107,1.3865,1.3881,1.4268,1.5134,1.4832,1.4561,1.4253,1.4456,1.4568,1.484,1.3988,1.2783,1.1197,0.9732,0.7543,0.4924,0.4842,0.53,0.6066,0.594,0.7306,0.9215,0.5547,0.4604,0.5093,0.3538,0.2732,0.293,0.626,0.6106,0.4415,0.3918,0.4696,0.5417,0.3174,0.3779,0.4981,0.3752,0.2905,0.1993,0.0446,-0.0986,-0.1939,-0.1797,-0.3052,-0.4148,-0.3359,-0.4583,-0.5889,-0.6237,-0.6674,-0.7311,-0.8533,-0.9526,-1.0271,-1.065,-1.0697,0.0,-1.0962,-1.0887,-1.0962,-1.1111,-1.1558,-1.2231,-1.2973,-1.3695,-1.4482,-1.5284,-1.5095,-1.5081,-1.5357,-1.4195,-1.3235,-1.2578,-1.2872,-1.3033,0.0,0.0,0.0,0.0,0.0,0.0,0.0,0.0,0.0,0.0,0.0,0.0,0.0,0.0,0.0,0.0,0.0,0.0,0.0,0.0,0.0,0.0,0.9046,0.982,0.9664,1.0137,1.0827,1.1748,1.2131,1.2526,1.3046,1.32,1.3273,1.3193,1.3673,1.4289,1.5017,1.543,1.5988,1.6681,1.6606,1.6305,1.5848,1.601,1.6108,1.6219,1.5939,1.5213,1.4073,1.33,1.1049,0.0,0.8098,0.7753,0.6953,0.7631,0.871,0.0,0.0,0.0,0.0,0.0,0.453,0.4662,0.64,0.6268,0.5071,0.4243,0.4725,0.5292,0.3165,0.3425,0.4191,0.2682,0.1824,0.0975,-0.0742,-0.1978,-0.273,-0.2934,-0.4035,-0.4846,-0.3904,-0.4841,-0.586,-0.5857,-0.6475,0.0,-0.8313,-0.9155,-0.9911,-1.0438,-1.0513,-1.0594,-1.0887,-1.0962,-1.1037,-1.1335,-1.1855,-1.2452,-1.3273,-1.3977,0.0,0.0,0.0,-1.5575,-1.5569,-1.4532,0.0,0.0,0.0,-1.4005,-1.4542,0.0,0.0,0.0,-1.6598,-1.7433,0.0,0.0,0.0,0.0,0.0,0.0,0.0,0.0,0.0,0.0,0.0,0.0,0.0,0.0,0.0,0.0,1.0829,1.1784,1.2019,1.1917,1.2089,1.2865,1.3193,1.3484,1.379,1.3935,1.3928,1.3775,1.4713,1.5543,1.6254,0.0,0.0,0.0,0.0,1.862,1.7926,1.7926,1.7893,1.7784,1.7444,1.7444,1.7707,1.7345,1.48,1.0836,1.2632,1.1114,0.7545,0.9169,1.0183,1.0559,0.9372,0.8722,0.8304,0.7483,0.6955,0.6705,0.649,0.0,0.0,0.5372,0.5256,0.5295,0.3956,0.3567,0.3305,0.1802,0.1328,0.0747,-0.1392,-0.2262,-0.2947,-0.4414,-0.5231,-0.5622,-0.516,-0.547,-0.5709,-0.5321,-0.6163,-0.7165,-0.7629,-0.847,-0.9306,-1.0143,-1.0368,-1.0663,-1.1037,-1.1037,-1.1186,-1.1632,0.0,0.0,-1.3492,-1.4258,-1.5171,-1.6306,-1.6428,-1.6138,-1.5569,-1.4937,-1.4602,-1.4721,-1.4556,-1.5051,-1.6192,-1.6649,-1.7484,-1.871,-1.8942,-1.9578,0.0,0.0,0.0,0.0,0.0,0.0,0.0,0.0,0.0,0.0,0.0,0.0,0.0,0.0,0.0,1.2959,1.3434,1.3832,1.4253,1.4371,1.4124,1.3258,1.3825,1.4258,1.4065,1.4697,1.5188,1.5251,1.5965,1.6937,1.8086,1.823,1.8643,1.9404,1.8951,1.8864,1.9305,1.9436,1.9243,1.8787,0.0,0.0,1.7754,1.7116,1.5872,1.4057,1.3918,1.2594,1.0489,1.0823,1.0889,1.0676,0.9559,0.8848,0.8304,0.7283,0.6976,0.6886,0.6535,0.658,0.6415,0.3968,0.453,0.5708,0.3205,0.3652,0.0,0.1924,0.0971,0.0,-0.3446,-0.4724,-0.5372,-0.6056,-0.6307,-0.6173,-0.5395,-0.5321,-0.5321,-0.4854,-0.5243,-0.5938,-0.6938,-0.8394,-0.969,-1.0368,-1.0519,-1.0588,-1.0812,-1.0887,-1.1037,-1.1409,-1.1929,-1.2746,-1.3912,-1.4625,-1.5551,-1.6682,-1.7013,-1.6938,-1.6294,-1.5461,-1.4955,-1.4851,-1.4445,-1.4847,-1.6028,-1.7695,-1.9219,-2.0589,-2.0566,-2.0813,0.0,0.0,0.0,0.0,0.0,0.0,0.0,0.0,0.0,0.0,0.0,1.405,1.4308,0.0,1.4549,1.509,1.5384,1.5497,1.5624,1.586,1.5587,1.4537,1.5021,1.5367,1.5251,1.5816,1.6167,1.6175,1.7055,1.7967,1.8736,1.9458,2.0128,2.0649,2.035,2.0502,2.1124,2.0872,2.049,1.9987,1.9544,1.8924,1.8071,1.7809,1.6646,1.4824,1.4705,1.3466,1.1447,1.178,1.1527,1.0916,1.0703,0.9833,0.8628,0.7817,0.7431,0.7229,0.6854,0.6814,0.674,0.5084,0.5284,0.5734,0.3876,0.3827,0.371,0.0379,-0.0838,-0.1978,-0.5196,-0.6402,-0.69,-0.7207,-0.7339,-0.7099,-0.6173,-0.6015,-0.586,-0.5165,-0.5628,-0.6247,-0.6788,-0.8165,-0.9387,-0.9992,-1.0143,-1.0293,-1.0443,-1.0588,-1.0812,-1.1186,-1.1855,-1.2739,-1.384,-1.533,-1.6603,-1.751,-1.7588,-1.7321,-1.6579,-1.5834,-1.5368,-1.5205,-1.5051,-1.5693,-1.7196,-1.8397,-2.0093,-2.2156,-2.2496,-2.2715,0.0,0.0,0.0,0.0,0.0,0.0,0.0,0.0,1.5597,1.5697,1.6014,1.6337,1.6566,1.691,1.7163,1.6977,1.7139,1.7151,1.6945,1.722,1.7151,1.6498,1.6558,1.6627,1.6507,1.6996,1.7232,1.7019,1.8047,1.8883,1.9299,2.0643,2.153,2.1916,2.1891,2.2207,2.2842,2.2273,2.1827,2.136,2.0745,2.0025,1.9298,1.9044,1.7684,1.5482,1.5262,1.3962,1.2064,1.2582,1.226,1.1382,1.1814,1.0791,0.9013,0.8455,0.79,0.7436,0.7107,0.7048,0.7005,0.6645,0.6375,0.5832,0.4657,0.3766,0.2413,-0.1312,-0.2858,-0.4058,-0.6585,-0.7727,-0.8179,-0.8254,-0.8351,-0.8097,-0.7022,-0.6788,-0.6553,-0.5473,-0.6093,-0.6784,-0.6934,-0.7931,-0.8932,-0.9544,-0.9771,-0.9992,-1.0218,-1.0363,-1.0663,-1.1037,-1.1706,-1.2666,-1.3897,-1.5956,-1.7432,-1.8182,-1.8121,-1.7724,-1.7044,-1.6328,-1.5854,-1.5678,-1.5596,-1.6461,-1.8123,-1.8725,-2.0313,-2.2815,-2.3599,-2.4174,1.6129,1.5962,1.5921,1.6538,1.6489,1.6515,0.0,0.0,1.8222,1.9078,1.9155,1.935,1.993,1.9672,1.9345,1.9403,1.9058,1.889,1.9222,1.9399,1.9333,1.8957,1.8365,1.7745,1.7042,1.8083,1.8656,1.8337,1.9023,2.0,2.121,2.1215,2.1761,2.3123,2.2592,2.2709,2.3767,2.3623,2.3396,2.305,2.2583,2.2436,2.2555,2.1239,1.9922,1.8542,1.5478,1.4049,1.3791,1.387,1.3226,1.2178,1.2011,1.0977,0.9456,0.8862,0.8054,0.7245,0.7081,0.7062,0.7122,0.6892,0.6918,0.6579,0.4246,0.3116,0.1949,-0.1693,-0.3654,-0.5176,-0.7382,-0.8817,-0.9588,-0.9427,-0.9437,-0.9069,-0.771,-0.6934,-0.6314,-0.5473,-0.5857,-0.6468,-0.7073,-0.8152,-0.9079,-0.9544,-0.9771,-1.0067,-1.0443,-1.0513,-1.0588,-1.0812,-1.1409,-1.2579,-1.4617,-1.6097,-1.7285,-1.8202,-1.8365,-1.8469,-1.8526,-1.7216,-1.6468,-1.6296,-1.5593,-1.589,-1.7153,-1.8144,-1.9552,-2.1373,-2.2271,-2.3971,1.6962,1.7646,1.8156,0.0,1.8091,1.8339,1.8349,1.8978,1.9636,2.0003,2.0844,2.146,2.1567,2.1391,2.1222,0.0,2.0666,2.0409,2.0366,2.042,2.0215,1.9639,1.9044,1.8375,1.7696,1.8418,1.8924,1.8988,1.9489,2.0456,2.1928,2.1839,2.2285,2.3452,2.2911,2.3219,2.4544,2.4391,2.416,2.3906,2.3395,2.2854,2.2179,2.1404,2.0183,1.8519,1.5761,1.4427,1.4128,1.3336,1.2694,1.2077,1.1545,1.0501,0.9357,0.8872,0.8351,0.7815,0.7434,0.7238,0.7151,0.7071,0.6893,0.6325,0.4353,0.3312,0.1911,-0.201,-0.4296,-0.6006,-0.8335,-0.9744,-1.0582,-1.0513,-1.0137,-0.9533,-0.8694,-0.7931,-0.7322,-0.7007,-0.7087,-0.743,-0.8129,-0.8886,-0.9601,-1.034,-1.0218,-1.0067,-1.0143,-1.0218,-1.0588,-1.126,-1.2291,-1.3455,-1.476,-1.6097,-1.7345,-1.8385,-1.8607,-1.8674,-1.8808,-1.789,-1.7321,-1.7069,-1.6689,-1.6911,-1.7543,-1.8325,-1.9596,-2.1486,-2.2266,-2.3906,1.7949,0.0,0.0,1.916,1.928,1.9472,1.9446,1.9943,2.0564,2.1017,2.2102,2.2891,2.2569,2.2611,2.2567,2.2137,2.1827,2.1639,2.1463,2.1336,2.0996,2.0268,1.9998,1.9596,1.8813,1.9081,1.9557,2.0213,2.0899,2.188,2.3267,2.328,2.3703,2.4689,2.4152,2.4421,2.5595,2.5586,2.5531,2.5488,2.5186,2.448,2.3269,2.2141,2.0521,1.8605,1.646,1.5265,1.4625,1.3397,1.2592,1.2077,1.1105,1.0132,0.9231,0.8551,0.8093,0.7868,0.748,0.7176,0.6953,0.7026,0.6563,0.5622,0.3809,0.2561,0.0853,-0.295,-0.5263,-0.7091,-0.9044,-1.0351,-1.1111,-1.1186,-1.0663,-1.0045,-0.9526,-0.9034,-0.859,-0.8318,-0.8565,-0.8946,-0.9409,-0.9933,-1.0589,-1.1378,-1.1111,-1.0738,-1.0368,-1.0443,-1.0887,-1.1929,-1.3105,-1.4114,-1.4832,-1.6097,-1.7207,-1.824,-1.8596,-1.8808,-1.8808,-1.8405,-1.8076,-1.7735,-1.7735,-1.794,-1.8212,-1.8808,-1.9933,-2.151,-2.2189,-2.3354,1.8981,0.0,1.909,1.9843,1.95,1.9321,2.094,2.0989,2.1144,2.2792,2.331,2.342,2.3132,2.3258,2.315,2.2482,2.2396,2.2506,2.2787,2.2384,2.1842,2.1318,2.1818,2.1794,0.0,2.0534,2.1136,2.265,2.379,2.4828,2.5912,2.5977,2.644,2.7467,2.6813,2.6652,2.7003,2.7752,2.8139,2.8168,2.8698,2.851,2.7584,2.4147,2.1574,1.974,1.7999,1.6689,1.5692,1.4697,1.3615,1.2452,1.1013,0.9976,0.917,0.7718,0.7026,0.6714,0.6865,0.6637,0.6338,0.6563,0.5931,0.4595,0.2016,0.0155,-0.1787,-0.4678,-0.6846,-0.8528,-0.9367,-1.0351,-1.1186,-1.1335,-1.1037,-1.0599,-0.9918,-0.9966,-0.9829,-0.8877,-0.993,-1.0917,-1.0593,-1.1503,-1.2291,-1.2526,-1.2526,-1.2224,-1.1484,-1.1335,-1.1781,-1.2753,-1.3397,-1.4114,-1.4832,-1.5965,-1.695,-1.7706,-1.8395,-1.8808,-1.8808,-1.8808,-1.8607,-1.8269,-1.8385,-1.8586,-1.8808,-1.9539,-2.0248,-2.0955,-2.1628,-2.1944,1.9952,2.0668,2.1306,2.1267,2.1601,2.202,2.2167,2.2565,2.2964,2.2923,2.3239,2.324,2.2483,2.2264,2.1944,2.127,2.1381,2.1616,2.1779,2.1978,2.2089,2.2091,2.2287,0.0,0.0,0.0,0.0,2.411,2.4778,2.583,2.754,2.74,2.7607,2.8311,2.7917,2.7883,2.8294,2.8642,2.902,2.948,2.9376,2.8539,2.7109,2.5196,2.3389,2.1624,1.9587,1.8125,1.6986,1.468,1.2983,1.1687,1.0282,0.8998,0.7859,0.7557,0.6942,0.6321,0.6486,0.6637,0.6942,0.7096,0.7238,0.6674,0.3718,0.2164,0.0695,-0.296,-0.5607,-0.7528,-0.8519,-1.0034,-1.136,-1.1616,-1.1571,-1.1422,-1.1344,-1.1003,-1.0659,-1.0578,-1.087,-1.1238,-1.1572,-1.1777,-1.227,-1.3264,-1.2799,-1.2358,-1.2204,-1.2278,-1.2572,-1.3164,-1.4034,-1.476,-1.5471,-1.6533,-1.7501,-1.8365,-1.8844,-1.9375,-1.9846,-1.9156,-1.8994,-1.9475,-1.868,-1.8585,-1.9286,-1.9372,-1.9649,-2.0125,-2.0545,-2.115,2.1247,2.2094,2.2776,2.2578,2.3007,2.3464,2.3457,2.3811,2.392,2.3272,2.3239,2.2985,2.168,2.118,2.0925,2.0635,2.1067,2.1581,2.2065,2.2615,2.3012,2.3234,2.3586,2.4321,0.0,0.0,0.0,2.6139,2.6913,2.8025,2.9375,2.9722,3.004,3.0325,2.9904,2.9815,3.0137,3.0563,3.0973,3.1431,3.0623,2.9319,2.7563,2.6399,2.4998,2.3301,2.1241,1.9663,1.8461,1.6198,1.4411,1.3027,1.1758,1.0358,0.8883,0.8058,0.7536,0.7161,0.6788,0.6938,0.7238,0.7007,0.6915,0.6357,0.3492,0.2017,0.0698,-0.2575,-0.4678,-0.6371,-0.791,-0.9583,-1.0965,-1.1494,-1.1786,-1.2025,-1.2147,-1.2086,-1.1971,-1.2028,-1.2219,-1.2408,-1.2772,-1.3065,-1.3571,-1.4845,-1.432,-1.3777,-1.3648,-1.3671,-1.3874,-1.4363,-1.51,-1.5754,-1.6254,-1.7097,-1.792,-1.8767,-1.9177,-1.9629,-2.0037,-1.9766,-1.986,-2.0362,-1.961,-1.9636,-2.0282,-2.0016,-2.0064,-2.0354,-2.0538,-2.1035,2.2829,2.3206,2.3572,2.3781,2.3681,2.3771,2.477,2.4515,2.3973,2.3603,2.3244,2.2362,0.0,0.0,2.0102,2.0442,2.1278,2.2286,2.342,2.4066,2.4573,0.0,0.0,0.0,0.0,0.0,0.0,2.8853,0.0,3.1219,3.1568,3.2821,3.3493,3.3387,3.2691,3.2392,3.2497,3.3363,3.3887,3.394,3.2514,3.0935,2.9254,2.7827,2.6396,2.4901,2.2984,2.1513,2.0378,1.9154,1.7783,1.6321,1.5367,1.3907,1.1978,0.9425,0.8713,0.8922,0.7774,0.754,0.7532,0.6447,0.5431,0.4187,0.1636,0.0,-0.1333,-0.3365,-0.4215,-0.5057,-0.746,-0.9059,-1.0273,-1.1109,-1.1972,-1.2575,-1.2638,-1.3355,-1.3875,-1.3289,-1.392,-1.4487,-1.429,-1.5169,-1.6201,-1.7113,-1.6867,-1.6354,-1.5664,-1.5332,-1.5428,-1.6253,-1.6524,-1.6811,-1.7235,-1.7725,-1.8259,-1.8834,-1.9299,-1.962,-1.9596,-2.0551,-2.1063,-2.0925,-2.1105,-2.1389,-2.1707,-2.1381,-2.133,-2.1521,-2.1521,-2.1486,2.3903,2.5016,2.6031,2.4953,2.4993,2.5185,2.4902,2.4359,2.3436,2.1863,2.1205,2.0153,0.0,0.0,0.0,1.8256,1.9569,0.0,2.3063,2.4474,0.0,2.7829,0.0,3.068,3.17,3.2352,0.0,0.0,3.2207,3.2488,3.4073,3.3972,3.4035,3.4403,3.3379,3.3124,3.3741,3.4853,3.5209,3.4788,3.4262,3.3211,3.1655,3.0274,2.8948,2.7704,2.527,2.4195,2.391,2.1058,1.9392,1.8628,1.7468,1.5351,1.282,1.1499,1.058,1.0013,0.9712,0.9863,1.0007,0.8954,0.9085,0.891,0.5425,0.3966,0.2952,-0.0156,-0.2339,-0.4271,-0.674,-0.9803,-1.2326,-1.2816,-1.4722,-1.629,-1.5972,-1.5899,-1.5864,-1.5578,-1.5308,-1.5139,-1.509,-1.6045,-1.7012,-1.7575,-1.7508,-1.7252,-1.6944,-1.6628,-1.673,-1.7503,-1.7619,-1.7765,-1.8172,-1.8586,-1.8998,-1.9507,-1.9651,-2.025,-2.1393,-2.1153,-2.151,-2.2509,-2.1818,-2.1705,-2.2219,-2.1736,-2.1542,-2.1628,-2.1506,-2.1579,2.6064,2.6919,2.7539,2.6245,2.5802,2.5468,2.4536,2.3501,2.2064,1.9802,1.9149,1.8278,1.5891,1.6447,1.741,0.0,0.0,0.0,2.397,2.6087,2.8093,0.0,3.1336,0.0,3.3306,3.3744,3.412,0.0,3.371,3.3733,3.5075,3.4549,3.4689,3.5725,3.4613,3.4558,3.572,3.6179,3.6202,3.5754,3.5279,3.411,3.2328,3.1292,3.0336,2.9426,0.0,2.6804,2.6748,2.4693,2.321,2.2046,2.1129,1.8511,1.507,1.3552,1.262,1.2164,1.2032,1.3319,1.4616,1.1788,1.0825,1.0233,0.7112,0.5087,0.3263,0.039,-0.1795,-0.3969,-0.6659,-0.8421,-1.0059,-1.2655,-1.4172,-1.5368,-1.6637,-1.7266,-1.7448,-1.7241,-1.6873,-1.6673,-1.6948,-1.7632,-1.8246,-1.8768,-1.8703,-1.8571,-1.8496,-1.7791,-1.743,-1.7959,-1.7849,-1.7875,-1.8207,-1.8187,-1.841,-1.8956,-1.9035,-1.9643,-2.0843,-2.1192,-2.1732,-2.2494,-2.2366,-2.2434,-2.2713,-2.2295,-2.2035,-2.1941,-2.186,-2.1801,2.8277,2.8508,2.8336,2.7311,2.6311,2.5231,2.3872,2.2665,2.1052,1.8372,1.8058,1.7656,1.5517,1.6068,1.7349,1.8907,0.0,2.3517,2.5956,2.843,3.0435,3.1554,3.27,3.3504,3.3888,3.4192,3.4598,3.5141,3.4831,3.4904,3.5534,3.5049,3.5407,3.681,3.608,3.6263,3.7563,3.7411,3.7158,3.6895,3.5935,3.4432,3.2468,3.165,3.1066,3.0632,2.9566,0.0,2.9251,2.8788,2.7592,2.6073,2.5392,2.2559,1.8605,1.616,1.5283,1.5211,1.4661,1.7129,1.9643,1.501,1.2372,1.0603,0.8417,0.5454,0.2408,0.0311,-0.1322,-0.3029,-0.6017,-0.5503,-0.5631,-1.1243,-1.2276,-1.2949,-1.6717,-1.8313,-1.8927,-1.8534,-1.837,-1.8496,-1.9085,-1.923,-1.9552,-2.0169,-2.0067,-1.987,-1.9981,-1.8748,-1.7997,-1.8132,-1.7801,-1.7604,-1.7809,-1.7369,-1.7274,-1.7811,-1.8004,-1.8474,-1.9272,-2.0867,-2.1731,-2.1784,-2.2704,-2.3137,-2.3068,-2.2783,-2.2572,-2.2324,-2.2417,-2.2137,2.8121,2.8546,2.8583,2.7132,2.6441,2.5622,2.3467,2.3393,0.0,2.0623,2.1084,2.1384,1.9749,1.9982,2.0875,2.2025,2.3857,2.6077,2.8927,3.0636,3.213,0.0,3.4926,3.5848,3.6197,3.6234,0.0,0.0,0.0,3.5938,3.736,3.6573,3.6084,3.6109,3.7079,3.7385,3.6883,3.8271,3.8785,3.8395,3.6741,3.5468,3.4445,3.2696,3.1952,3.2054,3.0733,0.0,3.2264,3.0335,2.966,2.9703,2.8093,2.5972,2.3523,2.0993,1.995,1.9541,1.8172,1.9635,2.1643,1.897,1.7352,1.5984,1.3596,0.9967,0.6132,0.3528,0.2752,0.1901,-0.1292,-0.1323,-0.2241,-0.9383,-1.2598,-1.5476,-2.0626,-2.1356,-2.073,-1.9891,-1.9502,-1.9405,-1.9503,-1.9695,-2.008,-2.061,-2.0396,-2.022,-2.0437,-1.966,-1.8954,-1.862,-1.8344,-1.8017,-1.7438,-1.7294,-1.7181,-1.7046,-1.7517,-1.8265,-1.9355,-2.0353,-2.1298,-2.2153,-2.2501,-2.2686,-2.2775,-2.2689,-2.2737,-2.2949,-2.2692,-2.2509,2.9184,2.9357,2.9119,2.7912,2.641,2.4607,2.2424,0.0,0.0,1.7977,1.8879,1.9834,1.8729,1.9804,0.0,2.2973,2.5046,2.7404,3.0091,3.1682,3.3156,3.474,3.5583,3.6108,0.0,3.6241,3.626,3.6324,0.0,3.6261,3.7912,3.8092,3.7795,3.7128,3.8115,3.8488,3.8063,3.8827,3.9027,3.8572,3.6692,3.5483,3.4836,3.3265,3.2705,3.2995,3.2701,0.0,3.3939,3.273,3.2155,3.1827,3.0364,2.8086,2.5459,2.3838,2.2611,2.1717,2.1476,2.3088,2.4992,2.353,2.0961,1.815,1.6465,1.1769,0.6414,0.3609,0.3834,0.3951,-0.0073,0.2331,0.3849,-0.4012,-0.985,-1.5263,-2.1218,-2.1779,-2.0936,-2.0433,-2.0082,-1.9915,-1.999,-2.0156,-2.0422,-2.0759,-2.0795,-2.0858,-2.0921,-2.0374,-1.9733,-1.9057,-1.8286,-1.7718,-1.7265,-1.6588,-1.6086,-1.5834,-1.6532,-1.7295,-1.7997,-1.9543,-2.0648,-2.1218,-2.1978,-2.2352,-2.2249,-2.2526,-2.2632,-2.254,-2.2601,-2.237,2.973,2.9531,2.8936,2.8203,2.606,2.3542,2.1338,2.0333,1.9019,1.6117,1.7407,1.8963,1.8576,2.014,2.2175,0.0,2.6404,2.8685,3.1088,3.2559,3.391,0.0,3.5693,0.0,3.5792,3.5797,0.0,3.5968,0.0,0.0,3.8016,3.8988,3.9166,3.8369,3.8794,3.9032,3.9063,3.895,3.8672,3.8253,3.6431,3.528,3.4675,3.3506,3.3194,3.3615,3.4222,0.0,0.0,3.467,3.4089,3.3257,3.2097,2.9856,2.7149,2.627,2.5081,2.4006,2.4626,2.6287,2.8011,2.6864,2.3678,1.9996,1.8582,1.2787,0.6357,0.4986,0.5416,0.5574,0.2512,0.6642,0.9307,0.0393,-0.7654,-1.4839,-2.0393,-2.1264,-2.0926,-2.0972,-2.0643,-2.0406,-2.0601,-2.0623,-2.0723,-2.0908,-2.1215,-2.1375,-2.1229,-2.097,-2.0412,-1.9473,-1.8212,-1.7309,-1.7005,-1.5851,-1.5029,-1.4834,-1.5633,-1.6234,-1.6599,-1.8626,-1.9826,-2.0144,-2.1345,-2.1934,-2.1746,-2.2296,-2.2388,-2.2044,-2.237,-2.2184,2.7992,2.7741,2.7062,2.6597,2.5078,2.3099,2.0628,0.0,2.1096,1.9743,2.1485,2.3465,2.4194,2.4963,2.6079,0.0,0.0,3.0766,3.3187,3.3912,3.4542,3.547,0.0,0.0,3.579,3.5799,0.0,0.0,0.0,0.0,3.8006,3.8623,3.8922,3.8854,3.8542,3.8362,3.8297,3.8163,3.7997,3.7745,3.6456,3.5362,3.4398,3.3379,3.3204,3.3778,3.4043,0.0,0.0,3.4954,3.4542,3.4093,3.2922,3.1741,3.0499,2.9211,2.8465,2.8054,2.758,2.8342,2.917,2.7112,2.5336,2.3466,2.0621,1.4077,0.8274,1.1447,1.0337,0.8664,1.0778,1.2767,1.1396,0.0,-0.8912,-1.5736,-1.8869,-2.0709,-2.1794,-2.2072,-2.1682,-2.1282,-2.1277,-2.1059,-2.0974,-2.1277,-2.1471,-2.1471,-2.1229,-2.1277,-2.0983,-2.0003,-1.8525,-1.7268,-1.642,-1.5488,-1.4834,-1.4529,-1.5118,-1.5748,-1.6301,-1.77,-1.8958,-1.9991,-2.0599,-2.1158,-2.1616,-2.203,-2.2217,-2.2184,-2.2231,-2.2278,2.6329,2.6495,2.6187,2.5997,2.4611,2.2748,2.0616,2.0833,2.092,1.8852,2.056,2.262,2.3247,2.4562,2.6247,0.0,0.0,0.0,3.2453,3.3293,3.4069,3.4897,3.5515,0.0,0.0,0.0,3.5923,0.0,0.0,0.0,3.6713,3.7887,3.8961,3.9888,3.8682,3.8378,3.9157,3.8507,3.8282,3.8479,3.6971,3.5943,3.53,3.3278,3.2692,3.3216,3.24,0.0,0.0,3.3634,3.3851,3.4464,3.3169,3.2335,3.1781,3.1301,3.0529,2.9775,2.9972,3.0557,3.0853,2.8331,2.4375,2.0067,1.7491,1.3369,0.9368,0.8279,0.9662,1.1272,0.986,0.9673,0.7985,0.0429,-0.6584,-1.2584,-1.631,-1.9044,-2.0733,-2.0797,-2.0463,-2.022,-2.0321,-2.0523,-2.0848,-2.1229,-2.1616,-2.1841,-2.1793,-2.1664,-2.1202,-2.0421,-1.8826,-1.7434,-1.6394,-1.5391,-1.4647,-1.4341,-1.5264,-1.5968,-1.6312,-1.771,-1.8815,-1.9488,-2.0042,-2.0446,-2.0772,-2.1215,-2.1361,-2.1104,-2.1361,-2.1471,2.3948,2.4443,2.4491,2.4545,2.3634,2.226,2.0526,2.0644,2.0515,1.8583,1.9961,2.1745,2.2389,2.4259,2.6309,0.0,0.0,3.0804,3.1733,3.2714,3.3429,0.0,0.0,3.5451,0.0,3.524,0.0,0.0,0.0,0.0,3.5491,3.6823,3.8299,3.9846,3.8522,3.8459,3.981,3.8554,3.8102,3.8443,3.6951,3.5903,3.5218,3.2989,3.2143,3.2355,3.1052,0.0,0.0,3.2015,3.2402,3.3158,3.2274,3.1768,3.1592,3.2127,3.1612,3.0775,3.1809,3.2355,3.2192,2.9573,2.2964,1.5686,1.3855,1.087,0.8173,0.8556,1.1154,1.2844,0.8982,0.6921,0.4744,0.0429,-0.4644,-0.9595,-1.3541,-1.6897,-1.9129,-1.927,-1.9359,-1.9475,-1.9722,-2.0396,-2.1104,-2.1458,-2.1921,-2.217,-2.2077,-2.1746,-2.114,-2.032,-1.8826,-1.749,-1.6553,-1.5728,-1.505,-1.4628,-1.5671,-1.6358,-1.6482,-1.7722,-1.8602,-1.9133,-1.9643,-1.9965,-2.0067,-2.051,-2.0547,-2.022,-2.056,-2.0927,2.0674,2.1249,2.1453,2.175,2.1931,2.1666,2.0289,2.0166,2.0263,2.0027,2.0822,2.1956,2.3079,2.5159,2.7009,2.7956,0.0,0.0,3.1648,3.261,3.2814,0.0,0.0,3.4404,3.2878,3.3872,0.0,0.0,0.0,0.0,3.4627,3.5448,3.6633,3.8181,3.7951,3.8489,3.9901,3.7973,3.7081,3.7198,3.6119,3.4918,3.3598,3.2435,3.1691,0.0,0.0,0.0,0.0,3.0375,3.0198,2.969,3.0001,2.9971,2.991,3.1378,3.1598,3.1422,3.3104,3.3554,3.2985,3.0491,2.1512,1.1518,1.0756,0.6376,0.3994,1.565,1.6487,1.3163,0.9916,0.6438,0.2888,-0.0331,-0.4043,-0.7629,-1.071,-1.4335,-1.7236,-1.7901,-1.8831,-1.9634,-2.0041,-2.1051,-2.1888,-2.2235,-2.2512,-2.248,-2.1888,-2.1431,-2.0733,-1.9515,-1.834,-1.7357,-1.6821,-1.6595,-1.6208,-1.5642,-1.6379,-1.6821,-1.7011,-1.7567,-1.8224,-1.8987,-1.9408,-1.9656,-1.9798,-2.0029,-1.9978,-1.9798,-2.0004,-2.0783,1.7523,1.9365,2.1025,2.1877,2.302,2.3643,2.2627,2.2505,2.2338,2.1358,2.195,2.2816,2.3465,2.4874,2.648,2.8111,2.904,0.0,0.0,0.0,0.0,3.1764,3.3191,3.4131,0.0,0.0,0.0,0.0,0.0,0.0,3.4212,3.47,3.5957,3.8208,3.7025,3.7077,3.8594,3.7392,3.6858,3.6977,3.5271,3.3886,3.2718,2.8913,2.7317,0.0,0.0,0.0,0.0,2.5899,2.659,2.7791,2.6866,2.6353,2.6288,2.6853,2.7442,2.808,2.8695,2.5543,2.1213,2.1128,1.1296,-0.0073,0.2221,0.0489,-0.0463,0.814,0.8488,0.6096,0.499,0.1818,-0.1184,-0.1253,-0.5564,-0.9812,-1.0227,-1.3447,-1.6395,-1.6828,-1.7598,-1.8507,-1.9389,-2.0518,-2.1595,-2.2466,-2.2815,-2.2905,-2.2572,-2.2474,-2.1767,-1.9914,-1.9454,-1.8492,-1.6641,-1.6016,-1.5853,-1.6187,-1.6754,-1.7268,-1.7744,-1.8344,-1.8881,-1.9408,-1.9656,-2.0051,-2.0665,-2.0849,-2.0836,-2.0679,-2.0628,-2.0987,1.4631,1.6633,1.8654,2.0941,2.2377,2.3295,2.3471,2.3615,2.3504,2.2664,2.3014,2.3577,2.4036,2.5152,2.6379,2.7621,2.8552,0.0,0.0,0.0,0.0,3.213,0.0,0.0,0.0,0.0,0.0,0.0,0.0,0.0,3.2947,3.365,3.4525,3.5611,3.5722,3.6267,3.7312,3.554,3.4359,3.3738,3.1576,2.9844,2.8464,2.4918,2.3468,0.0,0.0,0.0,0.0,2.2372,2.3096,2.4259,2.3187,2.2702,2.254,2.2571,2.2812,2.3299,2.4054,2.1088,1.6828,1.5944,0.5406,-0.718,-0.8262,-0.5687,-0.1815,0.0839,0.0644,-0.0199,0.0654,-0.1639,-0.404,-0.3357,-0.6854,-1.0322,-1.0309,-1.2814,-1.5206,-1.5753,-1.6746,-1.7938,-1.9169,-2.0529,-2.1824,-2.2995,-2.3478,-2.3623,-2.3478,-2.3103,-2.2221,-2.0568,-2.0128,-1.9305,-1.7698,-1.7047,-1.6845,-1.7213,-1.7786,-1.8255,-1.8506,-1.8827,-1.9198,-1.9656,-1.9604,-1.9935,-2.0666,-2.0758,-2.0758,-2.068,-2.0867,-2.1175,0.0,1.3383,1.5007,1.9094,2.0401,2.1228,2.3096,2.3691,0.0,2.3878,2.3985,2.4235,2.474,2.5746,2.6526,2.6685,2.778,0.0,0.0,3.0168,0.0,0.0,3.1583,0.0,0.0,0.0,0.0,0.0,0.0,0.0,3.1013,3.2146,3.224,3.1015,3.3699,3.5272,3.5504,3.2371,2.9913,2.8108,2.5802,2.3705,2.1857,2.072,2.01,0.0,0.0,0.0,0.0,1.9576,1.9878,1.9656,1.9388,1.9031,1.8695,1.8471,1.7917,1.7451,1.8868,1.8516,1.6756,1.2453,0.1778,-1.0916,-1.9126,-1.1992,-0.19,-0.5944,-0.6722,-0.5852,-0.3639,-0.4693,-0.6404,-0.6789,-0.8217,-0.9762,-1.1203,-1.2716,-1.3983,-1.4824,-1.6337,-1.7915,-1.9312,-2.0979,-2.2565,-2.3899,-2.4379,-2.4589,-2.4511,-2.352,-2.2426,-2.1458,-2.0641,-2.008,-1.9851,-1.923,-1.878,-1.8638,-1.9267,-1.95,-1.9291,-1.9186,-1.9344,-1.9901,-1.9577,-1.9641,-2.0207,-2.0156,-2.0144,-2.0195,-2.0944,-2.1417,0.9636,0.0,1.493,1.7464,1.9614,2.1595,0.0,2.3896,0.0,0.0,0.0,2.489,2.5073,2.5255,2.5663,2.6561,0.0,0.0,2.749,0.0,0.0,0.0,0.0,0.0,0.0,0.0,0.0,0.0,0.0,2.7437,2.9126,2.8956,2.8592,2.8028,2.7962,2.8217,2.8783,2.6779,2.5067,2.3594,2.2238,2.1015,1.9946,1.7549,1.6505,0.0,0.0,0.0,1.5992,1.6201,1.7009,1.7917,1.6958,1.5931,1.4726,1.372,1.3218,1.2767,1.0118,0.5497,-0.064,-0.8538,-1.4686,-1.9118,-1.9647,-1.7203,-1.3924,-1.2302,-1.2423,-1.2939,-1.275,-1.2838,-1.2772,-1.2079,-1.2668,-1.3534,-1.4231,-1.4489,-1.4749,-1.5352,-1.6847,-1.846,-1.9801,-2.1783,-2.3583,-2.4808,-2.5454,-2.5693,-2.5422,-2.5051,-2.4268,-2.2805,-2.2637,-2.2323,-2.1547,-2.0041,-1.9386,-1.9902,-1.9837,-1.9901,-2.0258,-2.0156,-2.0308,-2.0871,-2.1295,-2.1685,-2.2051,-2.1824,-2.1834,-2.2119,-2.2055,-2.2392,0.955,1.1607,1.4136,1.725,1.944,2.1294,2.3034,0.0,0.0,0.0,0.0,2.5018,2.5166,2.5136,0.0,0.0,2.6227,0.0,0.0,0.0,0.0,0.0,0.0,0.0,0.0,0.0,0.0,0.0,0.0,2.4678,2.5687,2.5241,2.4561,2.3805,2.214,2.2264,2.4451,2.2366,2.045,1.8759,1.7355,1.6313,1.5542,1.3823,1.3172,0.0,0.0,0.0,1.3608,1.4478,1.5171,1.5642,1.4934,1.374,1.2085,0.8908,0.7163,0.5745,0.2152,-0.3181,-0.9115,-1.3072,-1.8559,-2.2989,-2.0174,-2.0928,-2.2108,-1.8894,-1.662,-1.5456,-1.6788,-1.675,-1.623,-1.5522,-1.5834,-1.6483,-1.7221,-1.7142,-1.7146,-1.7672,-1.8622,-1.9725,-2.1131,-2.2732,-2.4351,-2.5707,-2.6319,-2.6589,-2.6505,-2.6241,-2.5663,-2.4662,-2.4465,-2.412,-2.345,-2.2212,-2.1349,-2.1077,-2.0795,-2.0709,-2.0871,-2.0809,-2.0993,-2.1513,-2.2233,-2.2734,-2.3044,-2.3126,-2.3235,-2.3356,-2.3584,-2.3896,1.0632,1.1902,1.3927,1.7838,1.963,2.0882,2.2647,0.0,0.0,0.0,0.0,0.0,0.0,2.5188,0.0,0.0,0.0,0.0,2.7622,2.6622,0.0,0.0,0.0,0.0,0.0,0.0,0.0,0.0,0.0,2.1668,2.138,2.0898,2.0134,1.9077,1.6917,1.7308,2.0514,1.8113,1.5984,1.4172,1.2508,1.1465,1.0812,1.0363,1.0363,1.0818,0.0,0.0,1.144,1.3117,1.3689,1.3416,1.3055,1.1706,0.9388,0.4729,0.1306,-0.151,-0.451,-0.9103,-1.3172,-1.1037,-1.6616,-2.3486,-2.0187,-2.2437,-2.5766,-2.384,-2.0203,-1.7284,-1.912,-1.9316,-1.8945,-1.8665,-1.884,-1.9376,-2.0316,-2.0361,-2.0321,-2.0841,-2.1144,-2.1693,-2.2935,-2.4108,-2.5313,-2.6681,-2.7213,-2.7478,-2.7646,-2.7291,-2.6918,-2.6656,-2.6118,-2.5657,-2.5314,-2.4735,-2.3781,-2.2377,-2.2002,-2.165,-2.141,-2.1479,-2.1771,-2.2211,-2.2892,-2.3417,-2.3758,-2.423,-2.4353,-2.4246,-2.4989,-2.5326,1.2035,1.4535,1.6859,1.8552,2.0027,2.1465,2.2991,0.0,0.0,0.0,0.0,0.0,0.0,2.5101,2.5194,0.0,0.0,0.0,0.0,0.0,0.0,0.0,0.0,0.0,0.0,0.0,0.0,0.0,0.0,1.6307,1.6719,1.5551,1.4842,1.4818,1.4275,1.3855,1.3573,1.2466,1.1732,1.1384,1.026,0.9695,0.9544,0.9013,0.8927,0.9301,0.0,0.9175,0.9528,1.0573,1.1365,1.189,1.1062,0.8359,0.4542,0.2405,-0.117,-0.5271,-0.8231,-1.3238,-1.7888,-1.5477,-1.7041,-1.962,-1.8507,-1.8827,-2.0106,-2.2651,-2.4081,-2.4808,-2.4643,-2.4671,-2.4594,-2.4047,-2.3842,-2.3877,-2.4253,-2.3765,-2.3295,-2.3507,-2.3955,-2.4541,-2.5201,-2.6396,-2.7489,-2.8198,-2.8612,-2.887,-2.8842,-2.8666,-2.8434,-2.8117,-2.7727,-2.725,-2.6653,-2.605,-2.5371,-2.465,-2.3331,-2.2529,-2.2328,-2.277,-2.3245,-2.3606,-2.3888,-2.4353,-2.4923,-2.5,-2.5131,-2.526,-2.5307,-2.542,1.3359,1.619,1.882,2.0406,2.1659,2.2566,2.2894,0.0,0.0,0.0,0.0,0.0,0.0,0.0,2.5418,2.5967,0.0,0.0,0.0,0.0,0.0,0.0,0.0,0.0,0.0,0.0,0.0,0.0,0.0,0.0,1.2671,1.2055,1.1627,1.1381,1.1429,1.1567,1.184,1.0816,1.0438,1.0651,0.983,0.9382,0.9084,0.8399,0.8318,0.8856,0.0,0.8639,0.8703,0.9571,0.9856,0.9771,0.9591,0.7906,0.493,-0.0233,-0.5986,-1.1335,-1.248,-1.5126,-1.7823,-1.6697,-1.7826,-1.9636,-1.9467,-2.0369,-2.1767,-2.3362,-2.4151,-2.4781,-2.6334,-2.6745,-2.6703,-2.6545,-2.6655,-2.6823,-2.6968,-2.6375,-2.5924,-2.6116,-2.6123,-2.6254,-2.6844,-2.7676,-2.8487,-2.9063,-2.9378,-2.9583,-2.9534,-2.9512,-2.9425,-2.9214,-2.8965,-2.8618,-2.8094,-2.7483,-2.6482,-2.4893,-2.3998,-2.3634,-2.38,-2.4168,-2.4665,-2.5227,-2.5576,-2.598,-2.6437,-2.6488,-2.6472,-2.6421,-2.6543,-2.6594,1.4157,1.72,1.9963,2.1742,2.3021,2.3696,2.305,0.0,0.0,0.0,0.0,0.0,0.0,2.4606,0.0,2.6979,0.0,0.0,0.0,0.0,0.0,0.0,0.0,0.0,0.0,0.0,0.0,0.0,0.0,0.0,0.9639,0.9519,0.9253,0.8826,0.9102,0.9797,1.0982,1.0177,1.0049,1.0564,0.9665,0.8995,0.8472,0.7715,0.7588,0.8012,0.8078,0.7901,0.7561,0.8304,0.8116,0.7406,0.7777,0.6391,0.3134,-0.4045,-1.0779,-1.6175,-1.5683,-1.6385,-1.7491,-1.761,-1.8895,-2.0602,-2.1,-2.241,-2.3879,-2.4002,-2.3519,-2.3689,-2.6735,-2.755,-2.7641,-2.795,-2.8396,-2.8755,-2.8862,-2.8392,-2.8041,-2.836,-2.7996,-2.7788,-2.8338,-2.8811,-2.9268,-2.9753,-2.9948,-3.0046,-3.0062,-3.0111,-3.0136,-3.0081,-2.9895,-2.9604,-2.912,-2.8588,-2.7485,-2.5546,-2.5029,-2.4978,-2.5292,-2.5504,-2.5949,-2.6671,-2.7116,-2.7505,-2.7824,-2.7868,-2.7752,-2.7495,-2.7713,-2.7641,1.4079,1.735,2.0031,2.1484,2.3229,0.0,2.3927,2.4633,0.0,2.3297,0.0,0.0,0.0,2.2854,2.4431,0.0,0.0,0.0,0.0,0.0,0.0,0.0,0.0,0.0,0.0,0.0,0.0,0.0,0.0,0.0,0.8446,0.7596,0.7289,0.7703,0.8015,0.8456,0.9036,0.927,0.9919,1.0773,0.9129,0.7894,0.7009,0.6417,0.6039,0.5854,0.6025,0.5637,0.501,0.5643,0.555,0.5004,0.51,0.0867,-0.5819,-1.003,-1.4159,-1.7423,-1.6775,-1.7716,-1.9388,-1.9836,-2.0502,-2.1319,-2.2185,-2.2441,-2.2605,-2.3349,-2.3815,-2.4601,-2.6764,-2.7679,-2.8218,-2.8844,-2.9226,-2.955,-2.9978,-2.9647,-2.9394,-2.9859,-2.9707,-2.9617,-2.9977,-3.0167,-3.0325,-3.0502,-3.0488,-3.0478,-3.0533,-3.0604,-3.0617,-3.0568,-3.0438,-3.0086,-2.9418,-2.9045,-2.8627,-2.8166,-2.718,-2.6602,-2.658,-2.6688,-2.7004,-2.7494,-2.79,-2.833,-2.8798,-2.8737,-2.8609,-2.8395,-2.8183,-2.795,1.2855,1.533,1.7279,2.15,2.2699,0.0,0.0,2.2885,2.2589,2.2953,2.3194,0.0,0.0,0.0,0.0,0.0,0.0,0.0,0.0,0.0,0.0,0.0,0.0,0.0,0.0,0.0,0.0,0.0,0.0,0.0,0.6234,0.6479,0.6413,0.5748,0.6706,0.7405,0.7776,0.8548,0.8902,0.8805,0.8122,0.7389,0.6611,0.6094,0.5651,0.5395,0.5085,0.4851,0.4698,0.4224,0.382,0.349,0.3335,-0.1139,-0.7569,-0.9218,-1.3599,-1.87,-1.8449,-1.9093,-2.0105,-2.0545,-2.1246,-2.2137,-2.3173,-2.3822,-2.4381,-2.5047,-2.5253,-2.5488,-2.6368,-2.6918,-2.7461,-2.8396,-2.8741,-2.9027,-2.9541,-2.9278,-2.9132,-2.9674,-2.9544,-2.9459,-2.9886,-2.9987,-3.01,-3.0313,-3.0445,-3.0513,-3.0598,-3.0681,-3.0742,-3.0735,-3.0564,-3.0328,-2.9989,-2.9778,-2.9576,-2.9403,-2.8384,-2.7871,-2.8001,-2.8251,-2.86,-2.9027,-2.9264,-2.9477,-2.9655,-2.9455,-2.921,-2.8938,-2.862,-2.8304,0.9292,1.3055,1.666,0.0,0.0,0.0,2.1829,2.1627,2.1592,2.2469,2.2364,0.0,0.0,0.0,0.0,0.0,0.0,0.0,0.0,0.0,0.0,0.0,0.0,0.0,0.0,0.0,0.0,0.0,0.0,0.0,0.0,0.6451,0.6285,0.542,0.5964,0.6305,0.6451,0.7142,0.732,0.7046,0.6984,0.6651,0.6165,0.5635,0.5211,0.495,0.4255,0.4024,0.3949,0.2996,0.2516,0.227,0.068,-0.335,-0.8491,-0.9993,-1.4287,-1.9501,-1.9727,-2.0142,-2.0661,-2.1331,-2.2009,-2.2764,-2.3694,-2.444,-2.5048,-2.554,-2.5648,-2.568,-2.5791,-2.6126,-2.6667,-2.7517,-2.7861,-2.8171,-2.878,-2.8626,-2.8548,-2.9217,-2.9119,-2.9037,-2.9458,-2.9531,-2.9635,-2.9928,-3.0105,-3.026,-3.0451,-3.0584,-3.0696,-3.0758,-3.0621,-3.0484,-3.0407,-3.0307,-3.023,-3.016,-2.9506,-2.9144,-2.9195,-2.9412,-2.9696,-3.0059,-3.0197,-3.0254,-3.0254,-3.003,-2.9789,-2.9506,-2.9213,-2.8904,0.3222,1.078,1.8849,0.0,0.0,0.0,1.9698,2.1222,2.2457,2.1808,0.0,1.9589,1.8602,0.0,0.0,0.0,0.0,0.0,0.0,0.0,0.0,0.0,0.0,0.0,0.0,0.0,0.0,0.0,0.0,0.0,0.0,0.7572,0.6941,0.7056,0.5913,0.523,0.502,0.4888,0.516,0.587,0.5554,0.5433,0.5507,0.4876,0.4418,0.4148,0.3394,0.2869,0.2414,0.1841,0.1555,0.1211,-0.2876,-0.6356,-0.9548,-1.3423,-1.6911,-1.9901,-2.0422,-2.0838,-2.1294,-2.2274,-2.2791,-2.3132,-2.3786,-2.4,-2.4024,-2.4234,-2.471,-2.5068,-2.5005,-2.5443,-2.6005,-2.6404,-2.67,-2.7109,-2.7913,-2.7817,-2.7832,-2.8615,-2.8621,-2.8567,-2.886,-2.8887,-2.9021,-2.942,-2.949,-2.9671,-3.0143,-3.0313,-3.0464,-3.0682,-3.0635,-3.0591,-3.0604,-3.0598,-3.0565,-3.0508,-3.0624,-3.0528,-3.0113,-3.0037,-3.0132,-3.0403,-3.0535,-3.0591,-3.06,-3.0457,-3.033,-3.0197,-2.9991,-2.9825,0.844,1.2114,0.0,1.9161,0.0,0.0,0.0,1.969,0.0,0.0,0.0,1.9075,2.0106,0.0,0.0,0.0,0.0,0.0,0.0,0.0,0.0,0.0,0.0,0.0,0.0,0.0,0.0,0.0,0.0,0.0,0.0,0.7321,0.6889,0.641,0.5818,0.5286,0.4889,0.5218,0.5329,0.5348,0.5084,0.502,0.5077,0.4641,0.4089,0.3461,0.2575,0.2281,0.235,0.0931,0.036,0.0,-0.3264,-0.649,-0.9811,-1.3209,-1.6854,-2.0228,-2.0724,-2.1149,-2.1584,-2.182,-2.2345,-2.2923,-2.3158,-2.357,-2.4085,-2.4844,-2.5004,-2.5021,-2.5501,-2.5289,-2.5044,-2.5644,-2.5697,-2.5826,-2.6486,-2.6471,-2.6488,-2.7009,-2.7235,-2.7395,-2.7525,-2.7951,-2.8327,-2.8481,-2.8886,-2.9363,-2.9975,-3.014,-3.0269,-3.0474,-3.0467,-3.0508,-3.0594,-3.0607,-3.058,-3.0567,-3.0562,-3.0531,-3.0448,-3.0476,-3.0538,-3.0603,-3.0643,-3.0664,-3.0663,-3.063,-3.054,-3.0411,-3.0306,-3.0102,0.6249,1.0009,0.0,1.6952,1.74,1.7438,1.9562,0.0,0.0,0.0,0.0,1.8953,0.0,0.0,0.0,0.0,0.0,0.0,0.0,0.0,0.0,0.0,0.0,0.0,0.0,0.0,0.0,0.0,0.0,0.0,0.0,0.7582,0.726,0.6929,0.5943,0.5219,0.4824,0.4957,0.509,0.5087,0.4951,0.4922,0.4863,0.4237,0.3598,0.2868,0.1719,0.129,0.1217,0.007,-0.0424,-0.0715,-0.4763,-0.7578,-0.997,-1.4316,-1.7455,-1.9645,-2.026,-2.0624,-2.0832,-2.1131,-2.1648,-2.2221,-2.2455,-2.3024,-2.3713,-2.4366,-2.4568,-2.4683,-2.5035,-2.4724,-2.4426,-2.4902,-2.4839,-2.4784,-2.5179,-2.5233,-2.5347,-2.5713,-2.5976,-2.6234,-2.6438,-2.6894,-2.7325,-2.7703,-2.8347,-2.8966,-2.9418,-2.9658,-2.9846,-3.003,-3.0138,-3.0244,-3.0351,-3.0392,-3.0402,-3.0442,-3.0381,-3.0355,-3.0399,-3.0541,-3.0628,-3.0619,-3.0614,-3.0638,-3.0662,-3.0699,-3.0664,-3.0569,-3.0535,-3.0411,-0.0037,0.0,0.0,1.2749,1.474,0.0,1.7722,1.9391,2.0326,1.8879,0.0,0.0,0.0,0.0,0.0,0.0,0.0,0.0,0.0,0.0,0.0,0.0,0.0,0.0,0.0,0.0,0.0,0.0,0.0,0.0,0.0,0.8021,0.7707,0.7972,0.6071,0.4885,0.4613,0.4361,0.4495,0.4954,0.4954,0.4888,0.4686,0.379,0.2999,0.223,0.0907,0.007,-0.0419,-0.0768,-0.0837,-0.1183,-0.6895,-0.9226,-1.012,-1.6009,-1.8283,-1.8463,-1.9286,-1.9436,-1.9445,-2.0229,-2.0759,-2.1237,-2.1732,-2.2388,-2.3038,-2.3172,-2.3696,-2.4135,-2.3982,-2.394,-2.3925,-2.4094,-2.4009,-2.3909,-2.4044,-2.4096,-2.4271,-2.4611,-2.4775,-2.5022,-2.5427,-2.5737,-2.6182,-2.7012,-2.785,-2.8451,-2.8607,-2.8981,-2.9286,-2.9457,-2.9689,-2.9877,-2.9954,-3.0032,-3.0095,-3.0155,-3.0095,-3.0075,-3.0046,-3.0316,-3.0475,-3.0455,-3.0453,-3.05,-3.0567,-3.0639,-3.0672,-3.068,-3.0683,-3.0706,0.2927,0.7612,0.0,0.0,1.6114,1.7969,1.7238,1.7988,1.868,1.7974,1.8256,0.0,0.0,0.0,0.0,0.0,0.0,0.0,0.0,0.0,0.0,0.0,0.0,0.0,0.0,0.0,0.0,0.0,0.0,0.0,0.7583,0.6841,0.6461,0.6519,0.5345,0.4287,0.3347,0.3558,0.3761,0.0,0.4023,0.4092,0.4159,0.3509,0.2369,0.0881,0.0135,-0.0474,-0.1153,-0.1765,-0.1901,-0.2096,-0.7371,-0.9328,-0.9893,-1.5264,-1.7531,-1.789,-1.8181,-1.855,-1.8898,-1.9267,-1.9834,-2.0484,-2.0944,-2.1541,-2.217,-2.2558,-2.3024,-2.3392,-2.3538,-2.3363,-2.3113,-2.292,-2.3009,-2.3113,-2.3039,-2.3024,-2.3024,-2.3025,-2.346,-2.3884,-2.4096,-2.4823,-2.566,-2.659,-2.7203,-2.7694,-2.8085,-2.8406,-2.874,-2.9124,-2.9321,-2.9514,-2.968,-2.9748,-2.9799,-2.9815,-2.9836,-2.9822,-2.9713,-2.9969,-3.0125,-3.0196,-3.0196,-3.0209,-3.0285,-3.0414,-3.046,-3.0471,-3.0633,-3.0667,0.3085,0.0,0.0,1.2351,0.0,1.6384,1.6043,1.6682,1.7218,1.704,0.0,0.0,0.0,0.0,0.0,0.0,0.0,0.0,0.0,0.0,0.0,0.0,0.0,0.0,0.0,0.0,0.0,0.0,0.0,0.6414,0.6818,0.6093,0.5791,0.5994,0.4947,0.4096,0.3413,0.3508,0.3711,0.4023,0.4225,0.4025,0.3553,0.2616,0.1555,0.048,-0.0405,-0.1015,-0.1508,-0.2367,-0.2555,-0.2815,-0.6673,-0.8714,-0.9969,-1.3735,-1.6069,-1.7301,-1.7512,-1.7952,-1.8483,-1.8786,-1.9396,-2.0093,-2.051,-2.1104,-2.1746,-2.2063,-2.2526,-2.2934,-2.2963,-2.2799,-2.2558,-2.2249,-2.2296,-2.2388,-2.2063,-2.2016,-2.2002,-2.1799,-2.2239,-2.2696,-2.3069,-2.4236,-2.5319,-2.5983,-2.6471,-2.6903,-2.7199,-2.7561,-2.7949,-2.8381,-2.8664,-2.8934,-2.9256,-2.9299,-2.9379,-2.9495,-2.9455,-2.9394,-2.9314,-2.9418,-2.9604,-2.9908,-2.9962,-3.0056,-3.0136,-3.0259,-3.0332,-3.0404,-3.0533,-3.0603,0.1414,0.0,0.694,1.0942,1.3078,0.0,1.4631,1.5336,1.5972,1.6308,0.0,0.0,0.0,0.0,0.0,0.0,0.0,0.0,0.0,0.0,0.0,0.0,0.0,0.0,0.0,0.0,0.0,0.0,0.0,0.5904,0.6204,0.5423,0.5176,0.5563,0.4607,0.396,0.3657,0.3642,0.3848,0.4359,0.4561,0.4159,0.3218,0.1956,0.1093,0.0486,-0.0611,-0.1226,-0.1458,-0.2443,-0.2889,-0.322,-0.581,-0.8069,-1.0151,-1.2374,-1.4683,-1.674,-1.6965,-1.7357,-1.792,-1.8356,-1.8975,-1.9592,-1.9952,-2.061,-2.1251,-2.1444,-2.1908,-2.2267,-2.2156,-2.2095,-2.1941,-2.1636,-2.165,-2.1602,-2.1215,-2.1131,-2.1118,-2.0993,-2.1396,-2.1921,-2.2558,-2.3918,-2.5005,-2.5313,-2.5799,-2.6123,-2.6264,-2.6707,-2.7158,-2.7547,-2.7964,-2.835,-2.8724,-2.8772,-2.8888,-2.9107,-2.8989,-2.8915,-2.891,-2.8863,-2.9056,-2.9532,-2.9681,-2.9855,-3.0022,-3.0089,-3.0196,-3.0337,-3.0424,-3.0494,0.0,0.0,0.756,0.0,1.3252,1.3811,0.0,0.0,1.4944,0.0,0.0,0.0,0.0,0.0,0.0,0.0,0.0,0.0,0.0,0.0,0.0,0.0,0.0,0.0,0.0,0.0,0.0,0.0,0.4862,0.4959,0.5358,0.4624,0.431,0.4449,0.3801,0.3097,0.2268,0.3033,0.3331,0.3224,0.3825,0.3892,0.3422,0.2886,0.1993,0.0743,0.0067,-0.0337,-0.0743,-0.1816,-0.2484,-0.3017,-0.5741,-0.8249,-1.0643,-1.2639,-1.4644,-1.6379,-1.6275,-1.6513,-1.6853,-1.7123,-1.7831,-1.8536,-1.8685,-1.9202,-1.9773,-2.0144,-2.0484,-2.0769,-2.1077,-2.0993,-2.0809,-2.0623,-2.0523,-2.0523,-2.0809,-2.0523,-2.0334,-2.0759,-2.1561,-2.2466,-2.3143,-2.3994,-2.4645,-2.4846,-2.5323,-2.5701,-2.5795,-2.6264,-2.674,-2.7141,-2.756,-2.7869,-2.8102,-2.8272,-2.8402,-2.841,-2.8529,-2.8565,-2.8569,-2.8565,-2.8646,-2.8821,-2.9144,-2.9414,-2.9664,-2.9803,-2.9915,-3.0064,-3.0235,-3.0367,0.0053,0.3032,0.6258,0.0,0.9964,1.0385,1.034,0.0,1.2607,0.0,0.0,0.0,0.0,0.0,0.0,0.0,0.0,0.0,0.0,0.0,0.0,0.0,0.0,0.0,0.0,0.0,0.0,0.0,0.4741,0.4394,0.4542,0.3884,0.3542,0.3724,0.3357,0.2935,0.2374,0.3053,0.3463,0.3558,0.3689,0.3689,0.3623,0.3195,0.2309,0.1212,0.0614,0.0,-0.0738,-0.1542,-0.2281,-0.3155,-0.4656,-0.6819,-0.9319,-1.0567,-1.2559,-1.4711,-1.5061,-1.5603,-1.6234,-1.6719,-1.7268,-1.7886,-1.8201,-1.8513,-1.8874,-1.919,-1.9438,-1.9736,-2.0004,-2.0029,-2.0055,-2.0055,-2.0016,-2.0016,-2.0105,-2.0067,-2.0182,-2.0709,-2.1334,-2.2095,-2.2965,-2.3523,-2.3925,-2.4317,-2.467,-2.4934,-2.5091,-2.5577,-2.6071,-2.6437,-2.6822,-2.708,-2.7203,-2.7447,-2.7549,-2.7514,-2.7694,-2.7833,-2.7897,-2.7964,-2.8075,-2.8246,-2.8766,-2.9191,-2.9474,-2.957,-2.9716,-2.9886,-2.9931,-3.0037,0.0,0.0,0.4421,0.6236,0.701,0.7361,0.0,0.0,1.0272,0.0,0.0,0.0,0.0,0.0,0.0,0.0,0.0,0.0,0.0,0.0,0.0,0.0,0.0,0.0,0.0,0.0,0.0,0.0,0.4787,0.4188,0.3981,0.3404,0.3182,0.3398,0.314,0.2933,0.2825,0.3136,0.3488,0.3961,0.3489,0.3355,0.3491,0.3181,0.2572,0.1751,0.1372,0.0615,-0.0402,-0.1072,-0.2012,-0.3155,-0.3885,-0.5952,-0.8488,-0.9225,-1.1098,-1.3382,-1.404,-1.4827,-1.5593,-1.612,-1.6698,-1.7157,-1.749,-1.7699,-1.7918,-1.807,-1.8263,-1.8519,-1.8691,-1.8874,-1.9056,-1.9267,-1.9331,-1.9436,-1.9604,-1.9875,-2.0233,-2.0709,-2.1153,-2.1793,-2.2663,-2.3038,-2.3407,-2.3797,-2.4051,-2.4261,-2.4385,-2.5005,-2.5452,-2.5577,-2.6092,-2.6343,-2.6301,-2.6506,-2.6639,-2.6655,-2.6901,-2.7049,-2.708,-2.7303,-2.7457,-2.7648,-2.821,-2.8759,-2.9256,-2.9355,-2.9513,-2.9713,-2.9716,-2.9803,0.0,0.1876,0.0,0.5247,0.6153,0.0,0.0,0.0,0.0,0.0,0.0,0.0,0.0,0.0,0.0,0.0,0.0,0.0,0.0,0.0,0.0,0.0,0.0,0.0,0.0,0.0,0.0,0.0,0.4739,0.4303,0.3865,0.3465,0.3297,0.3426,0.3064,0.2992,0.3153,0.3069,0.3286,0.3825,0.3088,0.2753,0.2755,0.2969,0.2826,0.2357,0.2557,0.2017,0.0941,-0.0134,-0.1405,-0.2878,-0.4212,-0.6603,-0.9322,-0.9932,-1.1312,-1.3039,-1.376,-1.4273,-1.4638,-1.4914,-1.5603,-1.6312,-1.6093,-1.6332,-1.6684,-1.6606,-1.6595,-1.6765,-1.7202,-1.7302,-1.7424,-1.7886,-1.8104,-1.8471,-1.954,-2.0105,-2.0472,-2.0759,-2.1348,-2.1935,-2.242,-2.2844,-2.3157,-2.3406,-2.3739,-2.3967,-2.3882,-2.4655,-2.506,-2.4623,-2.544,-2.5886,-2.5486,-2.557,-2.577,-2.5931,-2.6197,-2.6318,-2.6247,-2.6624,-2.6873,-2.6952,-2.7299,-2.7918,-2.8821,-2.9016,-2.9256,-2.9514,-2.9626,-2.977,0.0,0.0,0.0,0.2491,0.3197,0.369,0.0,0.5462,0.0,0.0,0.0,0.0,0.0,0.0,0.0,0.0,0.0,0.0,0.0,0.0,0.0,0.0,0.0,0.0,0.0,0.0,0.0,0.0,0.0,0.4101,0.3583,0.3244,0.3046,0.2999,0.2823,0.2833,0.3103,0.2851,0.2905,0.3291,0.2688,0.2554,0.2889,0.2376,0.2239,0.2353,0.2084,0.168,0.1075,-0.0537,-0.1808,-0.2876,-0.4869,-0.6633,-0.8233,-0.9348,-1.0438,-1.1509,-1.2274,-1.3009,-1.3614,-1.4163,-1.4756,-1.5284,-1.5235,-1.542,-1.5594,-1.5758,-1.5874,-1.6046,-1.6673,-1.6944,-1.7213,-1.7765,-1.7995,-1.8278,-1.8939,-1.9527,-2.0067,-2.056,-2.1019,-2.1458,-2.1969,-2.2156,-2.2356,-2.2572,-2.2844,-2.3054,-2.3201,-2.4133,-2.4504,-2.3867,-2.464,-2.4933,-2.4173,-2.4343,-2.4585,-2.4736,-2.4957,-2.5189,-2.5395,-2.5693,-2.5947,-2.6195,-2.6623,-2.7282,-2.8228,-2.859,-2.8837,-2.8983,-2.9209,-2.9392,-0.0226,0.0,0.0,0.0,0.0,0.1668,0.2561,0.0,0.0,0.0,0.0,0.0,0.0,0.0,0.0,0.0,0.0,0.0,0.0,0.0,0.0,0.0,0.0,0.0,0.0,0.0,0.0,0.0,0.0,0.0,0.3302,0.2907,0.2601,0.2492,0.2517,0.2656,0.2983,0.2693,0.268,0.2824,0.2354,0.222,0.2351,0.168,0.1546,0.1813,0.1209,0.1008,0.0873,-0.0938,-0.2275,-0.334,-0.5592,-0.6976,-0.7952,-0.9186,-1.0028,-1.0611,-1.1428,-1.229,-1.3025,-1.3459,-1.4001,-1.4478,-1.4538,-1.4547,-1.4666,-1.4893,-1.501,-1.5118,-1.5816,-1.6265,-1.6775,-1.7268,-1.7567,-1.7843,-1.8201,-1.8951,-1.9708,-2.0271,-2.0673,-2.097,-2.141,-2.1554,-2.1712,-2.1949,-2.2203,-2.2388,-2.2572,-2.3426,-2.3756,-2.3037,-2.3746,-2.3954,-2.3187,-2.3333,-2.355,-2.3767,-2.4032,-2.4307,-2.4567,-2.495,-2.5221,-2.5449,-2.5892,-2.6471,-2.722,-2.7901,-2.8368,-2.8554,-2.8785,-2.898,0.0,0.0,0.0,0.0,0.0,0.0,0.1729,0.0,0.3875,0.0,0.0,0.0,0.0,0.0,0.0,0.0,0.0,0.0,0.0,0.0,0.0,0.0,0.0,0.0,0.0,0.0,0.0,0.0,0.4026,0.3585,0.314,0.2519,0.2074,0.18,0.22,0.2507,0.2653,0.2598,0.2546,0.2357,0.2018,0.1614,0.1076,0.0874,0.0739,0.0739,0.0,-0.0067,0.0269,-0.1272,-0.2804,-0.4199,-0.6384,-0.7767,-0.8678,-0.9697,-1.0281,-1.0611,-1.1373,-1.212,-1.2805,-1.2805,-1.3346,-1.395,-1.383,-1.3769,-1.383,-1.413,-1.401,-1.395,-1.4538,-1.5294,-1.5989,-1.6316,-1.6694,-1.7067,-1.7412,-1.8471,-1.9488,-1.9875,-2.0271,-2.061,-2.0759,-2.097,-2.1229,-2.152,-2.1793,-2.1949,-2.1935,-2.2622,-2.2762,-2.2052,-2.2732,-2.3022,-2.2523,-2.2603,-2.2799,-2.3083,-2.345,-2.3709,-2.3782,-2.441,-2.4775,-2.4775,-2.5153,-2.5481,-2.5779,-2.6965,-2.7759,-2.8183,-2.8376,-2.8565,-0.1186,0.0,0.0,0.0,0.0,0.0,0.0893,0.2176,0.3361,0.0,0.0,0.0,0.0,0.0,0.0,0.0,0.0,0.0,0.0,0.0,0.0,0.0,0.0,0.0,0.0,0.0,0.0,0.0,0.3429,0.3194,0.3011,0.2437,0.2038,0.209,0.2117,0.2159,0.2342,0.2423,0.237,0.2221,0.1748,0.1344,0.1076,0.0336,0.0,-0.0067,-0.0739,-0.121,-0.1546,-0.288,-0.3803,-0.465,-0.7414,-0.8924,-0.9703,-1.0787,-1.1303,-1.149,-1.1809,-1.2251,-1.2621,-1.2498,-1.2911,-1.3459,-1.3164,-1.3164,-1.3285,-1.358,-1.3571,-1.3631,-1.435,-1.5118,-1.5652,-1.5536,-1.5931,-1.6446,-1.6797,-1.7556,-1.8363,-1.9146,-1.9448,-1.9643,-1.9901,-2.0016,-2.0105,-2.0258,-2.051,-2.0709,-2.0809,-2.1676,-2.2024,-2.122,-2.1939,-2.2309,-2.1739,-2.1841,-2.2123,-2.254,-2.2768,-2.3038,-2.3304,-2.3551,-2.3724,-2.3794,-2.4313,-2.4759,-2.5028,-2.6302,-2.7123,-2.74,-2.7844,-2.8405,0.0,0.0,0.0,0.0,0.0,0.0,0.0335,0.1507,0.2654,0.0,0.0,0.0,0.0,0.0,0.0,0.0,0.0,0.0,0.0,0.0,0.0,0.0,0.0,0.0,0.0,0.303,0.2994,0.2757,0.271,0.263,0.2351,0.1989,0.1765,0.18,0.165,0.1675,0.201,0.2135,0.2057,0.1817,0.1412,0.1076,0.0739,-0.0134,-0.047,-0.0403,-0.1277,-0.1883,-0.242,-0.3882,-0.4734,-0.5443,-0.8006,-0.9512,-1.0281,-1.1115,-1.156,-1.1802,-1.1934,-1.2182,-1.2375,-1.2243,-1.2544,-1.285,-1.2674,-1.2621,-1.2736,-1.3094,-1.3268,-1.345,-1.4052,-1.4597,-1.4951,-1.5069,-1.541,-1.5874,-1.6285,-1.6842,-1.7512,-1.8387,-1.8827,-1.904,-1.9028,-1.9174,-1.9291,-1.9448,-1.9708,-1.9901,-1.9952,-2.0694,-2.104,-2.0649,-2.1212,-2.1542,-2.1402,-2.152,-2.1746,-2.2137,-2.2324,-2.2555,-2.2859,-2.3038,-2.3172,-2.329,-2.3696,-2.4021,-2.4348,-2.5607,-2.6438,-2.6886,-2.722,-2.7696,0.0,0.0,0.0,0.0,0.0,0.0,0.0,0.095,0.1938,0.3164,0.3764,0.0,0.0,0.0,0.0,0.0,0.0,0.0,0.0,0.0,0.0,0.0,0.0,0.0,0.1993,0.2058,0.2037,0.1734,0.1981,0.1898,0.1372,0.1339,0.1296,0.1241,0.099,0.119,0.174,0.174,0.1569,0.121,0.1008,0.0672,0.0202,-0.0605,-0.0807,-0.0739,-0.1816,-0.242,-0.2683,-0.4411,-0.5533,-0.6322,-0.8226,-0.9594,-1.0548,-1.0933,-1.1435,-1.1802,-1.1802,-1.1934,-1.2058,-1.2003,-1.212,-1.2243,-1.2243,-1.212,-1.2127,-1.2498,-1.2911,-1.3268,-1.3588,-1.3769,-1.413,-1.4734,-1.501,-1.5294,-1.5884,-1.6285,-1.674,-1.7567,-1.8236,-1.8572,-1.8278,-1.8441,-1.8655,-1.8827,-1.9016,-1.9214,-1.9267,-1.9631,-2.0003,-2.0321,-2.056,-2.0908,-2.1326,-2.1471,-2.1616,-2.1746,-2.2044,-2.2278,-2.2509,-2.2723,-2.2844,-2.2994,-2.3127,-2.3392,-2.3837,-2.4871,-2.573,-2.6403,-2.6437,-2.6623,0.0,0.0,0.0,0.0,0.0,0.0,0.0,0.095,0.1953,0.0,0.3506,0.0,0.0,0.0,0.0,0.0,0.0,0.0,0.0,0.0,0.0,0.0,0.0,0.0,0.1703,0.1633,0.1493,0.1338,0.1341,0.1275,0.1077,0.0935,0.0998,0.1405,0.1062,0.1127,0.1546,0.1417,0.1176,0.0874,0.0269,-0.0134,-0.0403,-0.1277,-0.1681,-0.1681,-0.2487,-0.309,-0.3623,-0.4686,-0.5609,-0.6527,-0.8296,-0.953,-1.0428,-1.1052,-1.149,-1.1802,-1.1685,-1.1809,-1.2003,-1.1622,-1.1677,-1.1926,-1.1926,-1.1685,-1.149,-1.1553,-1.205,-1.249,-1.2613,-1.3086,-1.37,-1.413,-1.4478,-1.4942,-1.541,-1.5816,-1.6104,-1.6389,-1.7179,-1.7799,-1.7952,-1.7733,-1.7567,-1.7733,-1.7776,-1.7984,-1.8429,-1.8922,-1.9396,-2.0029,-2.0233,-2.0485,-2.0974,-2.1046,-2.1229,-2.1471,-2.1841,-2.2044,-2.2137,-2.2263,-2.231,-2.2217,-2.2449,-2.2844,-2.3348,-2.421,-2.4776,-2.5089,-2.5357,-2.5529,0.0,0.0,0.0,-0.2794,0.0,0.0,0.0,0.084,0.1736,0.2965,0.3188,0.0,0.0,0.0,0.0,0.0,0.0,0.0,0.0,0.0,0.0,0.0,0.0,0.0,0.0917,0.0758,0.066,0.0628,0.0259,0.0196,0.0581,0.0581,0.0715,0.0922,0.0716,0.065,0.0724,0.0461,0.0265,0.0,-0.0538,-0.0874,-0.1076,-0.1748,-0.2018,-0.2087,-0.2824,-0.3424,-0.3959,-0.4891,-0.5815,-0.6793,-0.8231,-0.9396,-1.0428,-1.0863,-1.124,-1.1553,-1.156,-1.1622,-1.156,-1.1373,-1.1373,-1.1435,-1.1303,-1.1178,-1.1052,-1.1052,-1.149,-1.1996,-1.2058,-1.2544,-1.3155,-1.358,-1.3941,-1.4359,-1.4824,-1.5294,-1.5642,-1.5931,-1.6513,-1.7022,-1.7301,-1.7312,-1.7312,-1.7534,-1.7623,-1.7843,-1.829,-1.8721,-1.9198,-1.972,-2.0029,-2.0385,-2.0799,-2.0947,-2.1082,-2.1375,-2.1792,-2.1917,-2.1712,-2.2035,-2.2,-2.1396,-2.1541,-2.1766,-2.21,-2.2637,-2.339,-2.4292,-2.448,-2.4641,0.0,0.0,0.0,0.0,0.0,-0.0728,0.0,0.0,0.0,0.0,0.0,0.0,0.0,0.0,0.0,0.0,0.0,0.0,0.0,0.0,0.0,0.0,0.0,0.0,0.0335,0.0,-0.0175,-0.0246,-0.0779,-0.0728,0.0,0.0198,0.0335,0.027,0.0268,0.0134,-0.0067,-0.0403,-0.0672,-0.0874,-0.1277,-0.1547,-0.1681,-0.2153,-0.2356,-0.2423,-0.3092,-0.3627,-0.4228,-0.516,-0.6145,-0.712,-0.8032,-0.9198,-1.0358,-1.0485,-1.08,-1.1185,-1.131,-1.1247,-1.1122,-1.1178,-1.1122,-1.0996,-1.0807,-1.0744,-1.0744,-1.0744,-1.1059,-1.1435,-1.1677,-1.2058,-1.2552,-1.3094,-1.3459,-1.3881,-1.43,-1.4706,-1.5108,-1.5517,-1.5816,-1.6171,-1.6694,-1.6987,-1.7211,-1.7423,-1.7579,-1.7799,-1.8193,-1.8614,-1.904,-1.9512,-1.9875,-2.022,-2.061,-2.0772,-2.0983,-2.1215,-2.1609,-2.1663,-2.1291,-2.1672,-2.1499,-2.061,-2.0597,-2.0696,-2.0832,-2.1104,-2.2021,-2.3578,-2.3578,-2.3791,0.0,0.0,0.0,0.0,-0.1899,0.0,0.0,0.0,0.1625,0.2852,0.0,0.0,0.0,0.0,0.0,0.0,0.0,0.0,0.0,0.0,0.0,0.0,0.0,0.0,0.0,-0.0177,-0.0796,-0.1231,-0.1016,-0.0841,-0.0581,-0.0324,-0.0131,0.0,0.0066,-0.0131,-0.047,-0.0672,-0.0941,-0.1277,-0.1817,-0.2018,-0.1884,-0.2621,-0.2889,-0.2958,-0.3627,-0.4228,-0.4764,-0.5683,-0.6662,-0.7642,-0.7912,-0.8689,-0.9582,-0.9646,-1.0098,-1.0681,-1.0618,-1.0807,-1.1059,-1.0933,-1.087,-1.0807,-1.0688,-1.0624,-1.0624,-1.0624,-1.0688,-1.0807,-1.1247,-1.1615,-1.2058,-1.2674,-1.3216,-1.3571,-1.3821,-1.4001,-1.4181,-1.4332,-1.4737,-1.5439,-1.6581,-1.6658,-1.6534,-1.6694,-1.674,-1.7022,-1.7667,-1.805,-1.8536,-1.9368,-1.9565,-1.9772,-2.0093,-2.0233,-2.0435,-2.066,-2.0725,-2.0775,-2.0858,-2.0575,-2.022,-1.9773,-1.9837,-2.0042,-2.0283,-2.0459,-2.114,-2.2388,-2.2452,-2.268,0.0,0.0,0.0,0.0,0.0,0.0,0.0452,0.0,0.2063,0.0,0.0,0.0,0.0,0.0,0.0,0.0,0.2775,0.0,0.0,0.0,0.0,0.0,0.0,0.0,0.0,0.0,0.0,0.0,-0.1318,-0.1159,-0.1031,-0.0645,-0.0458,-0.0472,-0.0328,-0.0458,-0.0873,-0.1008,-0.121,-0.148,-0.1951,-0.2287,-0.2554,-0.3088,-0.3422,-0.3627,-0.4359,-0.4954,-0.5481,-0.6272,-0.699,-0.7707,-0.7917,-0.8624,-0.9518,-0.9518,-0.9716,-0.997,-0.9849,-1.004,-1.0371,-1.0491,-1.0428,-1.0364,-1.0428,-1.0371,-1.0244,-1.0244,-1.0491,-1.0744,-1.0933,-1.1428,-1.1926,-1.2305,-1.2613,-1.285,-1.3164,-1.3285,-1.3407,-1.3743,-1.4273,-1.4874,-1.5584,-1.6066,-1.6467,-1.6786,-1.6909,-1.7179,-1.7831,-1.8278,-1.8667,-1.8999,-1.9356,-1.9617,-1.9629,-1.9875,-1.9965,-2.0016,-1.9798,-1.9982,-2.0594,-1.9597,-1.8951,-1.8845,-1.891,-1.9004,-1.919,-1.9592,-2.0207,-2.0944,-2.1527,-2.1921,-0.2408,0.0,0.0,0.0,0.0,0.0,0.0,0.0,0.0,0.0,0.0,0.0,0.0,0.0,0.0,0.0,0.0,0.2732,0.0,0.0,0.0,0.0,0.0,0.0,0.0,0.0,0.0,0.0,0.0,-0.1621,-0.1382,-0.0945,-0.077,-0.0866,-0.0648,-0.0714,-0.1075,-0.121,-0.1345,-0.1614,-0.2085,-0.2622,-0.3092,-0.3489,-0.3825,-0.4228,-0.4954,-0.5481,-0.6005,-0.6728,-0.7321,-0.7712,-0.8047,-0.856,-0.9134,-0.9134,-0.9198,-0.9332,-0.9274,-0.9536,-0.9862,-1.0244,-1.0238,-1.0047,-1.0301,-1.0238,-1.011,-1.0174,-1.0428,-1.0681,-1.0807,-1.1178,-1.1622,-1.1809,-1.1996,-1.2182,-1.2428,-1.256,-1.2674,-1.2964,-1.3623,-1.4231,-1.4469,-1.5478,-1.6296,-1.6673,-1.6853,-1.7123,-1.7667,-1.8127,-1.841,-1.8518,-1.8987,-1.9251,-1.9263,-1.95,-1.954,-1.9396,-1.9172,-1.925,-1.9686,-1.8732,-1.8132,-1.7952,-1.8007,-1.817,-1.8321,-1.8869,-1.9291,-1.9695,-2.061,-2.1215,0.0,0.0,0.0,-0.1846,0.0,0.0,0.0,0.0,0.2849,0.0,0.0,0.0,0.0,0.0,0.0,0.0,0.0,0.0,0.0,0.0,0.0,0.0,0.0,0.0,0.0,0.0,0.0,0.0,0.0,0.0,-0.1824,-0.1536,-0.1277,-0.1033,-0.0817,-0.0826,-0.1075,-0.1076,-0.1277,-0.1614,-0.2351,-0.2889,-0.3226,-0.3761,-0.4295,-0.4831,-0.5352,-0.5745,-0.6141,-0.7129,-0.7591,-0.7731,-0.8301,-0.8361,-0.8236,-0.8236,-0.8501,-0.8899,-0.921,-0.9536,-0.9868,-1.0434,-1.0301,-1.0047,-1.0498,-1.0434,-1.0308,-1.0561,-1.0434,-1.0364,-1.0744,-1.0807,-1.0926,-1.124,-1.1498,-1.1622,-1.1622,-1.1872,-1.2058,-1.1864,-1.2658,-1.339,-1.3511,-1.4834,-1.5961,-1.6114,-1.6228,-1.6467,-1.6807,-1.7088,-1.7412,-1.7909,-1.817,-1.8452,-1.8798,-1.9093,-1.9133,-1.8857,-1.9061,-1.8688,-1.7645,-1.8103,-1.7989,-1.7078,-1.7357,-1.7634,-1.7897,-1.817,-1.8506,-1.8851,-1.9823,-2.0536,0.0,0.0,-0.1235,-0.0701,0.0,0.0,0.0,0.0,0.0,0.0,0.0,0.0,0.0,0.0,0.0,0.0,0.0,0.0,0.0,0.0,0.0,0.0,0.0,0.0,0.0,0.0,0.0,0.0,0.0,0.0,0.0,-0.1824,-0.144,-0.1128,-0.0994,-0.0882,-0.0916,-0.1133,-0.1412,-0.1817,-0.2418,-0.3021,-0.3625,-0.4228,-0.4764,-0.5226,-0.6086,-0.6539,-0.6666,-0.7521,-0.7722,-0.7591,-0.7852,-0.7787,-0.7591,-0.8166,-0.8431,-0.8501,-0.8952,-0.9087,-0.9221,-0.9862,-0.9989,-0.9989,-1.0434,-1.0618,-1.0681,-1.087,-1.087,-1.0807,-1.0807,-1.087,-1.0996,-1.0989,-1.0996,-1.1122,-1.1247,-1.1247,-1.131,-1.1428,-1.2158,-1.2887,-1.313,-1.4052,-1.4961,-1.5439,-1.5594,-1.5884,-1.6285,-1.6673,-1.7056,-1.7401,-1.7788,-1.8061,-1.8182,-1.8116,-1.8155,-1.8374,-1.7845,-1.7437,-1.7254,-1.699,-1.6785,-1.6513,-1.6797,-1.7022,-1.729,-1.7689,-1.8073,-1.8344,-1.9227,-1.9793,-0.0671,-0.0604,0.0,0.0394,0.0795,0.0,0.2491,0.0,0.0,0.0,0.0,0.0,0.0,0.0,0.0,0.0,0.0,0.0,0.0,0.133,0.0,0.0,0.0,0.0,0.0,0.0,0.0,0.0,0.0,0.0,0.0,0.0,-0.176,-0.1334,-0.1227,-0.1002,-0.0775,-0.1061,-0.1412,-0.1817,-0.2485,-0.3222,-0.4023,-0.4561,-0.5093,-0.569,-0.6284,-0.6675,-0.6863,-0.7326,-0.7461,-0.733,-0.7466,-0.74,-0.7269,-0.7977,-0.8236,-0.8301,-0.8823,-0.8958,-0.8964,-0.9612,-0.9804,-0.9868,-1.0371,-1.0555,-1.0681,-1.087,-1.0933,-1.0933,-1.0681,-1.0807,-1.087,-1.0555,-1.0555,-1.0618,-1.0624,-1.0618,-1.0681,-1.0933,-1.1545,-1.2212,-1.2589,-1.3199,-1.4001,-1.4902,-1.5203,-1.5478,-1.574,-1.6246,-1.6738,-1.6976,-1.7301,-1.7579,-1.7744,-1.7412,-1.7331,-1.7636,-1.6896,-1.6537,-1.6611,-1.6313,-1.6171,-1.6134,-1.6343,-1.657,-1.6842,-1.7375,-1.7701,-1.7897,-1.87,-1.9258]}]]